<?xml version="1.0" encoding="UTF-8" standalone="no" ?>
<gpx xmlns="http://www.topografix.com/GPX/1/1" xmlns:xsi="http://www.w3.org/2001/XMLSchema-instance" xsi:schemaLocation="http://www.topografix.com/GPX/1/1 http://www.topografix.com/GPX/1/1/gpx.xsd" version="1.1" creator="VisuGPX - https://www.visugpx.com">
  <metadata>
    <name>Grande Lauzière 28 mars 2021 08:44:45</name>
  </metadata>
  <trk>
    <name><![CDATA[Grande Lauzière 28 mars 2021 08:44:45]]></name>
    <trkseg>
      <trkpt lat="45.18126" lon="5.90958">
        <ele>1330.7250483707</ele>
        <time>2021-03-28T06:44:45Z</time>
      </trkpt>
      <trkpt lat="45.18126" lon="5.90958">
        <ele>1339.7250378095</ele>
        <time>2021-03-28T06:46:36Z</time>
      </trkpt>
      <trkpt lat="45.18128" lon="5.9097">
        <ele>1344.7251368836</ele>
        <time>2021-03-28T06:48:53Z</time>
      </trkpt>
      <trkpt lat="45.18136" lon="5.90969">
        <ele>1341.7254478522</ele>
        <time>2021-03-28T06:49:00Z</time>
      </trkpt>
      <trkpt lat="45.18145" lon="5.90972">
        <ele>1341.7257851399</ele>
        <time>2021-03-28T06:49:12Z</time>
      </trkpt>
      <trkpt lat="45.18152" lon="5.90976">
        <ele>1342.7260899059</ele>
        <time>2021-03-28T06:49:21Z</time>
      </trkpt>
      <trkpt lat="45.1816" lon="5.90978">
        <ele>1343.7264092565</ele>
        <time>2021-03-28T06:49:28Z</time>
      </trkpt>
      <trkpt lat="45.18168" lon="5.90978">
        <ele>1345.726706814</ele>
        <time>2021-03-28T06:49:35Z</time>
      </trkpt>
      <trkpt lat="45.18176" lon="5.90983">
        <ele>1346.727027338</ele>
        <time>2021-03-28T06:49:43Z</time>
      </trkpt>
      <trkpt lat="45.18182" lon="5.90986">
        <ele>1346.7272888534</ele>
        <time>2021-03-28T06:49:52Z</time>
      </trkpt>
      <trkpt lat="45.18191" lon="5.90987">
        <ele>1348.7276311703</ele>
        <time>2021-03-28T06:50:00Z</time>
      </trkpt>
      <trkpt lat="45.18198" lon="5.90995">
        <ele>1350.7279015705</ele>
        <time>2021-03-28T06:50:09Z</time>
      </trkpt>
      <trkpt lat="45.18206" lon="5.90998">
        <ele>1351.7282453962</ele>
        <time>2021-03-28T06:50:18Z</time>
      </trkpt>
      <trkpt lat="45.18212" lon="5.91003">
        <ele>1351.7284955122</ele>
        <time>2021-03-28T06:50:24Z</time>
      </trkpt>
      <trkpt lat="45.1822" lon="5.9101">
        <ele>1349.7287796587</ele>
        <time>2021-03-28T06:50:31Z</time>
      </trkpt>
      <trkpt lat="45.18227" lon="5.91014">
        <ele>1351.7290854305</ele>
        <time>2021-03-28T06:50:41Z</time>
      </trkpt>
      <trkpt lat="45.18235" lon="5.91018">
        <ele>1352.7293927111</ele>
        <time>2021-03-28T06:50:48Z</time>
      </trkpt>
      <trkpt lat="45.18241" lon="5.91025">
        <ele>1355.7296465151</ele>
        <time>2021-03-28T06:50:56Z</time>
      </trkpt>
      <trkpt lat="45.18246" lon="5.91032">
        <ele>1356.7298488542</ele>
        <time>2021-03-28T06:51:04Z</time>
      </trkpt>
      <trkpt lat="45.1825" lon="5.91043">
        <ele>1356.7299938612</ele>
        <time>2021-03-28T06:51:12Z</time>
      </trkpt>
      <trkpt lat="45.18253" lon="5.91054">
        <ele>1357.7301246189</ele>
        <time>2021-03-28T06:51:18Z</time>
      </trkpt>
      <trkpt lat="45.18261" lon="5.91059">
        <ele>1358.7304300554</ele>
        <time>2021-03-28T06:51:28Z</time>
      </trkpt>
      <trkpt lat="45.18269" lon="5.91062">
        <ele>1361.7307544351</ele>
        <time>2021-03-28T06:51:36Z</time>
      </trkpt>
      <trkpt lat="45.18276" lon="5.91067">
        <ele>1361.7310503162</ele>
        <time>2021-03-28T06:51:45Z</time>
      </trkpt>
      <trkpt lat="45.18284" lon="5.91073">
        <ele>1362.7313394919</ele>
        <time>2021-03-28T06:51:55Z</time>
      </trkpt>
      <trkpt lat="45.18288" lon="5.91083">
        <ele>1362.7315123267</ele>
        <time>2021-03-28T06:52:02Z</time>
      </trkpt>
      <trkpt lat="45.18295" lon="5.9109">
        <ele>1364.7317879237</ele>
        <time>2021-03-28T06:52:10Z</time>
      </trkpt>
      <trkpt lat="45.18301" lon="5.91096">
        <ele>1364.7320576534</ele>
        <time>2021-03-28T06:52:17Z</time>
      </trkpt>
      <trkpt lat="45.18309" lon="5.911">
        <ele>1364.7323622517</ele>
        <time>2021-03-28T06:52:25Z</time>
      </trkpt>
      <trkpt lat="45.18317" lon="5.91105">
        <ele>1365.7326720469</ele>
        <time>2021-03-28T06:52:34Z</time>
      </trkpt>
      <trkpt lat="45.18325" lon="5.91109">
        <ele>1368.7329865359</ele>
        <time>2021-03-28T06:52:43Z</time>
      </trkpt>
      <trkpt lat="45.18332" lon="5.91113">
        <ele>1369.7332706824</ele>
        <time>2021-03-28T06:52:49Z</time>
      </trkpt>
      <trkpt lat="45.18341" lon="5.91114">
        <ele>1371.7336217165</ele>
        <time>2021-03-28T06:52:57Z</time>
      </trkpt>
      <trkpt lat="45.18349" lon="5.91115">
        <ele>1372.7339714095</ele>
        <time>2021-03-28T06:53:05Z</time>
      </trkpt>
      <trkpt lat="45.18357" lon="5.91121">
        <ele>1371.7342582382</ele>
        <time>2021-03-28T06:53:13Z</time>
      </trkpt>
      <trkpt lat="45.18365" lon="5.91121">
        <ele>1371.7346092723</ele>
        <time>2021-03-28T06:53:22Z</time>
      </trkpt>
      <trkpt lat="45.18372" lon="5.91129">
        <ele>1372.7348662615</ele>
        <time>2021-03-28T06:53:28Z</time>
      </trkpt>
      <trkpt lat="45.1838" lon="5.91127">
        <ele>1373.7351849414</ele>
        <time>2021-03-28T06:53:36Z</time>
      </trkpt>
      <trkpt lat="45.18386" lon="5.91132">
        <ele>1373.7354545034</ele>
        <time>2021-03-28T06:53:41Z</time>
      </trkpt>
      <trkpt lat="45.18392" lon="5.91134">
        <ele>1373.7356794737</ele>
        <time>2021-03-28T06:53:46Z</time>
      </trkpt>
      <trkpt lat="45.18399" lon="5.91142">
        <ele>1372.7359481975</ele>
        <time>2021-03-28T06:53:53Z</time>
      </trkpt>
      <trkpt lat="45.18407" lon="5.91148">
        <ele>1372.7362616807</ele>
        <time>2021-03-28T06:54:01Z</time>
      </trkpt>
      <trkpt lat="45.18415" lon="5.91149">
        <ele>1372.7365939394</ele>
        <time>2021-03-28T06:54:10Z</time>
      </trkpt>
      <trkpt lat="45.18423" lon="5.91153">
        <ele>1374.7369347475</ele>
        <time>2021-03-28T06:54:18Z</time>
      </trkpt>
      <trkpt lat="45.1843" lon="5.91153">
        <ele>1377.737199951</ele>
        <time>2021-03-28T06:54:27Z</time>
      </trkpt>
      <trkpt lat="45.18438" lon="5.91156">
        <ele>1378.7375340536</ele>
        <time>2021-03-28T06:54:31Z</time>
      </trkpt>
      <trkpt lat="45.18447" lon="5.91158">
        <ele>1379.7378653064</ele>
        <time>2021-03-28T06:54:39Z</time>
      </trkpt>
      <trkpt lat="45.18455" lon="5.9116">
        <ele>1382.7381967269</ele>
        <time>2021-03-28T06:54:49Z</time>
      </trkpt>
      <trkpt lat="45.18463" lon="5.91158">
        <ele>1383.7385373674</ele>
        <time>2021-03-28T06:55:01Z</time>
      </trkpt>
      <trkpt lat="45.18477" lon="5.91158">
        <ele>1381.7390592247</ele>
        <time>2021-03-28T06:55:09Z</time>
      </trkpt>
      <trkpt lat="45.18485" lon="5.91158">
        <ele>1382.7394144498</ele>
        <time>2021-03-28T06:55:18Z</time>
      </trkpt>
      <trkpt lat="45.18493" lon="5.9116">
        <ele>1384.7397029549</ele>
        <time>2021-03-28T06:55:26Z</time>
      </trkpt>
      <trkpt lat="45.18501" lon="5.91158">
        <ele>1384.7400291786</ele>
        <time>2021-03-28T06:55:33Z</time>
      </trkpt>
      <trkpt lat="45.18509" lon="5.91162">
        <ele>1385.7403758541</ele>
        <time>2021-03-28T06:55:41Z</time>
      </trkpt>
      <trkpt lat="45.18516" lon="5.91167">
        <ele>1382.7406566478</ele>
        <time>2021-03-28T06:55:47Z</time>
      </trkpt>
      <trkpt lat="45.18525" lon="5.91166">
        <ele>1383.7409894094</ele>
        <time>2021-03-28T06:55:54Z</time>
      </trkpt>
      <trkpt lat="45.18532" lon="5.91167">
        <ele>1384.7412935048</ele>
        <time>2021-03-28T06:56:01Z</time>
      </trkpt>
      <trkpt lat="45.18541" lon="5.91169">
        <ele>1384.7416344807</ele>
        <time>2021-03-28T06:56:10Z</time>
      </trkpt>
      <trkpt lat="45.18548" lon="5.91171">
        <ele>1384.7419347204</ele>
        <time>2021-03-28T06:56:16Z</time>
      </trkpt>
      <trkpt lat="45.18555" lon="5.91176">
        <ele>1385.7421896979</ele>
        <time>2021-03-28T06:56:23Z</time>
      </trkpt>
      <trkpt lat="45.18562" lon="5.91176">
        <ele>1384.7424922846</ele>
        <time>2021-03-28T06:56:30Z</time>
      </trkpt>
      <trkpt lat="45.1857" lon="5.9118">
        <ele>1387.7427856512</ele>
        <time>2021-03-28T06:56:38Z</time>
      </trkpt>
      <trkpt lat="45.18578" lon="5.9118">
        <ele>1389.7431365177</ele>
        <time>2021-03-28T06:56:48Z</time>
      </trkpt>
      <trkpt lat="45.18585" lon="5.91186">
        <ele>1387.7434044033</ele>
        <time>2021-03-28T06:56:54Z</time>
      </trkpt>
      <trkpt lat="45.18593" lon="5.91191">
        <ele>1387.7437281124</ele>
        <time>2021-03-28T06:57:02Z</time>
      </trkpt>
      <trkpt lat="45.18601" lon="5.91198">
        <ele>1388.7440337166</ele>
        <time>2021-03-28T06:57:14Z</time>
      </trkpt>
      <trkpt lat="45.18606" lon="5.91205">
        <ele>1390.7442482933</ele>
        <time>2021-03-28T06:57:25Z</time>
      </trkpt>
      <trkpt lat="45.18609" lon="5.91217">
        <ele>1391.7443466969</ele>
        <time>2021-03-28T06:57:35Z</time>
      </trkpt>
      <trkpt lat="45.18616" lon="5.9122">
        <ele>1392.7446427457</ele>
        <time>2021-03-28T06:57:45Z</time>
      </trkpt>
      <trkpt lat="45.18622" lon="5.91227">
        <ele>1392.744865872</ele>
        <time>2021-03-28T06:57:52Z</time>
      </trkpt>
      <trkpt lat="45.18625" lon="5.91238">
        <ele>1389.7450160757</ele>
        <time>2021-03-28T06:57:58Z</time>
      </trkpt>
      <trkpt lat="45.1863" lon="5.91249">
        <ele>1385.7452060096</ele>
        <time>2021-03-28T06:58:05Z</time>
      </trkpt>
      <trkpt lat="45.18637" lon="5.91256">
        <ele>1380.745477248</ele>
        <time>2021-03-28T06:58:15Z</time>
      </trkpt>
      <trkpt lat="45.18645" lon="5.91262">
        <ele>1378.7458011247</ele>
        <time>2021-03-28T06:58:25Z</time>
      </trkpt>
      <trkpt lat="45.18651" lon="5.91271">
        <ele>1377.7460262626</ele>
        <time>2021-03-28T06:58:34Z</time>
      </trkpt>
      <trkpt lat="45.18657" lon="5.91279">
        <ele>1378.7462624647</ele>
        <time>2021-03-28T06:58:40Z</time>
      </trkpt>
      <trkpt lat="45.18662" lon="5.91288">
        <ele>1380.746471677</ele>
        <time>2021-03-28T06:58:48Z</time>
      </trkpt>
      <trkpt lat="45.18669" lon="5.91294">
        <ele>1380.7467712462</ele>
        <time>2021-03-28T06:58:56Z</time>
      </trkpt>
      <trkpt lat="45.18662" lon="5.91301">
        <ele>1385.7464912906</ele>
        <time>2021-03-28T06:59:16Z</time>
      </trkpt>
      <trkpt lat="45.18654" lon="5.91298">
        <ele>1387.7461524941</ele>
        <time>2021-03-28T06:59:29Z</time>
      </trkpt>
      <trkpt lat="45.18646" lon="5.91298">
        <ele>1390.745832473</ele>
        <time>2021-03-28T06:59:44Z</time>
      </trkpt>
      <trkpt lat="45.18637" lon="5.91298">
        <ele>1391.74548278</ele>
        <time>2021-03-28T06:59:50Z</time>
      </trkpt>
      <trkpt lat="45.18629" lon="5.91297">
        <ele>1392.7451525331</ele>
        <time>2021-03-28T07:00:00Z</time>
      </trkpt>
      <trkpt lat="45.18621" lon="5.91294">
        <ele>1394.7448479347</ele>
        <time>2021-03-28T07:00:08Z</time>
      </trkpt>
      <trkpt lat="45.18613" lon="5.91292">
        <ele>1397.7445123233</ele>
        <time>2021-03-28T07:00:16Z</time>
      </trkpt>
      <trkpt lat="45.18605" lon="5.91294">
        <ele>1401.7442082278</ele>
        <time>2021-03-28T07:00:25Z</time>
      </trkpt>
      <trkpt lat="45.18597" lon="5.91296">
        <ele>1402.7438761368</ele>
        <time>2021-03-28T07:00:31Z</time>
      </trkpt>
      <trkpt lat="45.18589" lon="5.91297">
        <ele>1405.7435480691</ele>
        <time>2021-03-28T07:00:42Z</time>
      </trkpt>
      <trkpt lat="45.18583" lon="5.91305">
        <ele>1406.7433023117</ele>
        <time>2021-03-28T07:00:53Z</time>
      </trkpt>
      <trkpt lat="45.18576" lon="5.91312">
        <ele>1407.743033085</ele>
        <time>2021-03-28T07:01:00Z</time>
      </trkpt>
      <trkpt lat="45.18569" lon="5.91319">
        <ele>1406.7427712344</ele>
        <time>2021-03-28T07:01:13Z</time>
      </trkpt>
      <trkpt lat="45.18567" lon="5.9133">
        <ele>1408.7426582463</ele>
        <time>2021-03-28T07:01:26Z</time>
      </trkpt>
      <trkpt lat="45.1856" lon="5.91338">
        <ele>1409.7423960604</ele>
        <time>2021-03-28T07:01:37Z</time>
      </trkpt>
      <trkpt lat="45.18551" lon="5.91339">
        <ele>1409.7420529053</ele>
        <time>2021-03-28T07:01:45Z</time>
      </trkpt>
      <trkpt lat="45.18544" lon="5.91345">
        <ele>1411.7417454571</ele>
        <time>2021-03-28T07:01:55Z</time>
      </trkpt>
      <trkpt lat="45.18536" lon="5.91349">
        <ele>1414.7414311357</ele>
        <time>2021-03-28T07:02:08Z</time>
      </trkpt>
      <trkpt lat="45.18528" lon="5.91354">
        <ele>1418.7411023974</ele>
        <time>2021-03-28T07:02:22Z</time>
      </trkpt>
      <trkpt lat="45.1852" lon="5.91359">
        <ele>1421.7407959551</ele>
        <time>2021-03-28T07:02:34Z</time>
      </trkpt>
      <trkpt lat="45.18513" lon="5.91367">
        <ele>1423.7405371219</ele>
        <time>2021-03-28T07:02:48Z</time>
      </trkpt>
      <trkpt lat="45.18507" lon="5.91374">
        <ele>1425.7402831502</ele>
        <time>2021-03-28T07:03:04Z</time>
      </trkpt>
      <trkpt lat="45.18499" lon="5.91376">
        <ele>1427.7399453595</ele>
        <time>2021-03-28T07:03:14Z</time>
      </trkpt>
      <trkpt lat="45.1849" lon="5.91379">
        <ele>1431.7396097481</ele>
        <time>2021-03-28T07:03:26Z</time>
      </trkpt>
      <trkpt lat="45.18482" lon="5.91375">
        <ele>1433.7392875478</ele>
        <time>2021-03-28T07:03:41Z</time>
      </trkpt>
      <trkpt lat="45.18468" lon="5.91363">
        <ele>1438.7387194224</ele>
        <time>2021-03-28T07:03:55Z</time>
      </trkpt>
      <trkpt lat="45.1846" lon="5.91363">
        <ele>1441.7383928634</ele>
        <time>2021-03-28T07:04:10Z</time>
      </trkpt>
      <trkpt lat="45.18452" lon="5.91362">
        <ele>1441.738066975</ele>
        <time>2021-03-28T07:04:21Z</time>
      </trkpt>
      <trkpt lat="45.18443" lon="5.91362">
        <ele>1444.737725161</ele>
        <time>2021-03-28T07:04:32Z</time>
      </trkpt>
      <trkpt lat="45.18436" lon="5.9136">
        <ele>1446.7374351472</ele>
        <time>2021-03-28T07:04:48Z</time>
      </trkpt>
      <trkpt lat="45.18428" lon="5.91362">
        <ele>1449.7371127792</ele>
        <time>2021-03-28T07:05:01Z</time>
      </trkpt>
      <trkpt lat="45.1842" lon="5.91364">
        <ele>1450.7367806882</ele>
        <time>2021-03-28T07:05:09Z</time>
      </trkpt>
      <trkpt lat="45.18412" lon="5.91365">
        <ele>1451.7364770956</ele>
        <time>2021-03-28T07:05:21Z</time>
      </trkpt>
      <trkpt lat="45.18404" lon="5.91367">
        <ele>1453.7361669652</ele>
        <time>2021-03-28T07:05:32Z</time>
      </trkpt>
      <trkpt lat="45.18396" lon="5.91365">
        <ele>1454.7358231395</ele>
        <time>2021-03-28T07:05:44Z</time>
      </trkpt>
      <trkpt lat="45.18388" lon="5.91369">
        <ele>1458.7355185412</ele>
        <time>2021-03-28T07:05:56Z</time>
      </trkpt>
      <trkpt lat="45.18382" lon="5.91376">
        <ele>1461.7352677546</ele>
        <time>2021-03-28T07:06:08Z</time>
      </trkpt>
      <trkpt lat="45.18373" lon="5.91378">
        <ele>1464.7349334843</ele>
        <time>2021-03-28T07:06:20Z</time>
      </trkpt>
      <trkpt lat="45.18365" lon="5.9138">
        <ele>1469.7345831208</ele>
        <time>2021-03-28T07:06:38Z</time>
      </trkpt>
      <trkpt lat="45.18356" lon="5.91379">
        <ele>1471.7342418097</ele>
        <time>2021-03-28T07:06:52Z</time>
      </trkpt>
      <trkpt lat="45.18347" lon="5.91379">
        <ele>1471.7338912785</ele>
        <time>2021-03-28T07:07:00Z</time>
      </trkpt>
      <trkpt lat="45.18339" lon="5.91384">
        <ele>1473.7335762866</ele>
        <time>2021-03-28T07:07:13Z</time>
      </trkpt>
      <trkpt lat="45.18332" lon="5.91387">
        <ele>1476.7332589477</ele>
        <time>2021-03-28T07:07:29Z</time>
      </trkpt>
      <trkpt lat="45.18324" lon="5.91392">
        <ele>1479.7329565287</ele>
        <time>2021-03-28T07:07:41Z</time>
      </trkpt>
      <trkpt lat="45.18316" lon="5.91394">
        <ele>1479.7326291315</ele>
        <time>2021-03-28T07:07:53Z</time>
      </trkpt>
      <trkpt lat="45.18307" lon="5.91395">
        <ele>1482.7322843</ele>
        <time>2021-03-28T07:08:08Z</time>
      </trkpt>
      <trkpt lat="45.18299" lon="5.91398">
        <ele>1484.7319423184</ele>
        <time>2021-03-28T07:08:21Z</time>
      </trkpt>
      <trkpt lat="45.1829" lon="5.914">
        <ele>1486.7316137478</ele>
        <time>2021-03-28T07:08:37Z</time>
      </trkpt>
      <trkpt lat="45.18282" lon="5.91401">
        <ele>1488.7312652282</ele>
        <time>2021-03-28T07:08:48Z</time>
      </trkpt>
      <trkpt lat="45.18274" lon="5.91396">
        <ele>1489.7309391722</ele>
        <time>2021-03-28T07:09:00Z</time>
      </trkpt>
      <trkpt lat="45.18266" lon="5.91402">
        <ele>1491.7306268625</ele>
        <time>2021-03-28T07:09:13Z</time>
      </trkpt>
      <trkpt lat="45.18258" lon="5.91405">
        <ele>1490.7303205878</ele>
        <time>2021-03-28T07:09:24Z</time>
      </trkpt>
      <trkpt lat="45.1825" lon="5.91409">
        <ele>1492.7299953699</ele>
        <time>2021-03-28T07:09:45Z</time>
      </trkpt>
      <trkpt lat="45.18242" lon="5.91413">
        <ele>1494.7296770252</ele>
        <time>2021-03-28T07:09:57Z</time>
      </trkpt>
      <trkpt lat="45.18234" lon="5.91416">
        <ele>1495.7293573394</ele>
        <time>2021-03-28T07:10:08Z</time>
      </trkpt>
      <trkpt lat="45.18225" lon="5.91414">
        <ele>1497.7290155254</ele>
        <time>2021-03-28T07:10:19Z</time>
      </trkpt>
      <trkpt lat="45.18218" lon="5.91419">
        <ele>1501.7287060656</ele>
        <time>2021-03-28T07:10:34Z</time>
      </trkpt>
      <trkpt lat="45.18209" lon="5.91421">
        <ele>1503.7283625752</ele>
        <time>2021-03-28T07:10:43Z</time>
      </trkpt>
      <trkpt lat="45.182" lon="5.91422">
        <ele>1506.7280170731</ele>
        <time>2021-03-28T07:10:55Z</time>
      </trkpt>
      <trkpt lat="45.18194" lon="5.91428">
        <ele>1506.7277394645</ele>
        <time>2021-03-28T07:11:06Z</time>
      </trkpt>
      <trkpt lat="45.18187" lon="5.91435">
        <ele>1508.727492366</ele>
        <time>2021-03-28T07:11:16Z</time>
      </trkpt>
      <trkpt lat="45.18179" lon="5.91441">
        <ele>1510.7271762006</ele>
        <time>2021-03-28T07:11:32Z</time>
      </trkpt>
      <trkpt lat="45.18172" lon="5.91446">
        <ele>1511.7268739492</ele>
        <time>2021-03-28T07:11:41Z</time>
      </trkpt>
      <trkpt lat="45.18164" lon="5.91449">
        <ele>1511.7265716977</ele>
        <time>2021-03-28T07:11:51Z</time>
      </trkpt>
      <trkpt lat="45.18158" lon="5.91448">
        <ele>1513.7262991183</ele>
        <time>2021-03-28T07:12:02Z</time>
      </trkpt>
      <trkpt lat="45.18149" lon="5.91447">
        <ele>1515.7259504311</ele>
        <time>2021-03-28T07:12:12Z</time>
      </trkpt>
      <trkpt lat="45.18141" lon="5.91449">
        <ele>1518.7256237045</ele>
        <time>2021-03-28T07:12:30Z</time>
      </trkpt>
      <trkpt lat="45.18133" lon="5.91454">
        <ele>1523.7253035158</ele>
        <time>2021-03-28T07:12:43Z</time>
      </trkpt>
      <trkpt lat="45.18124" lon="5.91459">
        <ele>1524.7249751128</ele>
        <time>2021-03-28T07:12:56Z</time>
      </trkpt>
      <trkpt lat="45.18117" lon="5.91467">
        <ele>1525.7246958278</ele>
        <time>2021-03-28T07:13:09Z</time>
      </trkpt>
      <trkpt lat="45.18118" lon="5.91489">
        <ele>1515.7247347198</ele>
        <time>2021-03-28T07:13:21Z</time>
      </trkpt>
      <trkpt lat="45.18121" lon="5.91501">
        <ele>1514.7248410024</ele>
        <time>2021-03-28T07:13:32Z</time>
      </trkpt>
      <trkpt lat="45.18123" lon="5.91513">
        <ele>1509.7249296829</ele>
        <time>2021-03-28T07:13:41Z</time>
      </trkpt>
      <trkpt lat="45.18128" lon="5.91524">
        <ele>1511.7251065411</ele>
        <time>2021-03-28T07:13:56Z</time>
      </trkpt>
      <trkpt lat="45.18123" lon="5.91514">
        <ele>1510.7249156013</ele>
        <time>2021-03-28T07:14:37Z</time>
      </trkpt>
      <trkpt lat="45.18127" lon="5.91535">
        <ele>1512.7250678167</ele>
        <time>2021-03-28T07:14:43Z</time>
      </trkpt>
      <trkpt lat="45.18126" lon="5.91546">
        <ele>1513.7250198722</ele>
        <time>2021-03-28T07:15:31Z</time>
      </trkpt>
      <trkpt lat="45.18134" lon="5.91547">
        <ele>1517.7253601775</ele>
        <time>2021-03-28T07:17:53Z</time>
      </trkpt>
      <trkpt lat="45.18127" lon="5.91553">
        <ele>1514.7250686549</ele>
        <time>2021-03-28T07:20:03Z</time>
      </trkpt>
      <trkpt lat="45.1812" lon="5.91561">
        <ele>1515.7248165272</ele>
        <time>2021-03-28T07:20:15Z</time>
      </trkpt>
      <trkpt lat="45.18114" lon="5.91564">
        <ele>1516.7245677523</ele>
        <time>2021-03-28T07:20:25Z</time>
      </trkpt>
      <trkpt lat="45.18106" lon="5.91568">
        <ele>1516.7242289558</ele>
        <time>2021-03-28T07:20:34Z</time>
      </trkpt>
      <trkpt lat="45.18098" lon="5.91566">
        <ele>1517.723915305</ele>
        <time>2021-03-28T07:20:45Z</time>
      </trkpt>
      <trkpt lat="45.1809" lon="5.9157">
        <ele>1517.7235835493</ele>
        <time>2021-03-28T07:20:54Z</time>
      </trkpt>
      <trkpt lat="45.18081" lon="5.91569">
        <ele>1515.7232328504</ele>
        <time>2021-03-28T07:20:58Z</time>
      </trkpt>
      <trkpt lat="45.18073" lon="5.91573">
        <ele>1516.7229180261</ele>
        <time>2021-03-28T07:21:06Z</time>
      </trkpt>
      <trkpt lat="45.18065" lon="5.91575">
        <ele>1517.7225897908</ele>
        <time>2021-03-28T07:21:16Z</time>
      </trkpt>
      <trkpt lat="45.18057" lon="5.91578">
        <ele>1519.7222922333</ele>
        <time>2021-03-28T07:21:26Z</time>
      </trkpt>
      <trkpt lat="45.1805" lon="5.91584">
        <ele>1517.7219851203</ele>
        <time>2021-03-28T07:21:38Z</time>
      </trkpt>
      <trkpt lat="45.18042" lon="5.9158">
        <ele>1518.7216964476</ele>
        <time>2021-03-28T07:21:48Z</time>
      </trkpt>
      <trkpt lat="45.18035" lon="5.9158">
        <ele>1517.7213811204</ele>
        <time>2021-03-28T07:21:55Z</time>
      </trkpt>
      <trkpt lat="45.18026" lon="5.91578">
        <ele>1517.7210557349</ele>
        <time>2021-03-28T07:22:04Z</time>
      </trkpt>
      <trkpt lat="45.18018" lon="5.91577">
        <ele>1519.7207100652</ele>
        <time>2021-03-28T07:22:14Z</time>
      </trkpt>
      <trkpt lat="45.18009" lon="5.9158">
        <ele>1521.7203675807</ele>
        <time>2021-03-28T07:22:24Z</time>
      </trkpt>
      <trkpt lat="45.18" lon="5.9158">
        <ele>1524.7200103439</ele>
        <time>2021-03-28T07:22:39Z</time>
      </trkpt>
      <trkpt lat="45.17992" lon="5.91578">
        <ele>1525.7196609862</ele>
        <time>2021-03-28T07:22:56Z</time>
      </trkpt>
      <trkpt lat="45.17983" lon="5.9158">
        <ele>1528.7193315774</ele>
        <time>2021-03-28T07:23:11Z</time>
      </trkpt>
      <trkpt lat="45.17975" lon="5.91582">
        <ele>1527.7189815491</ele>
        <time>2021-03-28T07:23:22Z</time>
      </trkpt>
      <trkpt lat="45.17966" lon="5.91586">
        <ele>1528.7186352089</ele>
        <time>2021-03-28T07:23:36Z</time>
      </trkpt>
      <trkpt lat="45.17957" lon="5.91585">
        <ele>1528.7182833366</ele>
        <time>2021-03-28T07:23:49Z</time>
      </trkpt>
      <trkpt lat="45.17949" lon="5.91587">
        <ele>1532.7179470547</ele>
        <time>2021-03-28T07:24:02Z</time>
      </trkpt>
      <trkpt lat="45.17941" lon="5.91592">
        <ele>1534.7176307216</ele>
        <time>2021-03-28T07:24:14Z</time>
      </trkpt>
      <trkpt lat="45.17932" lon="5.91594">
        <ele>1535.7172974572</ele>
        <time>2021-03-28T07:24:28Z</time>
      </trkpt>
      <trkpt lat="45.17925" lon="5.91598">
        <ele>1538.7169796154</ele>
        <time>2021-03-28T07:24:39Z</time>
      </trkpt>
      <trkpt lat="45.17917" lon="5.91603">
        <ele>1538.7166862488</ele>
        <time>2021-03-28T07:24:50Z</time>
      </trkpt>
      <trkpt lat="45.1791" lon="5.91602">
        <ele>1538.7163866796</ele>
        <time>2021-03-28T07:25:03Z</time>
      </trkpt>
      <trkpt lat="45.17901" lon="5.91603">
        <ele>1541.7160452008</ele>
        <time>2021-03-28T07:25:13Z</time>
      </trkpt>
      <trkpt lat="45.17893" lon="5.91602">
        <ele>1542.7157043926</ele>
        <time>2021-03-28T07:25:23Z</time>
      </trkpt>
      <trkpt lat="45.17885" lon="5.91607">
        <ele>1546.7153939269</ele>
        <time>2021-03-28T07:25:37Z</time>
      </trkpt>
      <trkpt lat="45.17877" lon="5.91609">
        <ele>1550.7150747441</ele>
        <time>2021-03-28T07:25:51Z</time>
      </trkpt>
      <trkpt lat="45.17871" lon="5.91616">
        <ele>1552.7148264721</ele>
        <time>2021-03-28T07:26:01Z</time>
      </trkpt>
      <trkpt lat="45.17865" lon="5.91625">
        <ele>1555.7146174274</ele>
        <time>2021-03-28T07:26:10Z</time>
      </trkpt>
      <trkpt lat="45.17859" lon="5.91628">
        <ele>1557.7143669762</ele>
        <time>2021-03-28T07:26:22Z</time>
      </trkpt>
      <trkpt lat="45.17851" lon="5.91632">
        <ele>1557.7140424289</ele>
        <time>2021-03-28T07:26:29Z</time>
      </trkpt>
      <trkpt lat="45.17845" lon="5.91639">
        <ele>1561.7137862779</ele>
        <time>2021-03-28T07:26:43Z</time>
      </trkpt>
      <trkpt lat="45.17836" lon="5.9164">
        <ele>1563.7134436257</ele>
        <time>2021-03-28T07:26:55Z</time>
      </trkpt>
      <trkpt lat="45.17828" lon="5.91646">
        <ele>1563.7131343335</ele>
        <time>2021-03-28T07:27:07Z</time>
      </trkpt>
      <trkpt lat="45.17821" lon="5.9165">
        <ele>1566.7128319144</ele>
        <time>2021-03-28T07:27:22Z</time>
      </trkpt>
      <trkpt lat="45.17813" lon="5.91655">
        <ele>1569.712500494</ele>
        <time>2021-03-28T07:27:33Z</time>
      </trkpt>
      <trkpt lat="45.17805" lon="5.91658">
        <ele>1568.7121943869</ele>
        <time>2021-03-28T07:27:46Z</time>
      </trkpt>
      <trkpt lat="45.17796" lon="5.91661">
        <ele>1572.7118574344</ele>
        <time>2021-03-28T07:27:58Z</time>
      </trkpt>
      <trkpt lat="45.17801" lon="5.91671">
        <ele>1571.712023899</ele>
        <time>2021-03-28T07:28:10Z</time>
      </trkpt>
      <trkpt lat="45.17807" lon="5.91676">
        <ele>1574.7122850791</ele>
        <time>2021-03-28T07:28:24Z</time>
      </trkpt>
      <trkpt lat="45.17814" lon="5.91678">
        <ele>1575.7125759311</ele>
        <time>2021-03-28T07:28:36Z</time>
      </trkpt>
      <trkpt lat="45.17821" lon="5.91685">
        <ele>1576.7128480077</ele>
        <time>2021-03-28T07:28:47Z</time>
      </trkpt>
      <trkpt lat="45.17828" lon="5.91692">
        <ele>1575.7131111994</ele>
        <time>2021-03-28T07:29:13Z</time>
      </trkpt>
      <trkpt lat="45.17833" lon="5.91698">
        <ele>1581.7133153826</ele>
        <time>2021-03-28T07:29:31Z</time>
      </trkpt>
      <trkpt lat="45.17841" lon="5.91697">
        <ele>1580.7136206515</ele>
        <time>2021-03-28T07:29:38Z</time>
      </trkpt>
      <trkpt lat="45.17835" lon="5.91705">
        <ele>1584.7133784145</ele>
        <time>2021-03-28T07:30:12Z</time>
      </trkpt>
      <trkpt lat="45.17828" lon="5.91705">
        <ele>1584.7131153904</ele>
        <time>2021-03-28T07:30:18Z</time>
      </trkpt>
      <trkpt lat="45.1782" lon="5.91704">
        <ele>1587.7127806172</ele>
        <time>2021-03-28T07:30:28Z</time>
      </trkpt>
      <trkpt lat="45.17812" lon="5.91704">
        <ele>1587.7124627754</ele>
        <time>2021-03-28T07:30:41Z</time>
      </trkpt>
      <trkpt lat="45.17803" lon="5.91706">
        <ele>1589.712121129</ele>
        <time>2021-03-28T07:30:50Z</time>
      </trkpt>
      <trkpt lat="45.17796" lon="5.91713">
        <ele>1595.7118354738</ele>
        <time>2021-03-28T07:31:05Z</time>
      </trkpt>
      <trkpt lat="45.17789" lon="5.91716">
        <ele>1597.7115548477</ele>
        <time>2021-03-28T07:31:26Z</time>
      </trkpt>
      <trkpt lat="45.17783" lon="5.91725">
        <ele>1597.7112998702</ele>
        <time>2021-03-28T07:31:35Z</time>
      </trkpt>
      <trkpt lat="45.17774" lon="5.91727">
        <ele>1600.710974317</ele>
        <time>2021-03-28T07:31:42Z</time>
      </trkpt>
      <trkpt lat="45.17767" lon="5.91732">
        <ele>1600.7106729038</ele>
        <time>2021-03-28T07:31:49Z</time>
      </trkpt>
      <trkpt lat="45.17759" lon="5.91733">
        <ele>1603.7103428245</ele>
        <time>2021-03-28T07:32:01Z</time>
      </trkpt>
      <trkpt lat="45.17754" lon="5.91738">
        <ele>1608.7101398148</ele>
        <time>2021-03-28T07:32:17Z</time>
      </trkpt>
      <trkpt lat="45.17745" lon="5.91737">
        <ele>1608.7098167762</ele>
        <time>2021-03-28T07:32:29Z</time>
      </trkpt>
      <trkpt lat="45.17749" lon="5.91747">
        <ele>1607.7099508867</ele>
        <time>2021-03-28T07:32:41Z</time>
      </trkpt>
      <trkpt lat="45.17757" lon="5.91752">
        <ele>1608.710274931</ele>
        <time>2021-03-28T07:32:52Z</time>
      </trkpt>
      <trkpt lat="45.17765" lon="5.91756">
        <ele>1609.7106058486</ele>
        <time>2021-03-28T07:33:01Z</time>
      </trkpt>
      <trkpt lat="45.17773" lon="5.91761">
        <ele>1611.7109139673</ele>
        <time>2021-03-28T07:33:10Z</time>
      </trkpt>
      <trkpt lat="45.17778" lon="5.9177">
        <ele>1614.7111241855</ele>
        <time>2021-03-28T07:33:31Z</time>
      </trkpt>
      <trkpt lat="45.17787" lon="5.91773">
        <ele>1615.711458791</ele>
        <time>2021-03-28T07:33:41Z</time>
      </trkpt>
      <trkpt lat="45.17794" lon="5.91776">
        <ele>1616.7117555104</ele>
        <time>2021-03-28T07:33:53Z</time>
      </trkpt>
      <trkpt lat="45.17807" lon="5.91788">
        <ele>1618.7122973166</ele>
        <time>2021-03-28T07:34:07Z</time>
      </trkpt>
      <trkpt lat="45.17801" lon="5.91794">
        <ele>1620.7120384835</ele>
        <time>2021-03-28T07:34:31Z</time>
      </trkpt>
      <trkpt lat="45.17785" lon="5.91793">
        <ele>1623.7113897242</ele>
        <time>2021-03-28T07:34:49Z</time>
      </trkpt>
      <trkpt lat="45.17777" lon="5.91796">
        <ele>1626.7110599801</ele>
        <time>2021-03-28T07:35:06Z</time>
      </trkpt>
      <trkpt lat="45.17768" lon="5.91792">
        <ele>1626.710722357</ele>
        <time>2021-03-28T07:35:13Z</time>
      </trkpt>
      <trkpt lat="45.17771" lon="5.91803">
        <ele>1632.7108378597</ele>
        <time>2021-03-28T07:35:34Z</time>
      </trkpt>
      <trkpt lat="45.17779" lon="5.91809">
        <ele>1633.7111575454</ele>
        <time>2021-03-28T07:35:51Z</time>
      </trkpt>
      <trkpt lat="45.17784" lon="5.91818">
        <ele>1634.7113493234</ele>
        <time>2021-03-28T07:35:59Z</time>
      </trkpt>
      <trkpt lat="45.17788" lon="5.91827">
        <ele>1637.711531546</ele>
        <time>2021-03-28T07:36:15Z</time>
      </trkpt>
      <trkpt lat="45.1778" lon="5.91827">
        <ele>1639.7111935876</ele>
        <time>2021-03-28T07:36:43Z</time>
      </trkpt>
      <trkpt lat="45.17771" lon="5.91826">
        <ele>1639.7108422183</ele>
        <time>2021-03-28T07:36:54Z</time>
      </trkpt>
      <trkpt lat="45.17763" lon="5.91826">
        <ele>1641.7105005719</ele>
        <time>2021-03-28T07:37:03Z</time>
      </trkpt>
      <trkpt lat="45.17754" lon="5.91831">
        <ele>1641.7101766951</ele>
        <time>2021-03-28T07:37:14Z</time>
      </trkpt>
      <trkpt lat="45.17758" lon="5.91841">
        <ele>1646.7103000768</ele>
        <time>2021-03-28T07:37:31Z</time>
      </trkpt>
      <trkpt lat="45.17766" lon="5.91845">
        <ele>1647.7106264681</ele>
        <time>2021-03-28T07:37:41Z</time>
      </trkpt>
      <trkpt lat="45.17757" lon="5.91844">
        <ele>1648.7102727517</ele>
        <time>2021-03-28T07:38:01Z</time>
      </trkpt>
      <trkpt lat="45.17749" lon="5.91847">
        <ele>1651.7099731825</ele>
        <time>2021-03-28T07:38:20Z</time>
      </trkpt>
      <trkpt lat="45.17741" lon="5.91852">
        <ele>1651.7096573524</ele>
        <time>2021-03-28T07:38:29Z</time>
      </trkpt>
      <trkpt lat="45.17733" lon="5.91854">
        <ele>1654.7093173824</ele>
        <time>2021-03-28T07:38:38Z</time>
      </trkpt>
      <trkpt lat="45.17725" lon="5.91857">
        <ele>1654.7089819387</ele>
        <time>2021-03-28T07:38:48Z</time>
      </trkpt>
      <trkpt lat="45.17725" lon="5.91869">
        <ele>1657.7089924999</ele>
        <time>2021-03-28T07:39:15Z</time>
      </trkpt>
      <trkpt lat="45.17731" lon="5.91885">
        <ele>1660.709243957</ele>
        <time>2021-03-28T07:39:37Z</time>
      </trkpt>
      <trkpt lat="45.17723" lon="5.9189">
        <ele>1664.7089158893</ele>
        <time>2021-03-28T07:39:55Z</time>
      </trkpt>
      <trkpt lat="45.17714" lon="5.91893">
        <ele>1667.7085723989</ele>
        <time>2021-03-28T07:40:11Z</time>
      </trkpt>
      <trkpt lat="45.17706" lon="5.91894">
        <ele>1671.7082193531</ele>
        <time>2021-03-28T07:40:23Z</time>
      </trkpt>
      <trkpt lat="45.17707" lon="5.91906">
        <ele>1672.7082854025</ele>
        <time>2021-03-28T07:40:40Z</time>
      </trkpt>
      <trkpt lat="45.17711" lon="5.91916">
        <ele>1674.7084570639</ele>
        <time>2021-03-28T07:40:55Z</time>
      </trkpt>
      <trkpt lat="45.17708" lon="5.91927">
        <ele>1677.7083241269</ele>
        <time>2021-03-28T07:41:09Z</time>
      </trkpt>
      <trkpt lat="45.17709" lon="5.91939">
        <ele>1678.7083646953</ele>
        <time>2021-03-28T07:41:17Z</time>
      </trkpt>
      <trkpt lat="45.17708" lon="5.91952">
        <ele>1677.7083003223</ele>
        <time>2021-03-28T07:41:27Z</time>
      </trkpt>
      <trkpt lat="45.17709" lon="5.91963">
        <ele>1678.7083579898</ele>
        <time>2021-03-28T07:41:37Z</time>
      </trkpt>
      <trkpt lat="45.17704" lon="5.91972">
        <ele>1682.7081680559</ele>
        <time>2021-03-28T07:41:46Z</time>
      </trkpt>
      <trkpt lat="45.17697" lon="5.91979">
        <ele>1684.707897488</ele>
        <time>2021-03-28T07:41:55Z</time>
      </trkpt>
      <trkpt lat="45.17689" lon="5.91984">
        <ele>1684.7075724378</ele>
        <time>2021-03-28T07:42:04Z</time>
      </trkpt>
      <trkpt lat="45.17682" lon="5.91987">
        <ele>1685.7072960027</ele>
        <time>2021-03-28T07:42:13Z</time>
      </trkpt>
      <trkpt lat="45.17677" lon="5.91996">
        <ele>1687.7070589624</ele>
        <time>2021-03-28T07:42:20Z</time>
      </trkpt>
      <trkpt lat="45.17673" lon="5.92006">
        <ele>1685.7069246843</ele>
        <time>2021-03-28T07:42:28Z</time>
      </trkpt>
      <trkpt lat="45.17669" lon="5.92017">
        <ele>1683.7067647576</ele>
        <time>2021-03-28T07:42:45Z</time>
      </trkpt>
      <trkpt lat="45.17667" lon="5.92028">
        <ele>1683.7066977024</ele>
        <time>2021-03-28T07:42:53Z</time>
      </trkpt>
      <trkpt lat="45.17669" lon="5.92039">
        <ele>1686.7067468204</ele>
        <time>2021-03-28T07:43:01Z</time>
      </trkpt>
      <trkpt lat="45.17669" lon="5.92051">
        <ele>1689.7067411207</ele>
        <time>2021-03-28T07:43:13Z</time>
      </trkpt>
      <trkpt lat="45.17664" lon="5.92061">
        <ele>1689.7065723091</ele>
        <time>2021-03-28T07:43:19Z</time>
      </trkpt>
      <trkpt lat="45.17657" lon="5.92068">
        <ele>1691.7062817924</ele>
        <time>2021-03-28T07:43:31Z</time>
      </trkpt>
      <trkpt lat="45.17649" lon="5.92069">
        <ele>1691.705955904</ele>
        <time>2021-03-28T07:43:37Z</time>
      </trkpt>
      <trkpt lat="45.17641" lon="5.92073">
        <ele>1692.705619622</ele>
        <time>2021-03-28T07:43:50Z</time>
      </trkpt>
      <trkpt lat="45.17633" lon="5.92078">
        <ele>1694.7053225674</ele>
        <time>2021-03-28T07:44:01Z</time>
      </trkpt>
      <trkpt lat="45.17628" lon="5.92088">
        <ele>1694.7051163726</ele>
        <time>2021-03-28T07:44:08Z</time>
      </trkpt>
      <trkpt lat="45.17622" lon="5.92096">
        <ele>1695.7048689388</ele>
        <time>2021-03-28T07:44:16Z</time>
      </trkpt>
      <trkpt lat="45.17617" lon="5.92105">
        <ele>1695.7046897337</ele>
        <time>2021-03-28T07:44:26Z</time>
      </trkpt>
      <trkpt lat="45.17614" lon="5.92113">
        <ele>1694.7045442238</ele>
        <time>2021-03-28T07:44:30Z</time>
      </trkpt>
      <trkpt lat="45.1761" lon="5.92119">
        <ele>1694.7044007257</ele>
        <time>2021-03-28T07:44:38Z</time>
      </trkpt>
      <trkpt lat="45.17606" lon="5.92129">
        <ele>1695.7042275555</ele>
        <time>2021-03-28T07:44:46Z</time>
      </trkpt>
      <trkpt lat="45.17599" lon="5.92137">
        <ele>1696.7039695606</ele>
        <time>2021-03-28T07:44:56Z</time>
      </trkpt>
      <trkpt lat="45.17594" lon="5.92147">
        <ele>1699.7037695684</ele>
        <time>2021-03-28T07:45:18Z</time>
      </trkpt>
      <trkpt lat="45.1759" lon="5.92155">
        <ele>1698.7035917044</ele>
        <time>2021-03-28T07:45:31Z</time>
      </trkpt>
      <trkpt lat="45.17585" lon="5.92163">
        <ele>1696.7034037821</ele>
        <time>2021-03-28T07:45:41Z</time>
      </trkpt>
      <trkpt lat="45.17582" lon="5.92175">
        <ele>1697.7032686658</ele>
        <time>2021-03-28T07:45:51Z</time>
      </trkpt>
      <trkpt lat="45.17575" lon="5.92182">
        <ele>1699.7029863633</ele>
        <time>2021-03-28T07:46:03Z</time>
      </trkpt>
      <trkpt lat="45.17569" lon="5.92191">
        <ele>1697.7027561963</ele>
        <time>2021-03-28T07:46:24Z</time>
      </trkpt>
      <trkpt lat="45.17564" lon="5.92201">
        <ele>1697.7025637478</ele>
        <time>2021-03-28T07:46:36Z</time>
      </trkpt>
      <trkpt lat="45.17557" lon="5.92209">
        <ele>1698.7022807747</ele>
        <time>2021-03-28T07:46:47Z</time>
      </trkpt>
      <trkpt lat="45.17552" lon="5.92218">
        <ele>1698.7020593248</ele>
        <time>2021-03-28T07:46:56Z</time>
      </trkpt>
      <trkpt lat="45.17545" lon="5.92225">
        <ele>1697.7018090412</ele>
        <time>2021-03-28T07:47:03Z</time>
      </trkpt>
      <trkpt lat="45.1754" lon="5.92235">
        <ele>1696.7015941292</ele>
        <time>2021-03-28T07:47:14Z</time>
      </trkpt>
      <trkpt lat="45.17538" lon="5.92247">
        <ele>1698.7015143335</ele>
        <time>2021-03-28T07:47:27Z</time>
      </trkpt>
      <trkpt lat="45.17534" lon="5.92259">
        <ele>1699.7013763674</ele>
        <time>2021-03-28T07:47:43Z</time>
      </trkpt>
      <trkpt lat="45.17532" lon="5.9227">
        <ele>1699.7012581825</ele>
        <time>2021-03-28T07:47:55Z</time>
      </trkpt>
      <trkpt lat="45.17527" lon="5.92279">
        <ele>1699.7010788098</ele>
        <time>2021-03-28T07:48:13Z</time>
      </trkpt>
      <trkpt lat="45.17523" lon="5.9229">
        <ele>1699.7009329647</ele>
        <time>2021-03-28T07:48:24Z</time>
      </trkpt>
      <trkpt lat="45.17521" lon="5.92302">
        <ele>1701.7008367404</ele>
        <time>2021-03-28T07:48:43Z</time>
      </trkpt>
      <trkpt lat="45.17526" lon="5.92311">
        <ele>1702.7010345533</ele>
        <time>2021-03-28T07:48:50Z</time>
      </trkpt>
      <trkpt lat="45.17531" lon="5.92321">
        <ele>1702.7012439333</ele>
        <time>2021-03-28T07:48:57Z</time>
      </trkpt>
      <trkpt lat="45.17537" lon="5.9233">
        <ele>1702.7014972344</ele>
        <time>2021-03-28T07:49:06Z</time>
      </trkpt>
      <trkpt lat="45.1754" lon="5.92339">
        <ele>1701.7016058639</ele>
        <time>2021-03-28T07:49:13Z</time>
      </trkpt>
      <trkpt lat="45.17543" lon="5.92349">
        <ele>1701.701704938</ele>
        <time>2021-03-28T07:49:21Z</time>
      </trkpt>
      <trkpt lat="45.17541" lon="5.9236">
        <ele>1701.7016238011</ele>
        <time>2021-03-28T07:49:29Z</time>
      </trkpt>
      <trkpt lat="45.17537" lon="5.92371">
        <ele>1702.7014605217</ele>
        <time>2021-03-28T07:49:40Z</time>
      </trkpt>
      <trkpt lat="45.17529" lon="5.92377">
        <ele>1698.7011606172</ele>
        <time>2021-03-28T07:49:50Z</time>
      </trkpt>
      <trkpt lat="45.17521" lon="5.9238">
        <ele>1700.7008231618</ele>
        <time>2021-03-28T07:50:06Z</time>
      </trkpt>
      <trkpt lat="45.17512" lon="5.92384">
        <ele>1701.7004904002</ele>
        <time>2021-03-28T07:50:20Z</time>
      </trkpt>
      <trkpt lat="45.17505" lon="5.92389">
        <ele>1704.7002069242</ele>
        <time>2021-03-28T07:50:27Z</time>
      </trkpt>
      <trkpt lat="45.17498" lon="5.92397">
        <ele>1705.6999304891</ele>
        <time>2021-03-28T07:50:33Z</time>
      </trkpt>
      <trkpt lat="45.17492" lon="5.92405">
        <ele>1705.6996904314</ele>
        <time>2021-03-28T07:50:39Z</time>
      </trkpt>
      <trkpt lat="45.17488" lon="5.92415">
        <ele>1704.6995098852</ele>
        <time>2021-03-28T07:50:46Z</time>
      </trkpt>
      <trkpt lat="45.17481" lon="5.92421">
        <ele>1706.6992213801</ele>
        <time>2021-03-28T07:50:59Z</time>
      </trkpt>
      <trkpt lat="45.17474" lon="5.92416">
        <ele>1708.6989429332</ele>
        <time>2021-03-28T07:51:15Z</time>
      </trkpt>
      <trkpt lat="45.17461" lon="5.92428">
        <ele>1712.6984299608</ele>
        <time>2021-03-28T07:51:44Z</time>
      </trkpt>
      <trkpt lat="45.17454" lon="5.92435">
        <ele>1710.6981763244</ele>
        <time>2021-03-28T07:54:19Z</time>
      </trkpt>
      <trkpt lat="45.17446" lon="5.92438">
        <ele>1712.6978269666</ele>
        <time>2021-03-28T07:54:46Z</time>
      </trkpt>
      <trkpt lat="45.17438" lon="5.92441">
        <ele>1713.6975230388</ele>
        <time>2021-03-28T07:54:59Z</time>
      </trkpt>
      <trkpt lat="45.17431" lon="5.92447">
        <ele>1713.6972318515</ele>
        <time>2021-03-28T07:55:16Z</time>
      </trkpt>
      <trkpt lat="45.17425" lon="5.92457">
        <ele>1713.6970006786</ele>
        <time>2021-03-28T07:55:28Z</time>
      </trkpt>
      <trkpt lat="45.1742" lon="5.92466">
        <ele>1713.696812924</ele>
        <time>2021-03-28T07:55:50Z</time>
      </trkpt>
      <trkpt lat="45.17418" lon="5.92478">
        <ele>1713.6967037916</ele>
        <time>2021-03-28T07:56:04Z</time>
      </trkpt>
      <trkpt lat="45.17413" lon="5.92488">
        <ele>1714.6965193897</ele>
        <time>2021-03-28T07:56:17Z</time>
      </trkpt>
      <trkpt lat="45.1741" lon="5.92499">
        <ele>1714.696397014</ele>
        <time>2021-03-28T07:56:26Z</time>
      </trkpt>
      <trkpt lat="45.17412" lon="5.92511">
        <ele>1717.6964895502</ele>
        <time>2021-03-28T07:56:36Z</time>
      </trkpt>
      <trkpt lat="45.17415" lon="5.92522">
        <ele>1718.6965780631</ele>
        <time>2021-03-28T07:56:51Z</time>
      </trkpt>
      <trkpt lat="45.17422" lon="5.92529">
        <ele>1721.6968630478</ele>
        <time>2021-03-28T07:57:05Z</time>
      </trkpt>
      <trkpt lat="45.17429" lon="5.92536">
        <ele>1725.6971684843</ele>
        <time>2021-03-28T07:57:26Z</time>
      </trkpt>
      <trkpt lat="45.17438" lon="5.92537">
        <ele>1727.6975154951</ele>
        <time>2021-03-28T07:57:40Z</time>
      </trkpt>
      <trkpt lat="45.17447" lon="5.92538">
        <ele>1728.6978608295</ele>
        <time>2021-03-28T07:57:52Z</time>
      </trkpt>
      <trkpt lat="45.17454" lon="5.92537">
        <ele>1727.698174648</ele>
        <time>2021-03-28T07:58:12Z</time>
      </trkpt>
      <trkpt lat="45.17463" lon="5.92538">
        <ele>1730.6985032186</ele>
        <time>2021-03-28T07:58:37Z</time>
      </trkpt>
      <trkpt lat="45.1747" lon="5.92544">
        <ele>1731.6988093257</ele>
        <time>2021-03-28T07:58:57Z</time>
      </trkpt>
      <trkpt lat="45.17472" lon="5.92555">
        <ele>1735.6988772191</ele>
        <time>2021-03-28T07:59:32Z</time>
      </trkpt>
      <trkpt lat="45.17466" lon="5.92561">
        <ele>1735.6986222416</ele>
        <time>2021-03-28T07:59:48Z</time>
      </trkpt>
      <trkpt lat="45.17458" lon="5.92566">
        <ele>1739.6983017176</ele>
        <time>2021-03-28T07:59:56Z</time>
      </trkpt>
      <trkpt lat="45.1745" lon="5.92572">
        <ele>1740.69801623</ele>
        <time>2021-03-28T08:00:09Z</time>
      </trkpt>
      <trkpt lat="45.17445" lon="5.92582">
        <ele>1742.6978043355</ele>
        <time>2021-03-28T08:00:22Z</time>
      </trkpt>
      <trkpt lat="45.17437" lon="5.92582">
        <ele>1742.6974791177</ele>
        <time>2021-03-28T08:00:39Z</time>
      </trkpt>
      <trkpt lat="45.17429" lon="5.92583">
        <ele>1745.6971520558</ele>
        <time>2021-03-28T08:00:53Z</time>
      </trkpt>
      <trkpt lat="45.17422" lon="5.92592">
        <ele>1747.6968913786</ele>
        <time>2021-03-28T08:01:05Z</time>
      </trkpt>
      <trkpt lat="45.17419" lon="5.92603">
        <ele>1749.696766153</ele>
        <time>2021-03-28T08:01:17Z</time>
      </trkpt>
      <trkpt lat="45.17417" lon="5.92615">
        <ele>1750.6966779754</ele>
        <time>2021-03-28T08:01:30Z</time>
      </trkpt>
      <trkpt lat="45.17409" lon="5.92617">
        <ele>1754.696338173</ele>
        <time>2021-03-28T08:01:48Z</time>
      </trkpt>
      <trkpt lat="45.174" lon="5.92619">
        <ele>1758.695996359</ele>
        <time>2021-03-28T08:02:05Z</time>
      </trkpt>
      <trkpt lat="45.17392" lon="5.92625">
        <ele>1760.6956845522</ele>
        <time>2021-03-28T08:02:22Z</time>
      </trkpt>
      <trkpt lat="45.17386" lon="5.92634">
        <ele>1766.6954567321</ele>
        <time>2021-03-28T08:02:38Z</time>
      </trkpt>
      <trkpt lat="45.17384" lon="5.92646">
        <ele>1768.6953454204</ele>
        <time>2021-03-28T08:03:03Z</time>
      </trkpt>
      <trkpt lat="45.17379" lon="5.92656">
        <ele>1767.6951504573</ele>
        <time>2021-03-28T08:03:20Z</time>
      </trkpt>
      <trkpt lat="45.17372" lon="5.92662">
        <ele>1770.6948876008</ele>
        <time>2021-03-28T08:03:32Z</time>
      </trkpt>
      <trkpt lat="45.17365" lon="5.92668">
        <ele>1772.6946111657</ele>
        <time>2021-03-28T08:03:40Z</time>
      </trkpt>
      <trkpt lat="45.17361" lon="5.92679">
        <ele>1774.6944346428</ele>
        <time>2021-03-28T08:03:54Z</time>
      </trkpt>
      <trkpt lat="45.17354" lon="5.92684">
        <ele>1777.694142282</ele>
        <time>2021-03-28T08:04:06Z</time>
      </trkpt>
      <trkpt lat="45.17349" lon="5.92694">
        <ele>1779.6939761527</ele>
        <time>2021-03-28T08:04:17Z</time>
      </trkpt>
      <trkpt lat="45.17343" lon="5.92702">
        <ele>1781.6936995499</ele>
        <time>2021-03-28T08:04:26Z</time>
      </trkpt>
      <trkpt lat="45.17336" lon="5.92709">
        <ele>1783.6934387051</ele>
        <time>2021-03-28T08:04:38Z</time>
      </trkpt>
      <trkpt lat="45.17331" lon="5.92719">
        <ele>1783.6932351924</ele>
        <time>2021-03-28T08:04:47Z</time>
      </trkpt>
      <trkpt lat="45.17325" lon="5.92728">
        <ele>1784.6930132397</ele>
        <time>2021-03-28T08:04:57Z</time>
      </trkpt>
      <trkpt lat="45.17322" lon="5.92739">
        <ele>1786.6928799674</ele>
        <time>2021-03-28T08:05:10Z</time>
      </trkpt>
      <trkpt lat="45.17321" lon="5.92751">
        <ele>1787.6928529777</ele>
        <time>2021-03-28T08:05:22Z</time>
      </trkpt>
      <trkpt lat="45.17319" lon="5.92763">
        <ele>1789.6927564181</ele>
        <time>2021-03-28T08:05:33Z</time>
      </trkpt>
      <trkpt lat="45.17316" lon="5.92774">
        <ele>1792.692647621</ele>
        <time>2021-03-28T08:05:43Z</time>
      </trkpt>
      <trkpt lat="45.17316" lon="5.92785">
        <ele>1792.6926248223</ele>
        <time>2021-03-28T08:05:56Z</time>
      </trkpt>
      <trkpt lat="45.17319" lon="5.92796">
        <ele>1792.692745354</ele>
        <time>2021-03-28T08:06:03Z</time>
      </trkpt>
      <trkpt lat="45.17323" lon="5.92807">
        <ele>1794.6929089688</ele>
        <time>2021-03-28T08:06:15Z</time>
      </trkpt>
      <trkpt lat="45.17328" lon="5.92816">
        <ele>1796.693128407</ele>
        <time>2021-03-28T08:06:31Z</time>
      </trkpt>
      <trkpt lat="45.17333" lon="5.92825">
        <ele>1799.6933307461</ele>
        <time>2021-03-28T08:06:44Z</time>
      </trkpt>
      <trkpt lat="45.17338" lon="5.92831">
        <ele>1803.6935233623</ele>
        <time>2021-03-28T08:06:57Z</time>
      </trkpt>
      <trkpt lat="45.17342" lon="5.92842">
        <ele>1804.6936965324</ele>
        <time>2021-03-28T08:07:07Z</time>
      </trkpt>
      <trkpt lat="45.1735" lon="5.92848">
        <ele>1804.6939991191</ele>
        <time>2021-03-28T08:07:22Z</time>
      </trkpt>
      <trkpt lat="45.17358" lon="5.92853">
        <ele>1803.694318302</ele>
        <time>2021-03-28T08:07:34Z</time>
      </trkpt>
      <trkpt lat="45.17367" lon="5.92857">
        <ele>1804.6946643069</ele>
        <time>2021-03-28T08:07:46Z</time>
      </trkpt>
      <trkpt lat="45.17369" lon="5.92868">
        <ele>1807.694761537</ele>
        <time>2021-03-28T08:08:04Z</time>
      </trkpt>
      <trkpt lat="45.17372" lon="5.92879">
        <ele>1810.6948835775</ele>
        <time>2021-03-28T08:08:15Z</time>
      </trkpt>
      <trkpt lat="45.17374" lon="5.92891">
        <ele>1812.6949714199</ele>
        <time>2021-03-28T08:08:29Z</time>
      </trkpt>
      <trkpt lat="45.17379" lon="5.92902">
        <ele>1814.695154313</ele>
        <time>2021-03-28T08:08:40Z</time>
      </trkpt>
      <trkpt lat="45.17384" lon="5.92911">
        <ele>1816.6953657046</ele>
        <time>2021-03-28T08:08:59Z</time>
      </trkpt>
      <trkpt lat="45.17386" lon="5.92923">
        <ele>1818.6954218633</ele>
        <time>2021-03-28T08:09:13Z</time>
      </trkpt>
      <trkpt lat="45.17389" lon="5.92934">
        <ele>1821.6955434009</ele>
        <time>2021-03-28T08:09:28Z</time>
      </trkpt>
      <trkpt lat="45.17393" lon="5.92945">
        <ele>1823.6957205944</ele>
        <time>2021-03-28T08:09:44Z</time>
      </trkpt>
      <trkpt lat="45.17397" lon="5.92954">
        <ele>1825.6958815269</ele>
        <time>2021-03-28T08:09:58Z</time>
      </trkpt>
      <trkpt lat="45.17399" lon="5.92965">
        <ele>1828.695951432</ele>
        <time>2021-03-28T08:10:16Z</time>
      </trkpt>
      <trkpt lat="45.17402" lon="5.92977">
        <ele>1832.6960888952</ele>
        <time>2021-03-28T08:10:31Z</time>
      </trkpt>
      <trkpt lat="45.1741" lon="5.92982">
        <ele>1836.6964022107</ele>
        <time>2021-03-28T08:10:48Z</time>
      </trkpt>
      <trkpt lat="45.17417" lon="5.9299">
        <ele>1839.6966731139</ele>
        <time>2021-03-28T08:11:07Z</time>
      </trkpt>
      <trkpt lat="45.17419" lon="5.93001">
        <ele>1844.6967617944</ele>
        <time>2021-03-28T08:11:20Z</time>
      </trkpt>
      <trkpt lat="45.17422" lon="5.93013">
        <ele>1844.6968739443</ele>
        <time>2021-03-28T08:11:32Z</time>
      </trkpt>
      <trkpt lat="45.17423" lon="5.93024">
        <ele>1849.6969279237</ele>
        <time>2021-03-28T08:11:52Z</time>
      </trkpt>
      <trkpt lat="45.17429" lon="5.93032">
        <ele>1851.6971458532</ele>
        <time>2021-03-28T08:12:02Z</time>
      </trkpt>
      <trkpt lat="45.17434" lon="5.93042">
        <ele>1852.6973414868</ele>
        <time>2021-03-28T08:12:12Z</time>
      </trkpt>
      <trkpt lat="45.17438" lon="5.93052">
        <ele>1854.6974987313</ele>
        <time>2021-03-28T08:12:19Z</time>
      </trkpt>
      <trkpt lat="45.17442" lon="5.93063">
        <ele>1855.6976655312</ele>
        <time>2021-03-28T08:12:28Z</time>
      </trkpt>
      <trkpt lat="45.17447" lon="5.93073">
        <ele>1856.6978702173</ele>
        <time>2021-03-28T08:12:38Z</time>
      </trkpt>
      <trkpt lat="45.17451" lon="5.93084">
        <ele>1856.6980539486</ele>
        <time>2021-03-28T08:12:49Z</time>
      </trkpt>
      <trkpt lat="45.17457" lon="5.93093">
        <ele>1857.6982702017</ele>
        <time>2021-03-28T08:13:00Z</time>
      </trkpt>
      <trkpt lat="45.17455" lon="5.93105">
        <ele>1859.6982041523</ele>
        <time>2021-03-28T08:13:18Z</time>
      </trkpt>
      <trkpt lat="45.17451" lon="5.93116">
        <ele>1859.6980472431</ele>
        <time>2021-03-28T08:13:31Z</time>
      </trkpt>
      <trkpt lat="45.17451" lon="5.93127">
        <ele>1859.6980366819</ele>
        <time>2021-03-28T08:13:43Z</time>
      </trkpt>
      <trkpt lat="45.17453" lon="5.93138">
        <ele>1860.6981062517</ele>
        <time>2021-03-28T08:13:56Z</time>
      </trkpt>
      <trkpt lat="45.17456" lon="5.93148">
        <ele>1862.698227454</ele>
        <time>2021-03-28T08:14:11Z</time>
      </trkpt>
      <trkpt lat="45.17462" lon="5.93156">
        <ele>1866.6984730437</ele>
        <time>2021-03-28T08:14:26Z</time>
      </trkpt>
      <trkpt lat="45.17465" lon="5.93167">
        <ele>1866.6986133568</ele>
        <time>2021-03-28T08:14:36Z</time>
      </trkpt>
      <trkpt lat="45.17468" lon="5.93177">
        <ele>1868.6987270154</ele>
        <time>2021-03-28T08:14:46Z</time>
      </trkpt>
      <trkpt lat="45.17471" lon="5.93188">
        <ele>1868.6988389976</ele>
        <time>2021-03-28T08:14:56Z</time>
      </trkpt>
      <trkpt lat="45.17475" lon="5.93199">
        <ele>1870.6989932247</ele>
        <time>2021-03-28T08:15:08Z</time>
      </trkpt>
      <trkpt lat="45.17477" lon="5.93211">
        <ele>1873.699059274</ele>
        <time>2021-03-28T08:15:21Z</time>
      </trkpt>
      <trkpt lat="45.17478" lon="5.93223">
        <ele>1875.6991026923</ele>
        <time>2021-03-28T08:15:33Z</time>
      </trkpt>
      <trkpt lat="45.17482" lon="5.93234">
        <ele>1875.6992664747</ele>
        <time>2021-03-28T08:15:49Z</time>
      </trkpt>
      <trkpt lat="45.17482" lon="5.93245">
        <ele>1877.6992948055</ele>
        <time>2021-03-28T08:15:59Z</time>
      </trkpt>
      <trkpt lat="45.17479" lon="5.93255">
        <ele>1880.6991461106</ele>
        <time>2021-03-28T08:16:11Z</time>
      </trkpt>
      <trkpt lat="45.17471" lon="5.93261">
        <ele>1883.6988237426</ele>
        <time>2021-03-28T08:16:28Z</time>
      </trkpt>
      <trkpt lat="45.17469" lon="5.93273">
        <ele>1885.6987643987</ele>
        <time>2021-03-28T08:16:42Z</time>
      </trkpt>
      <trkpt lat="45.17461" lon="5.93274">
        <ele>1889.6984309666</ele>
        <time>2021-03-28T08:17:08Z</time>
      </trkpt>
      <trkpt lat="45.17453" lon="5.9328">
        <ele>1890.6981164776</ele>
        <time>2021-03-28T08:17:20Z</time>
      </trkpt>
      <trkpt lat="45.17446" lon="5.93287">
        <ele>1894.697830487</ele>
        <time>2021-03-28T08:17:40Z</time>
      </trkpt>
      <trkpt lat="45.17439" lon="5.93295">
        <ele>1898.6975659542</ele>
        <time>2021-03-28T08:17:52Z</time>
      </trkpt>
      <trkpt lat="45.17432" lon="5.93302">
        <ele>1898.6972821429</ele>
        <time>2021-03-28T08:18:06Z</time>
      </trkpt>
      <trkpt lat="45.17424" lon="5.93304">
        <ele>1901.6969425082</ele>
        <time>2021-03-28T08:18:17Z</time>
      </trkpt>
      <trkpt lat="45.17424" lon="5.93316">
        <ele>1903.6969544105</ele>
        <time>2021-03-28T08:18:33Z</time>
      </trkpt>
      <trkpt lat="45.17422" lon="5.93328">
        <ele>1905.6968975812</ele>
        <time>2021-03-28T08:18:47Z</time>
      </trkpt>
      <trkpt lat="45.1742" lon="5.9334">
        <ele>1906.6968125887</ele>
        <time>2021-03-28T08:19:00Z</time>
      </trkpt>
      <trkpt lat="45.17416" lon="5.93351">
        <ele>1908.6966524944</ele>
        <time>2021-03-28T08:19:12Z</time>
      </trkpt>
      <trkpt lat="45.17414" lon="5.93363">
        <ele>1907.6965529174</ele>
        <time>2021-03-28T08:19:20Z</time>
      </trkpt>
      <trkpt lat="45.17411" lon="5.93374">
        <ele>1907.6964342296</ele>
        <time>2021-03-28T08:19:29Z</time>
      </trkpt>
      <trkpt lat="45.17408" lon="5.93386">
        <ele>1906.6963257678</ele>
        <time>2021-03-28T08:19:38Z</time>
      </trkpt>
      <trkpt lat="45.1741" lon="5.93397">
        <ele>1913.6963950023</ele>
        <time>2021-03-28T08:20:01Z</time>
      </trkpt>
      <trkpt lat="45.17409" lon="5.93409">
        <ele>1914.6963631511</ele>
        <time>2021-03-28T08:20:09Z</time>
      </trkpt>
      <trkpt lat="45.17405" lon="5.9342">
        <ele>1916.6962146237</ele>
        <time>2021-03-28T08:20:19Z</time>
      </trkpt>
      <trkpt lat="45.17401" lon="5.9343">
        <ele>1915.6960208341</ele>
        <time>2021-03-28T08:20:30Z</time>
      </trkpt>
      <trkpt lat="45.17403" lon="5.93442">
        <ele>1917.6961162202</ele>
        <time>2021-03-28T08:20:43Z</time>
      </trkpt>
      <trkpt lat="45.17403" lon="5.93453">
        <ele>1920.6961220875</ele>
        <time>2021-03-28T08:20:55Z</time>
      </trkpt>
      <trkpt lat="45.17401" lon="5.93465">
        <ele>1923.6960454769</ele>
        <time>2021-03-28T08:21:12Z</time>
      </trkpt>
      <trkpt lat="45.174" lon="5.93476">
        <ele>1922.6959935091</ele>
        <time>2021-03-28T08:21:21Z</time>
      </trkpt>
      <trkpt lat="45.17395" lon="5.93486">
        <ele>1922.6957950257</ele>
        <time>2021-03-28T08:21:32Z</time>
      </trkpt>
      <trkpt lat="45.17391" lon="5.93495">
        <ele>1922.6956449896</ele>
        <time>2021-03-28T08:21:41Z</time>
      </trkpt>
      <trkpt lat="45.17389" lon="5.93506">
        <ele>1921.6955537945</ele>
        <time>2021-03-28T08:21:49Z</time>
      </trkpt>
      <trkpt lat="45.17386" lon="5.93517">
        <ele>1921.6954438239</ele>
        <time>2021-03-28T08:21:59Z</time>
      </trkpt>
      <trkpt lat="45.17386" lon="5.93528">
        <ele>1920.6954295747</ele>
        <time>2021-03-28T08:22:09Z</time>
      </trkpt>
      <trkpt lat="45.17386" lon="5.9354">
        <ele>1921.6954267249</ele>
        <time>2021-03-28T08:22:19Z</time>
      </trkpt>
      <trkpt lat="45.17385" lon="5.93551">
        <ele>1925.6954113021</ele>
        <time>2021-03-28T08:22:31Z</time>
      </trkpt>
      <trkpt lat="45.17382" lon="5.93562">
        <ele>1931.6952855736</ele>
        <time>2021-03-28T08:22:44Z</time>
      </trkpt>
      <trkpt lat="45.17374" lon="5.93563">
        <ele>1934.6949642114</ele>
        <time>2021-03-28T08:22:55Z</time>
      </trkpt>
      <trkpt lat="45.17366" lon="5.93568">
        <ele>1935.6946296059</ele>
        <time>2021-03-28T08:23:06Z</time>
      </trkpt>
      <trkpt lat="45.17358" lon="5.93567">
        <ele>1935.6943037175</ele>
        <time>2021-03-28T08:23:16Z</time>
      </trkpt>
      <trkpt lat="45.17352" lon="5.93558">
        <ele>1937.6940680183</ele>
        <time>2021-03-28T08:23:27Z</time>
      </trkpt>
      <trkpt lat="45.17347" lon="5.93548">
        <ele>1939.6938663498</ele>
        <time>2021-03-28T08:23:41Z</time>
      </trkpt>
      <trkpt lat="45.17342" lon="5.93538">
        <ele>1941.6936782598</ele>
        <time>2021-03-28T08:23:50Z</time>
      </trkpt>
      <trkpt lat="45.17336" lon="5.93531">
        <ele>1942.6934249587</ele>
        <time>2021-03-28T08:24:00Z</time>
      </trkpt>
      <trkpt lat="45.1733" lon="5.93522">
        <ele>1944.6932087056</ele>
        <time>2021-03-28T08:24:11Z</time>
      </trkpt>
      <trkpt lat="45.17323" lon="5.93516">
        <ele>1945.6929372996</ele>
        <time>2021-03-28T08:24:20Z</time>
      </trkpt>
      <trkpt lat="45.17316" lon="5.93511">
        <ele>1949.6926328689</ele>
        <time>2021-03-28T08:24:31Z</time>
      </trkpt>
      <trkpt lat="45.17308" lon="5.93513">
        <ele>1950.692323409</ele>
        <time>2021-03-28T08:24:45Z</time>
      </trkpt>
      <trkpt lat="45.173" lon="5.93519">
        <ele>1952.6919978559</ele>
        <time>2021-03-28T08:24:59Z</time>
      </trkpt>
      <trkpt lat="45.17293" lon="5.93527">
        <ele>1955.6917267852</ele>
        <time>2021-03-28T08:25:24Z</time>
      </trkpt>
      <trkpt lat="45.17288" lon="5.93534">
        <ele>1959.6915014796</ele>
        <time>2021-03-28T08:25:39Z</time>
      </trkpt>
      <trkpt lat="45.17281" lon="5.93542">
        <ele>1959.6912206858</ele>
        <time>2021-03-28T08:25:54Z</time>
      </trkpt>
      <trkpt lat="45.17277" lon="5.93552">
        <ele>1959.6910748407</ele>
        <time>2021-03-28T08:26:06Z</time>
      </trkpt>
      <trkpt lat="45.17275" lon="5.93563">
        <ele>1963.6910019182</ele>
        <time>2021-03-28T08:26:18Z</time>
      </trkpt>
      <trkpt lat="45.1728" lon="5.93572">
        <ele>1965.6911827996</ele>
        <time>2021-03-28T08:26:38Z</time>
      </trkpt>
      <trkpt lat="45.17284" lon="5.93582">
        <ele>1967.6913516112</ele>
        <time>2021-03-28T08:26:48Z</time>
      </trkpt>
      <trkpt lat="45.17277" lon="5.9359">
        <ele>1975.6910932809</ele>
        <time>2021-03-28T08:27:18Z</time>
      </trkpt>
      <trkpt lat="45.17261" lon="5.93597">
        <ele>1977.6904418394</ele>
        <time>2021-03-28T08:27:37Z</time>
      </trkpt>
      <trkpt lat="45.17256" lon="5.93607">
        <ele>1976.6902529113</ele>
        <time>2021-03-28T08:27:56Z</time>
      </trkpt>
      <trkpt lat="45.17256" lon="5.93619">
        <ele>1975.6902435236</ele>
        <time>2021-03-28T08:28:11Z</time>
      </trkpt>
      <trkpt lat="45.1725" lon="5.93626">
        <ele>1977.6899885461</ele>
        <time>2021-03-28T08:28:22Z</time>
      </trkpt>
      <trkpt lat="45.17241" lon="5.93629">
        <ele>1979.6896418706</ele>
        <time>2021-03-28T08:28:35Z</time>
      </trkpt>
      <trkpt lat="45.17233" lon="5.93633">
        <ele>1976.6893312372</ele>
        <time>2021-03-28T08:28:42Z</time>
      </trkpt>
      <trkpt lat="45.17225" lon="5.93638">
        <ele>1977.6890060194</ele>
        <time>2021-03-28T08:28:52Z</time>
      </trkpt>
      <trkpt lat="45.17217" lon="5.9364">
        <ele>1981.6886749342</ele>
        <time>2021-03-28T08:29:03Z</time>
      </trkpt>
      <trkpt lat="45.17209" lon="5.93643">
        <ele>1981.6883527339</ele>
        <time>2021-03-28T08:29:14Z</time>
      </trkpt>
      <trkpt lat="45.172" lon="5.93644">
        <ele>1981.6880127639</ele>
        <time>2021-03-28T08:29:25Z</time>
      </trkpt>
      <trkpt lat="45.17192" lon="5.93643">
        <ele>1982.6876654178</ele>
        <time>2021-03-28T08:29:33Z</time>
      </trkpt>
      <trkpt lat="45.17184" lon="5.93641">
        <ele>1985.6873381883</ele>
        <time>2021-03-28T08:29:44Z</time>
      </trkpt>
      <trkpt lat="45.17176" lon="5.93637">
        <ele>1986.6870250404</ele>
        <time>2021-03-28T08:29:59Z</time>
      </trkpt>
      <trkpt lat="45.17167" lon="5.93637">
        <ele>1988.6866867468</ele>
        <time>2021-03-28T08:30:11Z</time>
      </trkpt>
      <trkpt lat="45.17159" lon="5.93634">
        <ele>1989.6863508001</ele>
        <time>2021-03-28T08:30:23Z</time>
      </trkpt>
      <trkpt lat="45.17155" lon="5.93623">
        <ele>1989.6861948967</ele>
        <time>2021-03-28T08:30:38Z</time>
      </trkpt>
      <trkpt lat="45.17146" lon="5.9362">
        <ele>1989.6858554296</ele>
        <time>2021-03-28T08:30:49Z</time>
      </trkpt>
      <trkpt lat="45.17138" lon="5.93616">
        <ele>1989.6855206564</ele>
        <time>2021-03-28T08:31:25Z</time>
      </trkpt>
      <trkpt lat="45.17145" lon="5.93612">
        <ele>1995.6858036295</ele>
        <time>2021-03-28T08:33:12Z</time>
      </trkpt>
      <trkpt lat="45.17137" lon="5.93615">
        <ele>2006.6854894757</ele>
        <time>2021-03-28T08:34:01Z</time>
      </trkpt>
      <trkpt lat="45.17136" lon="5.93627">
        <ele>1992.6854547746</ele>
        <time>2021-03-28T08:36:17Z</time>
      </trkpt>
      <trkpt lat="45.17128" lon="5.93629">
        <ele>1986.6851293892</ele>
        <time>2021-03-28T08:36:52Z</time>
      </trkpt>
      <trkpt lat="45.17124" lon="5.93639">
        <ele>1987.6849392876</ele>
        <time>2021-03-28T08:37:38Z</time>
      </trkpt>
      <trkpt lat="45.17124" lon="5.9365">
        <ele>1987.6849501841</ele>
        <time>2021-03-28T08:37:48Z</time>
      </trkpt>
      <trkpt lat="45.1712" lon="5.93661">
        <ele>1988.6848137267</ele>
        <time>2021-03-28T08:37:57Z</time>
      </trkpt>
      <trkpt lat="45.17119" lon="5.93673">
        <ele>1988.6847548857</ele>
        <time>2021-03-28T08:38:10Z</time>
      </trkpt>
      <trkpt lat="45.17116" lon="5.93684">
        <ele>1989.6846274808</ele>
        <time>2021-03-28T08:38:20Z</time>
      </trkpt>
      <trkpt lat="45.17108" lon="5.93681">
        <ele>1987.6843302585</ele>
        <time>2021-03-28T08:38:29Z</time>
      </trkpt>
      <trkpt lat="45.171" lon="5.93684">
        <ele>1986.6839840859</ele>
        <time>2021-03-28T08:38:46Z</time>
      </trkpt>
      <trkpt lat="45.17093" lon="5.93691">
        <ele>1987.6836994365</ele>
        <time>2021-03-28T08:39:01Z</time>
      </trkpt>
      <trkpt lat="45.17078" lon="5.93702">
        <ele>1986.6831137091</ele>
        <time>2021-03-28T08:39:19Z</time>
      </trkpt>
      <trkpt lat="45.17072" lon="5.93705">
        <ele>1984.6828736514</ele>
        <time>2021-03-28T08:39:39Z</time>
      </trkpt>
      <trkpt lat="45.17065" lon="5.93712">
        <ele>1988.6825968809</ele>
        <time>2021-03-28T08:39:51Z</time>
      </trkpt>
      <trkpt lat="45.17057" lon="5.93718">
        <ele>1988.6822944619</ele>
        <time>2021-03-28T08:40:12Z</time>
      </trkpt>
      <trkpt lat="45.17049" lon="5.93721">
        <ele>1987.681961868</ele>
        <time>2021-03-28T08:40:26Z</time>
      </trkpt>
      <trkpt lat="45.17041" lon="5.93724">
        <ele>1989.6816312857</ele>
        <time>2021-03-28T08:40:47Z</time>
      </trkpt>
      <trkpt lat="45.17033" lon="5.93723">
        <ele>1992.6813052297</ele>
        <time>2021-03-28T08:41:04Z</time>
      </trkpt>
      <trkpt lat="45.17025" lon="5.93728">
        <ele>1993.6809927523</ele>
        <time>2021-03-28T08:41:19Z</time>
      </trkpt>
      <trkpt lat="45.17017" lon="5.93731">
        <ele>1994.6806861423</ele>
        <time>2021-03-28T08:41:41Z</time>
      </trkpt>
      <trkpt lat="45.17009" lon="5.93735">
        <ele>1999.6803498603</ele>
        <time>2021-03-28T08:41:54Z</time>
      </trkpt>
      <trkpt lat="45.17001" lon="5.93738">
        <ele>2006.6800279953</ele>
        <time>2021-03-28T08:42:08Z</time>
      </trkpt>
      <trkpt lat="45.16993" lon="5.93742">
        <ele>2008.6797252409</ele>
        <time>2021-03-28T08:42:20Z</time>
      </trkpt>
      <trkpt lat="45.16985" lon="5.93743">
        <ele>2005.6793894619</ele>
        <time>2021-03-28T08:42:31Z</time>
      </trkpt>
      <trkpt lat="45.16977" lon="5.93748">
        <ele>2012.6790910661</ele>
        <time>2021-03-28T08:42:46Z</time>
      </trkpt>
      <trkpt lat="45.16971" lon="5.93757">
        <ele>2009.6788577139</ele>
        <time>2021-03-28T08:43:11Z</time>
      </trkpt>
      <trkpt lat="45.16964" lon="5.93763">
        <ele>2011.6785531156</ele>
        <time>2021-03-28T08:43:23Z</time>
      </trkpt>
      <trkpt lat="45.16957" lon="5.93771">
        <ele>2014.678282883</ele>
        <time>2021-03-28T08:43:40Z</time>
      </trkpt>
      <trkpt lat="45.16951" lon="5.9378">
        <ele>2015.6780305877</ele>
        <time>2021-03-28T08:44:00Z</time>
      </trkpt>
      <trkpt lat="45.16945" lon="5.93789">
        <ele>2013.6777787954</ele>
        <time>2021-03-28T08:44:17Z</time>
      </trkpt>
      <trkpt lat="45.16937" lon="5.93796">
        <ele>2016.6774832495</ele>
        <time>2021-03-28T08:44:28Z</time>
      </trkpt>
      <trkpt lat="45.1693" lon="5.93803">
        <ele>2017.677214358</ele>
        <time>2021-03-28T08:44:41Z</time>
      </trkpt>
      <trkpt lat="45.16926" lon="5.93814">
        <ele>2017.6770205684</ele>
        <time>2021-03-28T08:44:58Z</time>
      </trkpt>
      <trkpt lat="45.16922" lon="5.93825">
        <ele>2021.6768774055</ele>
        <time>2021-03-28T08:45:16Z</time>
      </trkpt>
      <trkpt lat="45.16916" lon="5.93834">
        <ele>2019.6766566262</ele>
        <time>2021-03-28T08:45:26Z</time>
      </trkpt>
      <trkpt lat="45.16911" lon="5.93842">
        <ele>2022.6764522754</ele>
        <time>2021-03-28T08:45:39Z</time>
      </trkpt>
      <trkpt lat="45.16906" lon="5.93851">
        <ele>2023.6762211025</ele>
        <time>2021-03-28T08:45:51Z</time>
      </trkpt>
      <trkpt lat="45.16901" lon="5.93861">
        <ele>2022.6760452501</ele>
        <time>2021-03-28T08:46:09Z</time>
      </trkpt>
      <trkpt lat="45.16895" lon="5.93868">
        <ele>2023.6757830642</ele>
        <time>2021-03-28T08:46:22Z</time>
      </trkpt>
      <trkpt lat="45.16889" lon="5.93877">
        <ele>2028.6755592674</ele>
        <time>2021-03-28T08:46:34Z</time>
      </trkpt>
      <trkpt lat="45.16884" lon="5.93887">
        <ele>2031.6753544137</ele>
        <time>2021-03-28T08:46:46Z</time>
      </trkpt>
      <trkpt lat="45.16877" lon="5.93896">
        <ele>2032.6750887074</ele>
        <time>2021-03-28T08:46:59Z</time>
      </trkpt>
      <trkpt lat="45.1687" lon="5.93903">
        <ele>2034.6747953407</ele>
        <time>2021-03-28T08:47:12Z</time>
      </trkpt>
      <trkpt lat="45.16863" lon="5.9391">
        <ele>2034.6745090149</ele>
        <time>2021-03-28T08:47:25Z</time>
      </trkpt>
      <trkpt lat="45.16856" lon="5.93914">
        <ele>2034.6742426381</ele>
        <time>2021-03-28T08:47:39Z</time>
      </trkpt>
      <trkpt lat="45.16848" lon="5.93918">
        <ele>2032.6739041768</ele>
        <time>2021-03-28T08:47:48Z</time>
      </trkpt>
      <trkpt lat="45.16841" lon="5.93924">
        <ele>2033.673621539</ele>
        <time>2021-03-28T08:48:00Z</time>
      </trkpt>
      <trkpt lat="45.16832" lon="5.93926">
        <ele>2032.6732902862</ele>
        <time>2021-03-28T08:48:12Z</time>
      </trkpt>
      <trkpt lat="45.16824" lon="5.93926">
        <ele>2032.6729580276</ele>
        <time>2021-03-28T08:48:23Z</time>
      </trkpt>
      <trkpt lat="45.16816" lon="5.93925">
        <ele>2035.6726430357</ele>
        <time>2021-03-28T08:48:39Z</time>
      </trkpt>
      <trkpt lat="45.16808" lon="5.93923">
        <ele>2035.6723012216</ele>
        <time>2021-03-28T08:48:56Z</time>
      </trkpt>
      <trkpt lat="45.168" lon="5.9392">
        <ele>2036.671992097</ele>
        <time>2021-03-28T08:49:21Z</time>
      </trkpt>
      <trkpt lat="45.16791" lon="5.93916">
        <ele>2035.6716521271</ele>
        <time>2021-03-28T08:49:32Z</time>
      </trkpt>
      <trkpt lat="45.16783" lon="5.93913">
        <ele>2036.6713316031</ele>
        <time>2021-03-28T08:49:41Z</time>
      </trkpt>
      <trkpt lat="45.16775" lon="5.93914">
        <ele>2038.6709854305</ele>
        <time>2021-03-28T08:49:52Z</time>
      </trkpt>
      <trkpt lat="45.16767" lon="5.93916">
        <ele>2044.6706863642</ele>
        <time>2021-03-28T08:50:44Z</time>
      </trkpt>
      <trkpt lat="45.1676" lon="5.93922">
        <ele>2046.670386795</ele>
        <time>2021-03-28T08:51:55Z</time>
      </trkpt>
      <trkpt lat="45.16754" lon="5.9393">
        <ele>2048.6701457314</ele>
        <time>2021-03-28T08:52:04Z</time>
      </trkpt>
      <trkpt lat="45.1675" lon="5.93941">
        <ele>2048.6700012274</ele>
        <time>2021-03-28T08:52:13Z</time>
      </trkpt>
      <trkpt lat="45.16748" lon="5.93951">
        <ele>2046.6699229404</ele>
        <time>2021-03-28T08:52:23Z</time>
      </trkpt>
      <trkpt lat="45.16748" lon="5.93961">
        <ele>2046.6699046679</ele>
        <time>2021-03-28T08:52:31Z</time>
      </trkpt>
      <trkpt lat="45.16745" lon="5.93973">
        <ele>2045.6698010676</ele>
        <time>2021-03-28T08:52:40Z</time>
      </trkpt>
      <trkpt lat="45.16744" lon="5.93985">
        <ele>2045.6697618403</ele>
        <time>2021-03-28T08:52:54Z</time>
      </trkpt>
      <trkpt lat="45.16739" lon="5.93996">
        <ele>2045.6695772707</ele>
        <time>2021-03-28T08:53:03Z</time>
      </trkpt>
      <trkpt lat="45.16733" lon="5.94004">
        <ele>2046.6693266518</ele>
        <time>2021-03-28T08:53:12Z</time>
      </trkpt>
      <trkpt lat="45.16728" lon="5.94013">
        <ele>2045.6691177748</ele>
        <time>2021-03-28T08:53:22Z</time>
      </trkpt>
      <trkpt lat="45.16723" lon="5.94022">
        <ele>2046.6689156033</ele>
        <time>2021-03-28T08:53:37Z</time>
      </trkpt>
      <trkpt lat="45.16718" lon="5.94031">
        <ele>2046.6687094085</ele>
        <time>2021-03-28T08:53:49Z</time>
      </trkpt>
      <trkpt lat="45.16712" lon="5.9404">
        <ele>2048.6684611365</ele>
        <time>2021-03-28T08:54:02Z</time>
      </trkpt>
      <trkpt lat="45.16707" lon="5.94051">
        <ele>2049.6682958454</ele>
        <time>2021-03-28T08:54:12Z</time>
      </trkpt>
      <trkpt lat="45.16705" lon="5.94062">
        <ele>2050.6682108529</ele>
        <time>2021-03-28T08:54:25Z</time>
      </trkpt>
      <trkpt lat="45.167" lon="5.94071">
        <ele>2051.668007005</ele>
        <time>2021-03-28T08:54:36Z</time>
      </trkpt>
      <trkpt lat="45.16695" lon="5.94079">
        <ele>2052.6678110361</ele>
        <time>2021-03-28T08:54:45Z</time>
      </trkpt>
      <trkpt lat="45.16691" lon="5.94089">
        <ele>2053.6676234491</ele>
        <time>2021-03-28T08:54:55Z</time>
      </trkpt>
      <trkpt lat="45.16687" lon="5.941">
        <ele>2057.6674843095</ele>
        <time>2021-03-28T08:55:07Z</time>
      </trkpt>
      <trkpt lat="45.16681" lon="5.94109">
        <ele>2059.6672340259</ele>
        <time>2021-03-28T08:55:17Z</time>
      </trkpt>
      <trkpt lat="45.16675" lon="5.94117">
        <ele>2058.6669817306</ele>
        <time>2021-03-28T08:55:25Z</time>
      </trkpt>
      <trkpt lat="45.16668" lon="5.94124">
        <ele>2060.6667094864</ele>
        <time>2021-03-28T08:55:36Z</time>
      </trkpt>
      <trkpt lat="45.16662" lon="5.9413">
        <ele>2061.6664638966</ele>
        <time>2021-03-28T08:55:43Z</time>
      </trkpt>
      <trkpt lat="45.16654" lon="5.94136">
        <ele>2061.6661574543</ele>
        <time>2021-03-28T08:55:55Z</time>
      </trkpt>
      <trkpt lat="45.16646" lon="5.94138">
        <ele>2060.6658303924</ele>
        <time>2021-03-28T08:56:05Z</time>
      </trkpt>
      <trkpt lat="45.16637" lon="5.94139">
        <ele>2059.6654862314</ele>
        <time>2021-03-28T08:56:14Z</time>
      </trkpt>
      <trkpt lat="45.16628" lon="5.94139">
        <ele>2058.6651357003</ele>
        <time>2021-03-28T08:56:25Z</time>
      </trkpt>
      <trkpt lat="45.1662" lon="5.9414">
        <ele>2060.6647905335</ele>
        <time>2021-03-28T08:56:39Z</time>
      </trkpt>
      <trkpt lat="45.16611" lon="5.9414">
        <ele>2063.6644446962</ele>
        <time>2021-03-28T08:56:52Z</time>
      </trkpt>
      <trkpt lat="45.16603" lon="5.94143">
        <ele>2064.6641053967</ele>
        <time>2021-03-28T08:57:03Z</time>
      </trkpt>
      <trkpt lat="45.16595" lon="5.94145">
        <ele>2065.6637890637</ele>
        <time>2021-03-28T08:57:15Z</time>
      </trkpt>
      <trkpt lat="45.16587" lon="5.94146">
        <ele>2065.6634631753</ele>
        <time>2021-03-28T08:57:24Z</time>
      </trkpt>
      <trkpt lat="45.16578" lon="5.94149">
        <ele>2069.6631141528</ele>
        <time>2021-03-28T08:57:38Z</time>
      </trkpt>
      <trkpt lat="45.16573" lon="5.94159">
        <ele>2074.6629030965</ele>
        <time>2021-03-28T08:57:52Z</time>
      </trkpt>
      <trkpt lat="45.16568" lon="5.94169">
        <ele>2074.6627160124</ele>
        <time>2021-03-28T08:58:03Z</time>
      </trkpt>
      <trkpt lat="45.16566" lon="5.9418">
        <ele>2073.6626251526</ele>
        <time>2021-03-28T08:58:10Z</time>
      </trkpt>
      <trkpt lat="45.1656" lon="5.94187">
        <ele>2073.6623847596</ele>
        <time>2021-03-28T08:58:15Z</time>
      </trkpt>
      <trkpt lat="45.16554" lon="5.94195">
        <ele>2073.6621445343</ele>
        <time>2021-03-28T08:58:26Z</time>
      </trkpt>
      <trkpt lat="45.16549" lon="5.94206">
        <ele>2074.6619648263</ele>
        <time>2021-03-28T08:58:36Z</time>
      </trkpt>
      <trkpt lat="45.16543" lon="5.94214">
        <ele>2075.6617158838</ele>
        <time>2021-03-28T08:58:47Z</time>
      </trkpt>
      <trkpt lat="45.16537" lon="5.94224">
        <ele>2077.6614890695</ele>
        <time>2021-03-28T08:58:59Z</time>
      </trkpt>
      <trkpt lat="45.16535" lon="5.94236">
        <ele>2079.6613995507</ele>
        <time>2021-03-28T08:59:10Z</time>
      </trkpt>
      <trkpt lat="45.16533" lon="5.94247">
        <ele>2080.6613350101</ele>
        <time>2021-03-28T08:59:20Z</time>
      </trkpt>
      <trkpt lat="45.16526" lon="5.94253">
        <ele>2079.6610409729</ele>
        <time>2021-03-28T08:59:25Z</time>
      </trkpt>
      <trkpt lat="45.16517" lon="5.94251">
        <ele>2078.6606953032</ele>
        <time>2021-03-28T08:59:32Z</time>
      </trkpt>
      <trkpt lat="45.1651" lon="5.94252">
        <ele>2080.6603876874</ele>
        <time>2021-03-28T08:59:38Z</time>
      </trkpt>
      <trkpt lat="45.16503" lon="5.94256">
        <ele>2079.6601013616</ele>
        <time>2021-03-28T08:59:44Z</time>
      </trkpt>
      <trkpt lat="45.16494" lon="5.94258">
        <ele>2079.6597464718</ele>
        <time>2021-03-28T08:59:53Z</time>
      </trkpt>
      <trkpt lat="45.16487" lon="5.94264">
        <ele>2079.6594725512</ele>
        <time>2021-03-28T09:00:02Z</time>
      </trkpt>
      <trkpt lat="45.16481" lon="5.94268">
        <ele>2080.659235511</ele>
        <time>2021-03-28T09:00:10Z</time>
      </trkpt>
      <trkpt lat="45.16475" lon="5.94278">
        <ele>2080.6590167433</ele>
        <time>2021-03-28T09:00:19Z</time>
      </trkpt>
      <trkpt lat="45.16469" lon="5.94286">
        <ele>2081.6587592512</ele>
        <time>2021-03-28T09:00:32Z</time>
      </trkpt>
      <trkpt lat="45.16463" lon="5.94295">
        <ele>2082.6585165113</ele>
        <time>2021-03-28T09:00:43Z</time>
      </trkpt>
      <trkpt lat="45.16455" lon="5.943">
        <ele>2084.6582030281</ele>
        <time>2021-03-28T09:00:57Z</time>
      </trkpt>
      <trkpt lat="45.16448" lon="5.94306">
        <ele>2086.6579336338</ele>
        <time>2021-03-28T09:01:23Z</time>
      </trkpt>
      <trkpt lat="45.16441" lon="5.94312">
        <ele>2092.6576469727</ele>
        <time>2021-03-28T09:01:44Z</time>
      </trkpt>
      <trkpt lat="45.16441" lon="5.94323">
        <ele>2095.6576287001</ele>
        <time>2021-03-28T09:01:59Z</time>
      </trkpt>
      <trkpt lat="45.16432" lon="5.94326">
        <ele>2097.6572925858</ele>
        <time>2021-03-28T09:02:19Z</time>
      </trkpt>
      <trkpt lat="45.16426" lon="5.94319">
        <ele>2102.6570273824</ele>
        <time>2021-03-28T09:02:33Z</time>
      </trkpt>
      <trkpt lat="45.16421" lon="5.94308">
        <ele>2104.6568376161</ele>
        <time>2021-03-28T09:02:49Z</time>
      </trkpt>
      <trkpt lat="45.16417" lon="5.94297">
        <ele>2109.6566659547</ele>
        <time>2021-03-28T09:03:06Z</time>
      </trkpt>
      <trkpt lat="45.1641" lon="5.94305">
        <ele>2112.6564133242</ele>
        <time>2021-03-28T09:04:01Z</time>
      </trkpt>
      <trkpt lat="45.16407" lon="5.94327">
        <ele>2115.6562760286</ele>
        <time>2021-03-28T09:04:28Z</time>
      </trkpt>
      <trkpt lat="45.16408" lon="5.94337">
        <ele>2119.656316597</ele>
        <time>2021-03-28T09:04:51Z</time>
      </trkpt>
      <trkpt lat="45.16407" lon="5.9435">
        <ele>2118.65628374</ele>
        <time>2021-03-28T09:05:10Z</time>
      </trkpt>
      <trkpt lat="45.16405" lon="5.94362">
        <ele>2121.6561922096</ele>
        <time>2021-03-28T09:05:24Z</time>
      </trkpt>
      <trkpt lat="45.16404" lon="5.94373">
        <ele>2124.6561588496</ele>
        <time>2021-03-28T09:05:42Z</time>
      </trkpt>
      <trkpt lat="45.16403" lon="5.94385">
        <ele>2123.6561070494</ele>
        <time>2021-03-28T09:05:58Z</time>
      </trkpt>
      <trkpt lat="45.16403" lon="5.94397">
        <ele>2127.6561181135</ele>
        <time>2021-03-28T09:06:11Z</time>
      </trkpt>
      <trkpt lat="45.164" lon="5.94408">
        <ele>2127.6559876911</ele>
        <time>2021-03-28T09:06:21Z</time>
      </trkpt>
      <trkpt lat="45.16399" lon="5.9442">
        <ele>2129.6559573486</ele>
        <time>2021-03-28T09:06:35Z</time>
      </trkpt>
      <trkpt lat="45.16393" lon="5.94427">
        <ele>2137.6557174586</ele>
        <time>2021-03-28T09:07:04Z</time>
      </trkpt>
      <trkpt lat="45.16392" lon="5.9444">
        <ele>2139.6556938216</ele>
        <time>2021-03-28T09:07:16Z</time>
      </trkpt>
      <trkpt lat="45.16393" lon="5.94451">
        <ele>2140.6557139382</ele>
        <time>2021-03-28T09:07:35Z</time>
      </trkpt>
      <trkpt lat="45.16387" lon="5.9446">
        <ele>2142.655472707</ele>
        <time>2021-03-28T09:07:52Z</time>
      </trkpt>
      <trkpt lat="45.16378" lon="5.94461">
        <ele>2147.6551188231</ele>
        <time>2021-03-28T09:08:07Z</time>
      </trkpt>
      <trkpt lat="45.1638" lon="5.94473">
        <ele>2149.6551949307</ele>
        <time>2021-03-28T09:08:20Z</time>
      </trkpt>
      <trkpt lat="45.16379" lon="5.94485">
        <ele>2152.6551538594</ele>
        <time>2021-03-28T09:08:36Z</time>
      </trkpt>
      <trkpt lat="45.16379" lon="5.94496">
        <ele>2154.6551709585</ele>
        <time>2021-03-28T09:08:54Z</time>
      </trkpt>
      <trkpt lat="45.16375" lon="5.94507">
        <ele>2156.6549852155</ele>
        <time>2021-03-28T09:09:09Z</time>
      </trkpt>
      <trkpt lat="45.16374" lon="5.94519">
        <ele>2157.6549441442</ele>
        <time>2021-03-28T09:09:27Z</time>
      </trkpt>
      <trkpt lat="45.16365" lon="5.94522">
        <ele>2162.6545959599</ele>
        <time>2021-03-28T09:09:41Z</time>
      </trkpt>
      <trkpt lat="45.16358" lon="5.94531">
        <ele>2168.6543361209</ele>
        <time>2021-03-28T09:10:03Z</time>
      </trkpt>
      <trkpt lat="45.16352" lon="5.94535">
        <ele>2169.6540724263</ele>
        <time>2021-03-28T09:10:15Z</time>
      </trkpt>
      <trkpt lat="45.16346" lon="5.94544">
        <ele>2176.6538249925</ele>
        <time>2021-03-28T09:13:39Z</time>
      </trkpt>
      <trkpt lat="45.16341" lon="5.94536">
        <ele>2176.6536534987</ele>
        <time>2021-03-28T09:16:02Z</time>
      </trkpt>
      <trkpt lat="45.16339" lon="5.94534">
        <ele>2175.6535411812</ele>
        <time>2021-03-28T09:16:03Z</time>
      </trkpt>
      <trkpt lat="45.16334" lon="5.94529">
        <ele>2175.6533467211</ele>
        <time>2021-03-28T09:16:04Z</time>
      </trkpt>
      <trkpt lat="45.16325" lon="5.94525">
        <ele>2175.6530156359</ele>
        <time>2021-03-28T09:16:06Z</time>
      </trkpt>
      <trkpt lat="45.16321" lon="5.94531">
        <ele>2174.6528349221</ele>
        <time>2021-03-28T09:16:09Z</time>
      </trkpt>
      <trkpt lat="45.16318" lon="5.94537">
        <ele>2174.652735848</ele>
        <time>2021-03-28T09:16:10Z</time>
      </trkpt>
      <trkpt lat="45.16313" lon="5.94537">
        <ele>2174.6524993107</ele>
        <time>2021-03-28T09:16:11Z</time>
      </trkpt>
      <trkpt lat="45.16306" lon="5.94535">
        <ele>2174.6522545591</ele>
        <time>2021-03-28T09:16:12Z</time>
      </trkpt>
      <trkpt lat="45.16302" lon="5.94531">
        <ele>2174.6520897709</ele>
        <time>2021-03-28T09:16:13Z</time>
      </trkpt>
      <trkpt lat="45.16295" lon="5.94537">
        <ele>2173.6517970748</ele>
        <time>2021-03-28T09:16:15Z</time>
      </trkpt>
      <trkpt lat="45.16297" lon="5.94545">
        <ele>2173.6518637948</ele>
        <time>2021-03-28T09:16:16Z</time>
      </trkpt>
      <trkpt lat="45.16295" lon="5.94551">
        <ele>2173.6518073007</ele>
        <time>2021-03-28T09:16:17Z</time>
      </trkpt>
      <trkpt lat="45.16288" lon="5.94555">
        <ele>2172.6515130959</ele>
        <time>2021-03-28T09:16:19Z</time>
      </trkpt>
      <trkpt lat="45.16287" lon="5.94573">
        <ele>2171.6514688395</ele>
        <time>2021-03-28T09:16:21Z</time>
      </trkpt>
      <trkpt lat="45.16285" lon="5.94585">
        <ele>2171.6513982639</ele>
        <time>2021-03-28T09:16:23Z</time>
      </trkpt>
      <trkpt lat="45.16284" lon="5.94596">
        <ele>2171.6513746269</ele>
        <time>2021-03-28T09:16:26Z</time>
      </trkpt>
      <trkpt lat="45.1628" lon="5.94598">
        <ele>2169.6511845253</ele>
        <time>2021-03-28T09:16:28Z</time>
      </trkpt>
      <trkpt lat="45.16275" lon="5.94598">
        <ele>2169.6509940885</ele>
        <time>2021-03-28T09:16:29Z</time>
      </trkpt>
      <trkpt lat="45.16262" lon="5.94599">
        <ele>2167.6504764222</ele>
        <time>2021-03-28T09:16:31Z</time>
      </trkpt>
      <trkpt lat="45.16256" lon="5.9459">
        <ele>2160.6502336822</ele>
        <time>2021-03-28T09:16:33Z</time>
      </trkpt>
      <trkpt lat="45.16251" lon="5.94584">
        <ele>2158.6500551477</ele>
        <time>2021-03-28T09:16:35Z</time>
      </trkpt>
      <trkpt lat="45.16244" lon="5.94579">
        <ele>2155.6497673132</ele>
        <time>2021-03-28T09:16:38Z</time>
      </trkpt>
      <trkpt lat="45.16237" lon="5.94579">
        <ele>2153.6494967453</ele>
        <time>2021-03-28T09:16:41Z</time>
      </trkpt>
      <trkpt lat="45.16232" lon="5.9458">
        <ele>2152.6492608786</ele>
        <time>2021-03-28T09:16:44Z</time>
      </trkpt>
      <trkpt lat="45.16228" lon="5.94581">
        <ele>2152.6491143629</ele>
        <time>2021-03-28T09:16:45Z</time>
      </trkpt>
      <trkpt lat="45.16219" lon="5.94583">
        <ele>2151.6487680227</ele>
        <time>2021-03-28T09:16:46Z</time>
      </trkpt>
      <trkpt lat="45.16208" lon="5.94582">
        <ele>2150.6483170763</ele>
        <time>2021-03-28T09:16:48Z</time>
      </trkpt>
      <trkpt lat="45.16201" lon="5.9458">
        <ele>2149.6480540521</ele>
        <time>2021-03-28T09:16:49Z</time>
      </trkpt>
      <trkpt lat="45.16195" lon="5.94581">
        <ele>2149.6478134915</ele>
        <time>2021-03-28T09:16:50Z</time>
      </trkpt>
      <trkpt lat="45.16191" lon="5.94581">
        <ele>2149.6476279162</ele>
        <time>2021-03-28T09:16:51Z</time>
      </trkpt>
      <trkpt lat="45.16186" lon="5.94581">
        <ele>2149.6474282593</ele>
        <time>2021-03-28T09:16:53Z</time>
      </trkpt>
      <trkpt lat="45.16177" lon="5.94583">
        <ele>2148.647083763</ele>
        <time>2021-03-28T09:16:55Z</time>
      </trkpt>
      <trkpt lat="45.16168" lon="5.94589">
        <ele>2146.646716468</ele>
        <time>2021-03-28T09:16:56Z</time>
      </trkpt>
      <trkpt lat="45.16163" lon="5.94592">
        <ele>2146.6465302221</ele>
        <time>2021-03-28T09:16:58Z</time>
      </trkpt>
      <trkpt lat="45.16157" lon="5.94594">
        <ele>2146.6462896615</ele>
        <time>2021-03-28T09:16:59Z</time>
      </trkpt>
      <trkpt lat="45.16152" lon="5.94596">
        <ele>2146.6460921839</ele>
        <time>2021-03-28T09:17:00Z</time>
      </trkpt>
      <trkpt lat="45.16145" lon="5.94597">
        <ele>2144.6457783654</ele>
        <time>2021-03-28T09:17:01Z</time>
      </trkpt>
      <trkpt lat="45.16136" lon="5.94596">
        <ele>2143.6454553269</ele>
        <time>2021-03-28T09:17:03Z</time>
      </trkpt>
      <trkpt lat="45.16127" lon="5.94592">
        <ele>2143.6450660713</ele>
        <time>2021-03-28T09:17:05Z</time>
      </trkpt>
      <trkpt lat="45.16121" lon="5.9459">
        <ele>2143.6448348984</ele>
        <time>2021-03-28T09:17:06Z</time>
      </trkpt>
      <trkpt lat="45.16115" lon="5.94588">
        <ele>2143.6445914879</ele>
        <time>2021-03-28T09:17:07Z</time>
      </trkpt>
      <trkpt lat="45.1611" lon="5.94585">
        <ele>2142.6443961896</ele>
        <time>2021-03-28T09:17:09Z</time>
      </trkpt>
      <trkpt lat="45.16107" lon="5.94583">
        <ele>2142.6442597322</ele>
        <time>2021-03-28T09:17:10Z</time>
      </trkpt>
      <trkpt lat="45.16099" lon="5.9458">
        <ele>2141.6439775974</ele>
        <time>2021-03-28T09:17:11Z</time>
      </trkpt>
      <trkpt lat="45.16091" lon="5.94578">
        <ele>2141.6436376274</ele>
        <time>2021-03-28T09:17:14Z</time>
      </trkpt>
      <trkpt lat="45.16083" lon="5.94576">
        <ele>2141.643329341</ele>
        <time>2021-03-28T09:17:17Z</time>
      </trkpt>
      <trkpt lat="45.16075" lon="5.94575">
        <ele>2140.6429920532</ele>
        <time>2021-03-28T09:17:20Z</time>
      </trkpt>
      <trkpt lat="45.16071" lon="5.94574">
        <ele>2140.642840676</ele>
        <time>2021-03-28T09:17:21Z</time>
      </trkpt>
      <trkpt lat="45.16066" lon="5.94575">
        <ele>2139.6426323019</ele>
        <time>2021-03-28T09:17:22Z</time>
      </trkpt>
      <trkpt lat="45.16058" lon="5.94576">
        <ele>2138.6423040666</ele>
        <time>2021-03-28T09:17:25Z</time>
      </trkpt>
      <trkpt lat="45.16049" lon="5.94578">
        <ele>2138.6419629231</ele>
        <time>2021-03-28T09:17:27Z</time>
      </trkpt>
      <trkpt lat="45.16044" lon="5.9458">
        <ele>2138.6417744979</ele>
        <time>2021-03-28T09:17:28Z</time>
      </trkpt>
      <trkpt lat="45.16035" lon="5.94582">
        <ele>2137.6413855776</ele>
        <time>2021-03-28T09:17:29Z</time>
      </trkpt>
      <trkpt lat="45.1603" lon="5.94584">
        <ele>2137.6411926262</ele>
        <time>2021-03-28T09:17:31Z</time>
      </trkpt>
      <trkpt lat="45.16025" lon="5.94585">
        <ele>2136.6409857608</ele>
        <time>2021-03-28T09:17:31Z</time>
      </trkpt>
      <trkpt lat="45.16016" lon="5.94586">
        <ele>2135.6406273507</ele>
        <time>2021-03-28T09:17:33Z</time>
      </trkpt>
      <trkpt lat="45.16009" lon="5.94584">
        <ele>2134.6403425336</ele>
        <time>2021-03-28T09:17:36Z</time>
      </trkpt>
      <trkpt lat="45.16" lon="5.94582">
        <ele>2134.6399946846</ele>
        <time>2021-03-28T09:17:38Z</time>
      </trkpt>
      <trkpt lat="45.15991" lon="5.94583">
        <ele>2133.639646668</ele>
        <time>2021-03-28T09:17:39Z</time>
      </trkpt>
      <trkpt lat="45.15985" lon="5.94584">
        <ele>2132.6393973902</ele>
        <time>2021-03-28T09:17:41Z</time>
      </trkpt>
      <trkpt lat="45.15979" lon="5.94585">
        <ele>2132.6391489506</ele>
        <time>2021-03-28T09:17:43Z</time>
      </trkpt>
      <trkpt lat="45.15972" lon="5.94586">
        <ele>2131.6388894469</ele>
        <time>2021-03-28T09:17:46Z</time>
      </trkpt>
      <trkpt lat="45.15965" lon="5.94587">
        <ele>2131.6385823339</ele>
        <time>2021-03-28T09:17:49Z</time>
      </trkpt>
      <trkpt lat="45.15962" lon="5.94587">
        <ele>2130.6384591199</ele>
        <time>2021-03-28T09:17:50Z</time>
      </trkpt>
      <trkpt lat="45.15956" lon="5.94579">
        <ele>2129.6382546015</ele>
        <time>2021-03-28T09:17:51Z</time>
      </trkpt>
      <trkpt lat="45.15954" lon="5.94569">
        <ele>2128.6381577067</ele>
        <time>2021-03-28T09:17:53Z</time>
      </trkpt>
      <trkpt lat="45.15947" lon="5.94564">
        <ele>2127.6378636695</ele>
        <time>2021-03-28T09:17:54Z</time>
      </trkpt>
      <trkpt lat="45.15932" lon="5.94563">
        <ele>2126.6372638606</ele>
        <time>2021-03-28T09:17:55Z</time>
      </trkpt>
      <trkpt lat="45.15921" lon="5.9456">
        <ele>2125.6368216313</ele>
        <time>2021-03-28T09:17:58Z</time>
      </trkpt>
      <trkpt lat="45.15913" lon="5.94557">
        <ele>2124.6365131773</ele>
        <time>2021-03-28T09:18:00Z</time>
      </trkpt>
      <trkpt lat="45.15907" lon="5.94553">
        <ele>2121.636265073</ele>
        <time>2021-03-28T09:18:01Z</time>
      </trkpt>
      <trkpt lat="45.15901" lon="5.94552">
        <ele>2120.6360276975</ele>
        <time>2021-03-28T09:18:04Z</time>
      </trkpt>
      <trkpt lat="45.15893" lon="5.94548">
        <ele>2119.6357011385</ele>
        <time>2021-03-28T09:18:06Z</time>
      </trkpt>
      <trkpt lat="45.15893" lon="5.94538">
        <ele>2119.6357053295</ele>
        <time>2021-03-28T09:18:08Z</time>
      </trkpt>
      <trkpt lat="45.15885" lon="5.94531">
        <ele>2118.6354074366</ele>
        <time>2021-03-28T09:18:10Z</time>
      </trkpt>
      <trkpt lat="45.15885" lon="5.94524">
        <ele>2118.6354037486</ele>
        <time>2021-03-28T09:18:11Z</time>
      </trkpt>
      <trkpt lat="45.15882" lon="5.94516">
        <ele>2118.6352589093</ele>
        <time>2021-03-28T09:18:12Z</time>
      </trkpt>
      <trkpt lat="45.15876" lon="5.94513">
        <ele>2116.6350518763</ele>
        <time>2021-03-28T09:18:13Z</time>
      </trkpt>
      <trkpt lat="45.15868" lon="5.94515">
        <ele>2114.6347221322</ele>
        <time>2021-03-28T09:18:15Z</time>
      </trkpt>
      <trkpt lat="45.15865" lon="5.94526">
        <ele>2108.6345948949</ele>
        <time>2021-03-28T09:21:14Z</time>
      </trkpt>
      <trkpt lat="45.15857" lon="5.94526">
        <ele>2110.6342708506</ele>
        <time>2021-03-28T09:26:51Z</time>
      </trkpt>
      <trkpt lat="45.15848" lon="5.94526">
        <ele>2112.6339136139</ele>
        <time>2021-03-28T09:27:07Z</time>
      </trkpt>
      <trkpt lat="45.1584" lon="5.9453">
        <ele>2117.6336026452</ele>
        <time>2021-03-28T09:27:29Z</time>
      </trkpt>
      <trkpt lat="45.15834" lon="5.94537">
        <ele>2119.6333434768</ele>
        <time>2021-03-28T09:27:49Z</time>
      </trkpt>
      <trkpt lat="45.15825" lon="5.94538">
        <ele>2122.63299831</ele>
        <time>2021-03-28T09:28:05Z</time>
      </trkpt>
      <trkpt lat="45.15818" lon="5.94542">
        <ele>2126.6327015907</ele>
        <time>2021-03-28T09:28:24Z</time>
      </trkpt>
      <trkpt lat="45.1581" lon="5.94548">
        <ele>2128.6323939748</ele>
        <time>2021-03-28T09:28:38Z</time>
      </trkpt>
      <trkpt lat="45.15804" lon="5.94556">
        <ele>2129.6321441941</ele>
        <time>2021-03-28T09:28:56Z</time>
      </trkpt>
      <trkpt lat="45.15798" lon="5.94562">
        <ele>2131.6319141947</ele>
        <time>2021-03-28T09:29:12Z</time>
      </trkpt>
      <trkpt lat="45.1579" lon="5.94568">
        <ele>2131.6316080876</ele>
        <time>2021-03-28T09:29:22Z</time>
      </trkpt>
      <trkpt lat="45.15783" lon="5.94575">
        <ele>2134.6313252822</ele>
        <time>2021-03-28T09:29:36Z</time>
      </trkpt>
      <trkpt lat="45.15777" lon="5.94583">
        <ele>2134.6310852244</ele>
        <time>2021-03-28T09:29:49Z</time>
      </trkpt>
      <trkpt lat="45.15774" lon="5.94595">
        <ele>2131.6309546344</ele>
        <time>2021-03-28T09:30:06Z</time>
      </trkpt>
      <trkpt lat="45.15771" lon="5.94606">
        <ele>2131.6308476813</ele>
        <time>2021-03-28T09:30:19Z</time>
      </trkpt>
      <trkpt lat="45.15769" lon="5.94618">
        <ele>2132.6307470985</ele>
        <time>2021-03-28T09:30:34Z</time>
      </trkpt>
      <trkpt lat="45.15765" lon="5.94629">
        <ele>2133.6306079589</ele>
        <time>2021-03-28T09:30:44Z</time>
      </trkpt>
      <trkpt lat="45.15763" lon="5.94641">
        <ele>2135.6305159256</ele>
        <time>2021-03-28T09:30:54Z</time>
      </trkpt>
      <trkpt lat="45.15757" lon="5.9465">
        <ele>2137.6302854232</ele>
        <time>2021-03-28T09:31:08Z</time>
      </trkpt>
      <trkpt lat="45.15749" lon="5.94654">
        <ele>2143.6299472973</ele>
        <time>2021-03-28T09:31:26Z</time>
      </trkpt>
      <trkpt lat="45.15742" lon="5.94659">
        <ele>2148.6296681799</ele>
        <time>2021-03-28T09:31:46Z</time>
      </trkpt>
      <trkpt lat="45.15735" lon="5.94667">
        <ele>2152.6293843687</ele>
        <time>2021-03-28T09:32:01Z</time>
      </trkpt>
      <trkpt lat="45.15727" lon="5.94674">
        <ele>2153.6290916726</ele>
        <time>2021-03-28T09:32:14Z</time>
      </trkpt>
      <trkpt lat="45.1572" lon="5.9468">
        <ele>2156.6288046762</ele>
        <time>2021-03-28T09:32:34Z</time>
      </trkpt>
      <trkpt lat="45.15713" lon="5.94677">
        <ele>2159.6285228767</ele>
        <time>2021-03-28T09:32:45Z</time>
      </trkpt>
      <trkpt lat="45.15704" lon="5.94676">
        <ele>2161.6281706691</ele>
        <time>2021-03-28T09:32:56Z</time>
      </trkpt>
      <trkpt lat="45.15695" lon="5.94677">
        <ele>2164.6278147735</ele>
        <time>2021-03-28T09:33:10Z</time>
      </trkpt>
      <trkpt lat="45.15687" lon="5.94677">
        <ele>2165.6274816766</ele>
        <time>2021-03-28T09:33:21Z</time>
      </trkpt>
      <trkpt lat="45.15679" lon="5.94678">
        <ele>2166.6271571293</ele>
        <time>2021-03-28T09:33:37Z</time>
      </trkpt>
      <trkpt lat="45.15671" lon="5.94682">
        <ele>2170.6268439814</ele>
        <time>2021-03-28T09:33:54Z</time>
      </trkpt>
      <trkpt lat="45.15664" lon="5.94685">
        <ele>2171.6265418977</ele>
        <time>2021-03-28T09:34:04Z</time>
      </trkpt>
      <trkpt lat="45.15655" lon="5.94688">
        <ele>2173.626207795</ele>
        <time>2021-03-28T09:34:14Z</time>
      </trkpt>
      <trkpt lat="45.15647" lon="5.94693">
        <ele>2173.6258753687</ele>
        <time>2021-03-28T09:34:34Z</time>
      </trkpt>
      <trkpt lat="45.15638" lon="5.94692">
        <ele>2177.6255379133</ele>
        <time>2021-03-28T09:34:47Z</time>
      </trkpt>
      <trkpt lat="45.1563" lon="5.94691">
        <ele>2178.6252147071</ele>
        <time>2021-03-28T09:35:02Z</time>
      </trkpt>
      <trkpt lat="45.15622" lon="5.94691">
        <ele>2177.6248596497</ele>
        <time>2021-03-28T09:35:18Z</time>
      </trkpt>
      <trkpt lat="45.15613" lon="5.94694">
        <ele>2177.6245220266</ele>
        <time>2021-03-28T09:35:35Z</time>
      </trkpt>
      <trkpt lat="45.15605" lon="5.94692">
        <ele>2177.6241815537</ele>
        <time>2021-03-28T09:35:50Z</time>
      </trkpt>
      <trkpt lat="45.15596" lon="5.94691">
        <ele>2179.623838231</ele>
        <time>2021-03-28T09:36:05Z</time>
      </trkpt>
      <trkpt lat="45.15587" lon="5.94692">
        <ele>2180.6234910525</ele>
        <time>2021-03-28T09:36:32Z</time>
      </trkpt>
      <trkpt lat="45.1559" lon="5.94699">
        <ele>2183.6235854328</ele>
        <time>2021-03-28T09:37:21Z</time>
      </trkpt>
      <trkpt lat="45.15582" lon="5.94693">
        <ele>2182.6232846901</ele>
        <time>2021-03-28T09:37:59Z</time>
      </trkpt>
      <trkpt lat="45.15574" lon="5.94698">
        <ele>2184.6229673512</ele>
        <time>2021-03-28T09:38:53Z</time>
      </trkpt>
      <trkpt lat="45.15579" lon="5.94708">
        <ele>2188.6231752224</ele>
        <time>2021-03-28T09:39:47Z</time>
      </trkpt>
      <trkpt lat="45.15577" lon="5.9472">
        <ele>2192.6230681017</ele>
        <time>2021-03-28T09:40:23Z</time>
      </trkpt>
      <trkpt lat="45.15569" lon="5.94724">
        <ele>2194.6227477454</ele>
        <time>2021-03-28T09:40:35Z</time>
      </trkpt>
      <trkpt lat="45.1556" lon="5.94727">
        <ele>2195.6224034168</ele>
        <time>2021-03-28T09:41:05Z</time>
      </trkpt>
      <trkpt lat="45.15552" lon="5.94725">
        <ele>2196.6220805459</ele>
        <time>2021-03-28T09:41:20Z</time>
      </trkpt>
      <trkpt lat="45.15545" lon="5.9473">
        <ele>2200.6217935495</ele>
        <time>2021-03-28T09:41:37Z</time>
      </trkpt>
      <trkpt lat="45.15537" lon="5.94734">
        <ele>2201.621460285</ele>
        <time>2021-03-28T09:41:56Z</time>
      </trkpt>
      <trkpt lat="45.15528" lon="5.94738">
        <ele>2203.6211271882</ele>
        <time>2021-03-28T09:42:12Z</time>
      </trkpt>
      <trkpt lat="45.15523" lon="5.94746">
        <ele>2206.6209191494</ele>
        <time>2021-03-28T09:42:28Z</time>
      </trkpt>
      <trkpt lat="45.15528" lon="5.94757">
        <ele>2206.6211037189</ele>
        <time>2021-03-28T09:42:56Z</time>
      </trkpt>
      <trkpt lat="45.15534" lon="5.94764">
        <ele>2206.6213675812</ele>
        <time>2021-03-28T09:43:17Z</time>
      </trkpt>
      <trkpt lat="45.15541" lon="5.94772">
        <ele>2208.6216309406</ele>
        <time>2021-03-28T09:43:35Z</time>
      </trkpt>
      <trkpt lat="45.15548" lon="5.94779">
        <ele>2213.6219254807</ele>
        <time>2021-03-28T09:44:00Z</time>
      </trkpt>
      <trkpt lat="45.1554" lon="5.9478">
        <ele>2219.6216076389</ele>
        <time>2021-03-28T09:44:43Z</time>
      </trkpt>
      <trkpt lat="45.15531" lon="5.94778">
        <ele>2221.6212539226</ele>
        <time>2021-03-28T09:44:55Z</time>
      </trkpt>
      <trkpt lat="45.15524" lon="5.94781">
        <ele>2223.6209437922</ele>
        <time>2021-03-28T09:45:09Z</time>
      </trkpt>
      <trkpt lat="45.15523" lon="5.94792">
        <ele>2224.6209288724</ele>
        <time>2021-03-28T09:45:30Z</time>
      </trkpt>
      <trkpt lat="45.15528" lon="5.94802">
        <ele>2223.6211178005</ele>
        <time>2021-03-28T09:45:44Z</time>
      </trkpt>
      <trkpt lat="45.15535" lon="5.9481">
        <ele>2222.6214042939</ele>
        <time>2021-03-28T09:46:01Z</time>
      </trkpt>
      <trkpt lat="45.15543" lon="5.94816">
        <ele>2223.6217119098</ele>
        <time>2021-03-28T09:46:16Z</time>
      </trkpt>
      <trkpt lat="45.15551" lon="5.94822">
        <ele>2225.622027237</ele>
        <time>2021-03-28T09:46:31Z</time>
      </trkpt>
      <trkpt lat="45.15559" lon="5.94826">
        <ele>2227.6223578192</ele>
        <time>2021-03-28T09:46:45Z</time>
      </trkpt>
      <trkpt lat="45.15559" lon="5.94839">
        <ele>2233.6223678775</ele>
        <time>2021-03-28T09:47:24Z</time>
      </trkpt>
      <trkpt lat="45.15568" lon="5.9484">
        <ele>2236.6227225997</ele>
        <time>2021-03-28T09:47:42Z</time>
      </trkpt>
      <trkpt lat="45.15576" lon="5.94845">
        <ele>2235.6230449677</ele>
        <time>2021-03-28T09:48:24Z</time>
      </trkpt>
      <trkpt lat="45.15572" lon="5.94855">
        <ele>2236.6228979491</ele>
        <time>2021-03-28T09:48:45Z</time>
      </trkpt>
      <trkpt lat="45.15567" lon="5.94864">
        <ele>2239.6226672791</ele>
        <time>2021-03-28T09:49:02Z</time>
      </trkpt>
      <trkpt lat="45.15558" lon="5.94867">
        <ele>2244.6223214418</ele>
        <time>2021-03-28T09:49:21Z</time>
      </trkpt>
      <trkpt lat="45.15549" lon="5.94866">
        <ele>2247.6219772808</ele>
        <time>2021-03-28T09:49:35Z</time>
      </trkpt>
      <trkpt lat="45.15541" lon="5.94866">
        <ele>2250.621634461</ele>
        <time>2021-03-28T09:49:53Z</time>
      </trkpt>
      <trkpt lat="45.15533" lon="5.94865">
        <ele>2255.6213203073</ele>
        <time>2021-03-28T09:50:12Z</time>
      </trkpt>
      <trkpt lat="45.15526" lon="5.94861">
        <ele>2255.621048063</ele>
        <time>2021-03-28T09:50:22Z</time>
      </trkpt>
      <trkpt lat="45.15517" lon="5.9486">
        <ele>2258.6206923351</ele>
        <time>2021-03-28T09:50:39Z</time>
      </trkpt>
      <trkpt lat="45.15509" lon="5.9486">
        <ele>2261.6203587353</ele>
        <time>2021-03-28T09:50:54Z</time>
      </trkpt>
      <trkpt lat="45.155" lon="5.94863">
        <ele>2264.6200123951</ele>
        <time>2021-03-28T09:51:10Z</time>
      </trkpt>
      <trkpt lat="45.15497" lon="5.94874">
        <ele>2265.6198819727</ele>
        <time>2021-03-28T09:51:33Z</time>
      </trkpt>
      <trkpt lat="45.15503" lon="5.94882">
        <ele>2268.6201374531</ele>
        <time>2021-03-28T09:51:51Z</time>
      </trkpt>
      <trkpt lat="45.15497" lon="5.94887">
        <ele>2271.6198901869</ele>
        <time>2021-03-28T09:52:34Z</time>
      </trkpt>
      <trkpt lat="45.15488" lon="5.94886">
        <ele>2275.6195374765</ele>
        <time>2021-03-28T09:52:47Z</time>
      </trkpt>
      <trkpt lat="45.1548" lon="5.94887">
        <ele>2277.6191943213</ele>
        <time>2021-03-28T09:53:00Z</time>
      </trkpt>
      <trkpt lat="45.15473" lon="5.94895">
        <ele>2277.618911013</ele>
        <time>2021-03-28T09:53:14Z</time>
      </trkpt>
      <trkpt lat="45.15465" lon="5.94899">
        <ele>2279.6185785867</ele>
        <time>2021-03-28T09:53:43Z</time>
      </trkpt>
      <trkpt lat="45.15458" lon="5.94905">
        <ele>2286.6183133833</ele>
        <time>2021-03-28T09:54:28Z</time>
      </trkpt>
      <trkpt lat="45.15449" lon="5.94906">
        <ele>2287.6179571524</ele>
        <time>2021-03-28T09:54:41Z</time>
      </trkpt>
      <trkpt lat="45.1544" lon="5.94905">
        <ele>2287.6176158413</ele>
        <time>2021-03-28T09:54:54Z</time>
      </trkpt>
      <trkpt lat="45.15432" lon="5.9491">
        <ele>2292.6172899529</ele>
        <time>2021-03-28T09:55:13Z</time>
      </trkpt>
      <trkpt lat="45.15425" lon="5.94909">
        <ele>2292.6169883721</ele>
        <time>2021-03-28T09:55:26Z</time>
      </trkpt>
      <trkpt lat="45.15416" lon="5.94911">
        <ele>2295.6166430376</ele>
        <time>2021-03-28T09:55:42Z</time>
      </trkpt>
      <trkpt lat="45.15414" lon="5.94921">
        <ele>2294.6165717915</ele>
        <time>2021-03-28T09:56:22Z</time>
      </trkpt>
      <trkpt lat="45.15415" lon="5.94931">
        <ele>2294.6166147068</ele>
        <time>2021-03-28T09:56:33Z</time>
      </trkpt>
      <trkpt lat="45.15419" lon="5.94943">
        <ele>2296.616775807</ele>
        <time>2021-03-28T09:56:49Z</time>
      </trkpt>
      <trkpt lat="45.15423" lon="5.94953">
        <ele>2295.616908744</ele>
        <time>2021-03-28T09:57:04Z</time>
      </trkpt>
      <trkpt lat="45.15428" lon="5.94963">
        <ele>2298.6171342172</ele>
        <time>2021-03-28T09:57:19Z</time>
      </trkpt>
      <trkpt lat="45.15436" lon="5.9497">
        <ele>2301.6174279191</ele>
        <time>2021-03-28T09:57:37Z</time>
      </trkpt>
      <trkpt lat="45.1544" lon="5.94981">
        <ele>2302.6175911985</ele>
        <time>2021-03-28T09:57:51Z</time>
      </trkpt>
      <trkpt lat="45.15445" lon="5.94991">
        <ele>2302.6177802943</ele>
        <time>2021-03-28T09:58:11Z</time>
      </trkpt>
      <trkpt lat="45.15438" lon="5.95">
        <ele>2312.6175306812</ele>
        <time>2021-03-28T09:58:36Z</time>
      </trkpt>
      <trkpt lat="45.1543" lon="5.95001">
        <ele>2317.617181994</ele>
        <time>2021-03-28T09:58:51Z</time>
      </trkpt>
      <trkpt lat="45.15425" lon="5.95011">
        <ele>2320.616980996</ele>
        <time>2021-03-28T09:59:22Z</time>
      </trkpt>
      <trkpt lat="45.15429" lon="5.95021">
        <ele>2319.6171410903</ele>
        <time>2021-03-28T09:59:37Z</time>
      </trkpt>
      <trkpt lat="45.15436" lon="5.95027">
        <ele>2321.6174406596</ele>
        <time>2021-03-28T09:59:52Z</time>
      </trkpt>
      <trkpt lat="45.15445" lon="5.9503">
        <ele>2321.6177883409</ele>
        <time>2021-03-28T10:00:05Z</time>
      </trkpt>
      <trkpt lat="45.15454" lon="5.95032">
        <ele>2318.6181407161</ele>
        <time>2021-03-28T10:03:33Z</time>
      </trkpt>
      <trkpt lat="45.15462" lon="5.95036">
        <ele>2317.6184711307</ele>
        <time>2021-03-28T10:03:36Z</time>
      </trkpt>
      <trkpt lat="45.15469" lon="5.95042">
        <ele>2318.6187752262</ele>
        <time>2021-03-28T10:04:03Z</time>
      </trkpt>
      <trkpt lat="45.15476" lon="5.95045">
        <ele>2316.619040262</ele>
        <time>2021-03-28T10:04:37Z</time>
      </trkpt>
      <trkpt lat="45.15484" lon="5.95048">
        <ele>2315.6193726882</ele>
        <time>2021-03-28T10:04:50Z</time>
      </trkpt>
      <trkpt lat="45.15492" lon="5.95053">
        <ele>2316.6196704134</ele>
        <time>2021-03-28T10:05:05Z</time>
      </trkpt>
      <trkpt lat="45.15497" lon="5.95063">
        <ele>2314.6198843196</ele>
        <time>2021-03-28T10:05:17Z</time>
      </trkpt>
      <trkpt lat="45.15503" lon="5.95069">
        <ele>2313.6201292388</ele>
        <time>2021-03-28T10:05:30Z</time>
      </trkpt>
      <trkpt lat="45.1551" lon="5.95076">
        <ele>2314.6203822047</ele>
        <time>2021-03-28T10:05:45Z</time>
      </trkpt>
      <trkpt lat="45.15516" lon="5.95082">
        <ele>2316.6206445582</ele>
        <time>2021-03-28T10:05:57Z</time>
      </trkpt>
      <trkpt lat="45.15522" lon="5.95087">
        <ele>2319.6208923273</ele>
        <time>2021-03-28T10:06:10Z</time>
      </trkpt>
      <trkpt lat="45.15527" lon="5.95093">
        <ele>2320.6210847758</ele>
        <time>2021-03-28T10:06:22Z</time>
      </trkpt>
      <trkpt lat="45.15534" lon="5.951">
        <ele>2321.6213734485</ele>
        <time>2021-03-28T10:06:34Z</time>
      </trkpt>
      <trkpt lat="45.15543" lon="5.95104">
        <ele>2322.6217110716</ele>
        <time>2021-03-28T10:06:49Z</time>
      </trkpt>
      <trkpt lat="45.1555" lon="5.95111">
        <ele>2324.6219816394</ele>
        <time>2021-03-28T10:07:10Z</time>
      </trkpt>
      <trkpt lat="45.15558" lon="5.95113">
        <ele>2327.6223028339</ele>
        <time>2021-03-28T10:07:25Z</time>
      </trkpt>
      <trkpt lat="45.15565" lon="5.95119">
        <ele>2331.6226003915</ele>
        <time>2021-03-28T10:07:42Z</time>
      </trkpt>
      <trkpt lat="45.15572" lon="5.95123">
        <ele>2336.6228904054</ele>
        <time>2021-03-28T10:08:02Z</time>
      </trkpt>
      <trkpt lat="45.1558" lon="5.95126">
        <ele>2339.6231834367</ele>
        <time>2021-03-28T10:08:18Z</time>
      </trkpt>
      <trkpt lat="45.15587" lon="5.9513">
        <ele>2342.6234962493</ele>
        <time>2021-03-28T10:08:37Z</time>
      </trkpt>
      <trkpt lat="45.15596" lon="5.95133">
        <ele>2347.6238407455</ele>
        <time>2021-03-28T10:09:01Z</time>
      </trkpt>
      <trkpt lat="45.15604" lon="5.95135">
        <ele>2349.6241540611</ele>
        <time>2021-03-28T10:09:15Z</time>
      </trkpt>
      <trkpt lat="45.15602" lon="5.95148">
        <ele>2355.6240690686</ele>
        <time>2021-03-28T10:09:40Z</time>
      </trkpt>
      <trkpt lat="45.15598" lon="5.95156">
        <ele>2357.6238985807</ele>
        <time>2021-03-28T10:09:53Z</time>
      </trkpt>
      <trkpt lat="45.15605" lon="5.95162">
        <ele>2363.6242167577</ele>
        <time>2021-03-28T10:10:25Z</time>
      </trkpt>
      <trkpt lat="45.15613" lon="5.95167">
        <ele>2366.6245087832</ele>
        <time>2021-03-28T10:10:46Z</time>
      </trkpt>
      <trkpt lat="45.1562" lon="5.9517">
        <ele>2367.6248021498</ele>
        <time>2021-03-28T10:11:08Z</time>
      </trkpt>
      <trkpt lat="45.15626" lon="5.95179">
        <ele>2370.6250314787</ele>
        <time>2021-03-28T10:11:21Z</time>
      </trkpt>
      <trkpt lat="45.15633" lon="5.95177">
        <ele>2376.6253216602</ele>
        <time>2021-03-28T10:11:46Z</time>
      </trkpt>
      <trkpt lat="45.15639" lon="5.95184">
        <ele>2380.6255583651</ele>
        <time>2021-03-28T10:12:03Z</time>
      </trkpt>
      <trkpt lat="45.15646" lon="5.9518">
        <ele>2386.6258332916</ele>
        <time>2021-03-28T10:12:55Z</time>
      </trkpt>
      <trkpt lat="45.15653" lon="5.95181">
        <ele>2392.6261196174</ele>
        <time>2021-03-28T10:13:16Z</time>
      </trkpt>
      <trkpt lat="45.15653" lon="5.95194">
        <ele>2393.6261347048</ele>
        <time>2021-03-28T10:13:36Z</time>
      </trkpt>
      <trkpt lat="45.1565" lon="5.95205">
        <ele>2398.6259950623</ele>
        <time>2021-03-28T10:13:57Z</time>
      </trkpt>
      <trkpt lat="45.15642" lon="5.95206">
        <ele>2399.6256638095</ele>
        <time>2021-03-28T10:14:26Z</time>
      </trkpt>
      <trkpt lat="45.1565" lon="5.95202">
        <ele>2404.6259791367</ele>
        <time>2021-03-28T10:15:36Z</time>
      </trkpt>
      <trkpt lat="45.15662" lon="5.95188">
        <ele>2401.6264877506</ele>
        <time>2021-03-28T10:15:56Z</time>
      </trkpt>
      <trkpt lat="45.1566" lon="5.95198">
        <ele>2405.6263816357</ele>
        <time>2021-03-28T10:16:38Z</time>
      </trkpt>
      <trkpt lat="45.15661" lon="5.95209">
        <ele>2412.6264223717</ele>
        <time>2021-03-28T10:16:55Z</time>
      </trkpt>
      <trkpt lat="45.15666" lon="5.952">
        <ele>2411.6266553886</ele>
        <time>2021-03-28T10:17:31Z</time>
      </trkpt>
      <trkpt lat="45.15673" lon="5.95193">
        <ele>2416.6269051693</ele>
        <time>2021-03-28T10:17:57Z</time>
      </trkpt>
      <trkpt lat="45.15668" lon="5.95203">
        <ele>2422.626698304</ele>
        <time>2021-03-28T10:18:16Z</time>
      </trkpt>
      <trkpt lat="45.15674" lon="5.9521">
        <ele>2424.6269556284</ele>
        <time>2021-03-28T10:18:28Z</time>
      </trkpt>
      <trkpt lat="45.15673" lon="5.95222">
        <ele>2426.6269366853</ele>
        <time>2021-03-28T10:18:43Z</time>
      </trkpt>
      <trkpt lat="45.15681" lon="5.95217">
        <ele>2433.6272525154</ele>
        <time>2021-03-28T10:19:11Z</time>
      </trkpt>
      <trkpt lat="45.15683" lon="5.95229">
        <ele>2433.6273147091</ele>
        <time>2021-03-28T10:19:35Z</time>
      </trkpt>
      <trkpt lat="45.15691" lon="5.95231">
        <ele>2431.6276560202</ele>
        <time>2021-03-28T10:20:17Z</time>
      </trkpt>
      <trkpt lat="45.15699" lon="5.95226">
        <ele>2433.6279716827</ele>
        <time>2021-03-28T10:20:35Z</time>
      </trkpt>
      <trkpt lat="45.15697" lon="5.95238">
        <ele>2442.6278757937</ele>
        <time>2021-03-28T10:21:06Z</time>
      </trkpt>
      <trkpt lat="45.15704" lon="5.95232">
        <ele>2442.6281592697</ele>
        <time>2021-03-28T10:21:30Z</time>
      </trkpt>
      <trkpt lat="45.1572" lon="5.9523">
        <ele>2437.6287921034</ele>
        <time>2021-03-28T10:21:56Z</time>
      </trkpt>
      <trkpt lat="45.15716" lon="5.95239">
        <ele>2443.6286251359</ele>
        <time>2021-03-28T10:22:28Z</time>
      </trkpt>
      <trkpt lat="45.15709" lon="5.95245">
        <ele>2448.6283663027</ele>
        <time>2021-03-28T10:22:42Z</time>
      </trkpt>
      <trkpt lat="45.15713" lon="5.95256">
        <ele>2452.6285181828</ele>
        <time>2021-03-28T10:23:13Z</time>
      </trkpt>
      <trkpt lat="45.1572" lon="5.95252">
        <ele>2452.6288138963</ele>
        <time>2021-03-28T10:23:25Z</time>
      </trkpt>
      <trkpt lat="45.15727" lon="5.95246">
        <ele>2449.629087314</ele>
        <time>2021-03-28T10:23:31Z</time>
      </trkpt>
      <trkpt lat="45.15735" lon="5.95241">
        <ele>2450.6294004619</ele>
        <time>2021-03-28T10:23:39Z</time>
      </trkpt>
      <trkpt lat="45.15744" lon="5.95242">
        <ele>2450.6297439523</ele>
        <time>2021-03-28T10:23:53Z</time>
      </trkpt>
      <trkpt lat="45.15737" lon="5.95248">
        <ele>2452.6294752285</ele>
        <time>2021-03-28T10:24:23Z</time>
      </trkpt>
      <trkpt lat="45.15728" lon="5.95246">
        <ele>2466.6291288882</ele>
        <time>2021-03-28T10:25:36Z</time>
      </trkpt>
      <trkpt lat="45.15737" lon="5.95242">
        <ele>2453.6294593029</ele>
        <time>2021-03-28T10:27:59Z</time>
      </trkpt>
      <trkpt lat="45.15738" lon="5.95252">
        <ele>2454.6295251846</ele>
        <time>2021-03-28T10:28:59Z</time>
      </trkpt>
      <trkpt lat="45.15739" lon="5.95276">
        <ele>2466.6295499951</ele>
        <time>2021-03-28T10:29:46Z</time>
      </trkpt>
      <trkpt lat="45.15747" lon="5.9528">
        <ele>2471.629868675</ele>
        <time>2021-03-28T10:30:32Z</time>
      </trkpt>
      <trkpt lat="45.15748" lon="5.95303">
        <ele>2475.6299241632</ele>
        <time>2021-03-28T10:31:09Z</time>
      </trkpt>
      <trkpt lat="45.15756" lon="5.95301">
        <ele>2479.6302411668</ele>
        <time>2021-03-28T10:31:47Z</time>
      </trkpt>
      <trkpt lat="45.15765" lon="5.95303">
        <ele>2480.6305896863</ele>
        <time>2021-03-28T10:32:07Z</time>
      </trkpt>
      <trkpt lat="45.15763" lon="5.95313">
        <ele>2482.6305316836</ele>
        <time>2021-03-28T10:32:31Z</time>
      </trkpt>
      <trkpt lat="45.15761" lon="5.95325">
        <ele>2482.6304305978</ele>
        <time>2021-03-28T10:32:44Z</time>
      </trkpt>
      <trkpt lat="45.15756" lon="5.95331">
        <ele>2484.6302301027</ele>
        <time>2021-03-28T10:32:59Z</time>
      </trkpt>
      <trkpt lat="45.1575" lon="5.9534">
        <ele>2489.6300141849</ele>
        <time>2021-03-28T10:33:15Z</time>
      </trkpt>
      <trkpt lat="45.15749" lon="5.95348">
        <ele>2490.629951153</ele>
        <time>2021-03-28T10:33:24Z</time>
      </trkpt>
      <trkpt lat="45.15748" lon="5.9536">
        <ele>2492.6298996881</ele>
        <time>2021-03-28T10:33:56Z</time>
      </trkpt>
      <trkpt lat="45.15741" lon="5.95367">
        <ele>2503.6296197325</ele>
        <time>2021-03-28T10:34:23Z</time>
      </trkpt>
      <trkpt lat="45.15734" lon="5.95374">
        <ele>2508.6293463148</ele>
        <time>2021-03-28T10:34:53Z</time>
      </trkpt>
      <trkpt lat="45.15726" lon="5.95374">
        <ele>2510.6290469132</ele>
        <time>2021-03-28T10:35:05Z</time>
      </trkpt>
      <trkpt lat="45.15719" lon="5.95372">
        <ele>2511.6287528761</ele>
        <time>2021-03-28T10:35:15Z</time>
      </trkpt>
      <trkpt lat="45.15711" lon="5.95368">
        <ele>2514.6284357049</ele>
        <time>2021-03-28T10:35:26Z</time>
      </trkpt>
      <trkpt lat="45.15706" lon="5.95379">
        <ele>2513.6282556616</ele>
        <time>2021-03-28T10:35:51Z</time>
      </trkpt>
      <trkpt lat="45.1571" lon="5.95389">
        <ele>2506.6284157559</ele>
        <time>2021-03-28T10:36:14Z</time>
      </trkpt>
      <trkpt lat="45.15718" lon="5.95392">
        <ele>2514.6287255511</ele>
        <time>2021-03-28T10:36:42Z</time>
      </trkpt>
      <trkpt lat="45.15722" lon="5.95403">
        <ele>2520.6288879924</ele>
        <time>2021-03-28T10:37:20Z</time>
      </trkpt>
      <trkpt lat="45.15716" lon="5.95411">
        <ele>2521.6286522932</ele>
        <time>2021-03-28T10:37:41Z</time>
      </trkpt>
      <trkpt lat="45.15711" lon="5.95421">
        <ele>2526.6284484453</ele>
        <time>2021-03-28T10:38:14Z</time>
      </trkpt>
      <trkpt lat="45.15712" lon="5.95433">
        <ele>2524.6284839846</ele>
        <time>2021-03-28T10:38:32Z</time>
      </trkpt>
      <trkpt lat="45.15704" lon="5.95435">
        <ele>2519.628145691</ele>
        <time>2021-03-28T10:39:08Z</time>
      </trkpt>
      <trkpt lat="45.15695" lon="5.95434">
        <ele>2517.6277990155</ele>
        <time>2021-03-28T10:39:17Z</time>
      </trkpt>
      <trkpt lat="45.15702" lon="5.9544">
        <ele>2520.6280679069</ele>
        <time>2021-03-28T10:39:27Z</time>
      </trkpt>
      <trkpt lat="45.15713" lon="5.95448">
        <ele>2522.6285325997</ele>
        <time>2021-03-28T10:39:33Z</time>
      </trkpt>
      <trkpt lat="45.15714" lon="5.95459">
        <ele>2517.6285631098</ele>
        <time>2021-03-28T10:39:46Z</time>
      </trkpt>
      <trkpt lat="45.15707" lon="5.95459">
        <ele>2518.62827494</ele>
        <time>2021-03-28T10:40:08Z</time>
      </trkpt>
      <trkpt lat="45.15707" lon="5.9547">
        <ele>2524.6282927096</ele>
        <time>2021-03-28T10:40:21Z</time>
      </trkpt>
      <trkpt lat="45.1571" lon="5.95481">
        <ele>2548.6283835694</ele>
        <time>2021-03-28T10:41:45Z</time>
      </trkpt>
      <trkpt lat="45.15699" lon="5.95499">
        <ele>2545.6279493868</ele>
        <time>2021-03-28T10:42:26Z</time>
      </trkpt>
      <trkpt lat="45.15705" lon="5.95507">
        <ele>2554.6281996705</ele>
        <time>2021-03-28T10:43:19Z</time>
      </trkpt>
      <trkpt lat="45.15706" lon="5.95519">
        <ele>2557.6282464415</ele>
        <time>2021-03-28T10:43:46Z</time>
      </trkpt>
      <trkpt lat="45.15698" lon="5.95524">
        <ele>2558.6279200502</ele>
        <time>2021-03-28T10:44:19Z</time>
      </trkpt>
      <trkpt lat="45.1569" lon="5.95528">
        <ele>2569.6275936589</ele>
        <time>2021-03-28T10:44:50Z</time>
      </trkpt>
      <trkpt lat="45.15697" lon="5.95526">
        <ele>2573.6278865226</ele>
        <time>2021-03-28T10:45:13Z</time>
      </trkpt>
      <trkpt lat="45.15705" lon="5.95529">
        <ele>2574.6282010116</ele>
        <time>2021-03-28T10:45:16Z</time>
      </trkpt>
      <trkpt lat="45.15713" lon="5.95532">
        <ele>2577.6285200268</ele>
        <time>2021-03-28T10:45:24Z</time>
      </trkpt>
      <trkpt lat="45.15718" lon="5.95532">
        <ele>2572.6287000701</ele>
        <time>2021-03-28T10:45:30Z</time>
      </trkpt>
      <trkpt lat="45.15714" lon="5.95543">
        <ele>2575.628562104</ele>
        <time>2021-03-28T10:45:45Z</time>
      </trkpt>
      <trkpt lat="45.15706" lon="5.95544">
        <ele>2571.628239736</ele>
        <time>2021-03-28T10:46:05Z</time>
      </trkpt>
      <trkpt lat="45.15711" lon="5.95551">
        <ele>2572.6284269877</ele>
        <time>2021-03-28T10:46:16Z</time>
      </trkpt>
      <trkpt lat="45.15717" lon="5.95559">
        <ele>2572.6286710687</ele>
        <time>2021-03-28T10:46:19Z</time>
      </trkpt>
      <trkpt lat="45.15709" lon="5.95563">
        <ele>2569.6283773668</ele>
        <time>2021-03-28T10:46:35Z</time>
      </trkpt>
      <trkpt lat="45.15703" lon="5.95559">
        <ele>2571.6280984171</ele>
        <time>2021-03-28T10:46:39Z</time>
      </trkpt>
      <trkpt lat="45.15699" lon="5.95557">
        <ele>2575.6279681623</ele>
        <time>2021-03-28T10:46:46Z</time>
      </trkpt>
      <trkpt lat="45.15693" lon="5.95551">
        <ele>2576.6276984327</ele>
        <time>2021-03-28T10:46:50Z</time>
      </trkpt>
      <trkpt lat="45.15686" lon="5.95557">
        <ele>2595.6274223328</ele>
        <time>2021-03-28T10:47:18Z</time>
      </trkpt>
      <trkpt lat="45.15693" lon="5.95564">
        <ele>2594.6277319603</ele>
        <time>2021-03-28T10:47:36Z</time>
      </trkpt>
      <trkpt lat="45.15701" lon="5.95568">
        <ele>2593.6280278414</ele>
        <time>2021-03-28T10:47:57Z</time>
      </trkpt>
      <trkpt lat="45.15697" lon="5.95563">
        <ele>2597.62788954</ele>
        <time>2021-03-28T10:48:00Z</time>
      </trkpt>
      <trkpt lat="45.15691" lon="5.95559">
        <ele>2596.6276421063</ele>
        <time>2021-03-28T10:48:04Z</time>
      </trkpt>
      <trkpt lat="45.15685" lon="5.95564">
        <ele>2594.6274169683</ele>
        <time>2021-03-28T10:48:08Z</time>
      </trkpt>
      <trkpt lat="45.15687" lon="5.95562">
        <ele>2593.6274826825</ele>
        <time>2021-03-28T10:48:10Z</time>
      </trkpt>
      <trkpt lat="45.15675" lon="5.95559">
        <ele>2594.6270174868</ele>
        <time>2021-03-28T10:48:18Z</time>
      </trkpt>
      <trkpt lat="45.15679" lon="5.95569">
        <ele>2589.6271567941</ele>
        <time>2021-03-28T10:48:56Z</time>
      </trkpt>
      <trkpt lat="45.15683" lon="5.9558">
        <ele>2591.6273271143</ele>
        <time>2021-03-28T10:49:15Z</time>
      </trkpt>
      <trkpt lat="45.15675" lon="5.9558">
        <ele>2595.6270179898</ele>
        <time>2021-03-28T10:49:49Z</time>
      </trkpt>
      <trkpt lat="45.15678" lon="5.95591">
        <ele>2589.6271229312</ele>
        <time>2021-03-28T10:50:18Z</time>
      </trkpt>
      <trkpt lat="45.15685" lon="5.95599">
        <ele>2604.6273871288</ele>
        <time>2021-03-28T10:50:44Z</time>
      </trkpt>
      <trkpt lat="45.15692" lon="5.95599">
        <ele>2606.6276610494</ele>
        <time>2021-03-28T10:51:09Z</time>
      </trkpt>
      <trkpt lat="45.15689" lon="5.95606">
        <ele>2608.6275690161</ele>
        <time>2021-03-28T10:51:27Z</time>
      </trkpt>
      <trkpt lat="45.15695" lon="5.95614">
        <ele>2606.6278122589</ele>
        <time>2021-03-28T10:51:31Z</time>
      </trkpt>
      <trkpt lat="45.15691" lon="5.95603">
        <ele>2611.6276397593</ele>
        <time>2021-03-28T10:51:58Z</time>
      </trkpt>
      <trkpt lat="45.15686" lon="5.95608">
        <ele>2619.627428703</ele>
        <time>2021-03-28T10:52:11Z</time>
      </trkpt>
      <trkpt lat="45.15679" lon="5.95611">
        <ele>2614.6271697022</ele>
        <time>2021-03-28T10:52:23Z</time>
      </trkpt>
      <trkpt lat="45.15681" lon="5.9562">
        <ele>2618.6272226758</ele>
        <time>2021-03-28T10:52:34Z</time>
      </trkpt>
      <trkpt lat="45.15688" lon="5.95628">
        <ele>2616.6275083311</ele>
        <time>2021-03-28T10:52:37Z</time>
      </trkpt>
      <trkpt lat="45.15693" lon="5.95638">
        <ele>2611.6277361512</ele>
        <time>2021-03-28T10:52:45Z</time>
      </trkpt>
      <trkpt lat="45.157" lon="5.95646">
        <ele>2608.6279860996</ele>
        <time>2021-03-28T10:52:56Z</time>
      </trkpt>
      <trkpt lat="45.15702" lon="5.95658">
        <ele>2601.6280828267</ele>
        <time>2021-03-28T10:53:26Z</time>
      </trkpt>
      <trkpt lat="45.15701" lon="5.9567">
        <ele>2591.628020633</ele>
        <time>2021-03-28T10:54:07Z</time>
      </trkpt>
      <trkpt lat="45.15703" lon="5.95682">
        <ele>2605.628104452</ele>
        <time>2021-03-28T10:55:16Z</time>
      </trkpt>
      <trkpt lat="45.15694" lon="5.95681">
        <ele>2605.627766829</ele>
        <time>2021-03-28T10:55:54Z</time>
      </trkpt>
      <trkpt lat="45.15701" lon="5.95688">
        <ele>2608.6280565076</ele>
        <time>2021-03-28T10:56:17Z</time>
      </trkpt>
      <trkpt lat="45.15708" lon="5.95693">
        <ele>2617.6283364631</ele>
        <time>2021-03-28T10:56:51Z</time>
      </trkpt>
      <trkpt lat="45.15717" lon="5.95692">
        <ele>2620.628669057</ele>
        <time>2021-03-28T10:57:56Z</time>
      </trkpt>
      <trkpt lat="45.15725" lon="5.95689">
        <ele>2617.6290128827</ele>
        <time>2021-03-28T10:58:10Z</time>
      </trkpt>
      <trkpt lat="45.15731" lon="5.95698">
        <ele>2621.6292180717</ele>
        <time>2021-03-28T10:58:23Z</time>
      </trkpt>
      <trkpt lat="45.15724" lon="5.95705">
        <ele>2620.6289672852</ele>
        <time>2021-03-28T10:58:30Z</time>
      </trkpt>
      <trkpt lat="45.15718" lon="5.95712">
        <ele>2623.6287087873</ele>
        <time>2021-03-28T10:58:50Z</time>
      </trkpt>
      <trkpt lat="45.15726" lon="5.95714">
        <ele>2620.62901875</ele>
        <time>2021-03-28T10:59:35Z</time>
      </trkpt>
      <trkpt lat="45.15733" lon="5.95708">
        <ele>2620.6293092668</ele>
        <time>2021-03-28T10:59:52Z</time>
      </trkpt>
      <trkpt lat="45.15741" lon="5.95706">
        <ele>2623.6296257675</ele>
        <time>2021-03-28T11:00:11Z</time>
      </trkpt>
      <trkpt lat="45.15741" lon="5.95718">
        <ele>2632.6296507455</ele>
        <time>2021-03-28T11:00:38Z</time>
      </trkpt>
      <trkpt lat="45.15735" lon="5.95727">
        <ele>2641.6294095144</ele>
        <time>2021-03-28T11:00:56Z</time>
      </trkpt>
      <trkpt lat="45.15734" lon="5.95737">
        <ele>2648.6293401122</ele>
        <time>2021-03-28T11:01:27Z</time>
      </trkpt>
      <trkpt lat="45.15739" lon="5.9573">
        <ele>2639.6295753084</ele>
        <time>2021-03-28T11:01:46Z</time>
      </trkpt>
      <trkpt lat="45.15747" lon="5.95725">
        <ele>2637.6298948266</ele>
        <time>2021-03-28T11:02:02Z</time>
      </trkpt>
      <trkpt lat="45.15754" lon="5.95718">
        <ele>2638.6301680766</ele>
        <time>2021-03-28T11:02:24Z</time>
      </trkpt>
      <trkpt lat="45.15747" lon="5.9572">
        <ele>2648.6298799068</ele>
        <time>2021-03-28T11:02:54Z</time>
      </trkpt>
      <trkpt lat="45.1574" lon="5.95739">
        <ele>2652.6295997836</ele>
        <time>2021-03-28T11:03:20Z</time>
      </trkpt>
      <trkpt lat="45.15746" lon="5.95741">
        <ele>2648.6298430264</ele>
        <time>2021-03-28T11:03:38Z</time>
      </trkpt>
      <trkpt lat="45.15754" lon="5.95747">
        <ele>2640.6301610358</ele>
        <time>2021-03-28T11:03:45Z</time>
      </trkpt>
      <trkpt lat="45.15762" lon="5.95744">
        <ele>2637.6304974854</ele>
        <time>2021-03-28T11:03:56Z</time>
      </trkpt>
      <trkpt lat="45.15769" lon="5.95737">
        <ele>2638.6307449192</ele>
        <time>2021-03-28T11:04:08Z</time>
      </trkpt>
      <trkpt lat="45.15769" lon="5.95748">
        <ele>2652.6307482719</ele>
        <time>2021-03-28T11:05:24Z</time>
      </trkpt>
      <trkpt lat="45.15763" lon="5.95749">
        <ele>2651.6305080466</ele>
        <time>2021-03-28T11:05:33Z</time>
      </trkpt>
      <trkpt lat="45.15771" lon="5.95746">
        <ele>2651.6308255531</ele>
        <time>2021-03-28T11:06:06Z</time>
      </trkpt>
      <trkpt lat="45.15777" lon="5.95739">
        <ele>2656.6310828775</ele>
        <time>2021-03-28T11:06:26Z</time>
      </trkpt>
      <trkpt lat="45.15781" lon="5.95729">
        <ele>2663.6312535331</ele>
        <time>2021-03-28T11:07:13Z</time>
      </trkpt>
      <trkpt lat="45.15788" lon="5.9572">
        <ele>2665.6315135397</ele>
        <time>2021-03-28T11:07:27Z</time>
      </trkpt>
      <trkpt lat="45.15789" lon="5.95732">
        <ele>2682.6315468997</ele>
        <time>2021-03-28T11:08:48Z</time>
      </trkpt>
      <trkpt lat="45.15787" lon="5.95743">
        <ele>2686.6314605661</ele>
        <time>2021-03-28T11:09:07Z</time>
      </trkpt>
      <trkpt lat="45.15784" lon="5.95755">
        <ele>2689.6313510984</ele>
        <time>2021-03-28T11:09:37Z</time>
      </trkpt>
      <trkpt lat="45.15785" lon="5.95766">
        <ele>2686.6313978694</ele>
        <time>2021-03-28T11:09:53Z</time>
      </trkpt>
      <trkpt lat="45.15794" lon="5.95764">
        <ele>2688.6317410246</ele>
        <time>2021-03-28T11:10:30Z</time>
      </trkpt>
      <trkpt lat="45.15795" lon="5.95774">
        <ele>2682.6318012066</ele>
        <time>2021-03-28T11:11:09Z</time>
      </trkpt>
      <trkpt lat="45.15802" lon="5.9578">
        <ele>2688.6320954114</ele>
        <time>2021-03-28T11:12:09Z</time>
      </trkpt>
      <trkpt lat="45.15811" lon="5.95777">
        <ele>2687.6324310228</ele>
        <time>2021-03-28T11:12:25Z</time>
      </trkpt>
      <trkpt lat="45.15808" lon="5.95789">
        <ele>2692.6323084794</ele>
        <time>2021-03-28T11:13:24Z</time>
      </trkpt>
      <trkpt lat="45.15803" lon="5.95798">
        <ele>2695.6321163662</ele>
        <time>2021-03-28T11:13:57Z</time>
      </trkpt>
      <trkpt lat="45.1582" lon="5.95793">
        <ele>2695.6327926181</ele>
        <time>2021-03-28T11:14:35Z</time>
      </trkpt>
      <trkpt lat="45.15814" lon="5.95802">
        <ele>2700.6325664744</ele>
        <time>2021-03-28T11:15:49Z</time>
      </trkpt>
      <trkpt lat="45.15812" lon="5.95814">
        <ele>2704.6324928813</ele>
        <time>2021-03-28T11:16:08Z</time>
      </trkpt>
      <trkpt lat="45.15806" lon="5.95822">
        <ele>2701.6322360598</ele>
        <time>2021-03-28T11:16:41Z</time>
      </trkpt>
      <trkpt lat="45.15802" lon="5.95831">
        <ele>2702.6320783123</ele>
        <time>2021-03-28T11:17:24Z</time>
      </trkpt>
      <trkpt lat="45.15798" lon="5.95841">
        <ele>2717.6319150329</ele>
        <time>2021-03-28T11:18:38Z</time>
      </trkpt>
      <trkpt lat="45.15794" lon="5.95851">
        <ele>2720.6317416951</ele>
        <time>2021-03-28T11:19:12Z</time>
      </trkpt>
      <trkpt lat="45.15788" lon="5.9586">
        <ele>2724.6315251067</ele>
        <time>2021-03-28T11:19:53Z</time>
      </trkpt>
      <trkpt lat="45.1578" lon="5.95863">
        <ele>2730.6311816163</ele>
        <time>2021-03-28T11:20:39Z</time>
      </trkpt>
      <trkpt lat="45.15771" lon="5.95867">
        <ele>2729.6308537163</ele>
        <time>2021-03-28T11:20:52Z</time>
      </trkpt>
      <trkpt lat="45.15763" lon="5.95872">
        <ele>2727.6305353716</ele>
        <time>2021-03-28T11:21:06Z</time>
      </trkpt>
      <trkpt lat="45.15755" lon="5.95872">
        <ele>2727.6301898696</ele>
        <time>2021-03-28T11:21:23Z</time>
      </trkpt>
      <trkpt lat="45.15748" lon="5.9588">
        <ele>2729.6299102493</ele>
        <time>2021-03-28T11:21:40Z</time>
      </trkpt>
      <trkpt lat="45.1574" lon="5.95881">
        <ele>2733.6295813434</ele>
        <time>2021-03-28T11:22:12Z</time>
      </trkpt>
      <trkpt lat="45.15724" lon="5.95891">
        <ele>2733.6289573945</ele>
        <time>2021-03-28T11:22:51Z</time>
      </trkpt>
      <trkpt lat="45.15724" lon="5.9589">
        <ele>2741.6289584003</ele>
        <time>2021-03-28T11:26:51Z</time>
      </trkpt>
      <trkpt lat="45.15717" lon="5.95894">
        <ele>2742.6286774389</ele>
        <time>2021-03-28T11:28:43Z</time>
      </trkpt>
      <trkpt lat="45.15717" lon="5.95893">
        <ele>2745.6286581606</ele>
        <time>2021-03-28T11:39:08Z</time>
      </trkpt>
      <trkpt lat="45.157" lon="5.95888">
        <ele>2745.6279963255</ele>
        <time>2021-03-28T11:39:09Z</time>
      </trkpt>
      <trkpt lat="45.157" lon="5.9589">
        <ele>2745.6280005164</ele>
        <time>2021-03-28T11:39:29Z</time>
      </trkpt>
      <trkpt lat="45.15711" lon="5.95896">
        <ele>2746.6284284964</ele>
        <time>2021-03-28T11:39:44Z</time>
      </trkpt>
      <trkpt lat="45.15717" lon="5.9589">
        <ele>2748.6286928616</ele>
        <time>2021-03-28T11:59:17Z</time>
      </trkpt>
      <trkpt lat="45.15725" lon="5.9589">
        <ele>2741.6289823726</ele>
        <time>2021-03-28T12:23:36Z</time>
      </trkpt>
      <trkpt lat="45.15729" lon="5.95887">
        <ele>2741.629165601</ele>
        <time>2021-03-28T12:23:39Z</time>
      </trkpt>
      <trkpt lat="45.15736" lon="5.95881">
        <ele>2740.6294366717</ele>
        <time>2021-03-28T12:23:41Z</time>
      </trkpt>
      <trkpt lat="45.15744" lon="5.95877">
        <ele>2739.6297503226</ele>
        <time>2021-03-28T12:23:44Z</time>
      </trkpt>
      <trkpt lat="45.15749" lon="5.9588">
        <ele>2738.6299489737</ele>
        <time>2021-03-28T12:23:45Z</time>
      </trkpt>
      <trkpt lat="45.15755" lon="5.95877">
        <ele>2737.6301930547</ele>
        <time>2021-03-28T12:23:46Z</time>
      </trkpt>
      <trkpt lat="45.15762" lon="5.95872">
        <ele>2736.6304765306</ele>
        <time>2021-03-28T12:23:47Z</time>
      </trkpt>
      <trkpt lat="45.15768" lon="5.95867">
        <ele>2734.6306981482</ele>
        <time>2021-03-28T12:23:48Z</time>
      </trkpt>
      <trkpt lat="45.15773" lon="5.95865">
        <ele>2733.6309199333</ele>
        <time>2021-03-28T12:23:49Z</time>
      </trkpt>
      <trkpt lat="45.15778" lon="5.95865">
        <ele>2732.6311096996</ele>
        <time>2021-03-28T12:23:50Z</time>
      </trkpt>
      <trkpt lat="45.15786" lon="5.95862">
        <ele>2731.6314193271</ele>
        <time>2021-03-28T12:23:52Z</time>
      </trkpt>
      <trkpt lat="45.15792" lon="5.95859">
        <ele>2729.631666258</ele>
        <time>2021-03-28T12:23:54Z</time>
      </trkpt>
      <trkpt lat="45.15796" lon="5.95861">
        <ele>2727.6318479776</ele>
        <time>2021-03-28T12:23:55Z</time>
      </trkpt>
      <trkpt lat="45.158" lon="5.95854">
        <ele>2725.6320114248</ele>
        <time>2021-03-28T12:24:22Z</time>
      </trkpt>
      <trkpt lat="45.15805" lon="5.95845">
        <ele>2725.6321844272</ele>
        <time>2021-03-28T12:24:26Z</time>
      </trkpt>
      <trkpt lat="45.15808" lon="5.95837">
        <ele>2725.6323351339</ele>
        <time>2021-03-28T12:24:30Z</time>
      </trkpt>
      <trkpt lat="45.15809" lon="5.9583">
        <ele>2725.6323388219</ele>
        <time>2021-03-28T12:24:31Z</time>
      </trkpt>
      <trkpt lat="45.15814" lon="5.95819">
        <ele>2724.6325554103</ele>
        <time>2021-03-28T12:24:34Z</time>
      </trkpt>
      <trkpt lat="45.1582" lon="5.95811">
        <ele>2722.6327862479</ele>
        <time>2021-03-28T12:24:36Z</time>
      </trkpt>
      <trkpt lat="45.15822" lon="5.95803">
        <ele>2722.6328610145</ele>
        <time>2021-03-28T12:24:37Z</time>
      </trkpt>
      <trkpt lat="45.15824" lon="5.95795">
        <ele>2722.6329688057</ele>
        <time>2021-03-28T12:24:39Z</time>
      </trkpt>
      <trkpt lat="45.15828" lon="5.95785">
        <ele>2721.6331247091</ele>
        <time>2021-03-28T12:24:43Z</time>
      </trkpt>
      <trkpt lat="45.15829" lon="5.95774">
        <ele>2721.6331411377</ele>
        <time>2021-03-28T12:24:46Z</time>
      </trkpt>
      <trkpt lat="45.15822" lon="5.95766">
        <ele>2720.632881131</ele>
        <time>2021-03-28T12:24:51Z</time>
      </trkpt>
      <trkpt lat="45.15818" lon="5.95755">
        <ele>2720.6327361241</ele>
        <time>2021-03-28T12:24:54Z</time>
      </trkpt>
      <trkpt lat="45.15816" lon="5.9575">
        <ele>2719.6326471083</ele>
        <time>2021-03-28T12:24:55Z</time>
      </trkpt>
      <trkpt lat="45.15813" lon="5.95744">
        <ele>2719.6325321086</ele>
        <time>2021-03-28T12:24:56Z</time>
      </trkpt>
      <trkpt lat="45.15804" lon="5.95745">
        <ele>2720.6321389973</ele>
        <time>2021-03-28T12:24:57Z</time>
      </trkpt>
      <trkpt lat="45.15798" lon="5.95736">
        <ele>2718.6319234148</ele>
        <time>2021-03-28T12:25:01Z</time>
      </trkpt>
      <trkpt lat="45.15795" lon="5.95725">
        <ele>2716.6317825988</ele>
        <time>2021-03-28T12:25:04Z</time>
      </trkpt>
      <trkpt lat="45.15786" lon="5.95719">
        <ele>2714.6314359233</ele>
        <time>2021-03-28T12:25:06Z</time>
      </trkpt>
      <trkpt lat="45.15779" lon="5.95714">
        <ele>2712.6311609969</ele>
        <time>2021-03-28T12:25:09Z</time>
      </trkpt>
      <trkpt lat="45.15773" lon="5.95706">
        <ele>2702.6309133954</ele>
        <time>2021-03-28T12:25:47Z</time>
      </trkpt>
      <trkpt lat="45.15765" lon="5.95707">
        <ele>2701.6306139939</ele>
        <time>2021-03-28T12:25:50Z</time>
      </trkpt>
      <trkpt lat="45.15764" lon="5.95703">
        <ele>2700.6305397302</ele>
        <time>2021-03-28T12:25:51Z</time>
      </trkpt>
      <trkpt lat="45.15754" lon="5.95696">
        <ele>2700.6301493011</ele>
        <time>2021-03-28T12:25:53Z</time>
      </trkpt>
      <trkpt lat="45.1574" lon="5.95698">
        <ele>2699.6296028011</ele>
        <time>2021-03-28T12:25:55Z</time>
      </trkpt>
      <trkpt lat="45.15734" lon="5.95699">
        <ele>2699.6293533556</ele>
        <time>2021-03-28T12:25:56Z</time>
      </trkpt>
      <trkpt lat="45.15728" lon="5.95699">
        <ele>2699.6291293912</ele>
        <time>2021-03-28T12:25:58Z</time>
      </trkpt>
      <trkpt lat="45.15724" lon="5.95698">
        <ele>2699.6289540417</ele>
        <time>2021-03-28T12:25:59Z</time>
      </trkpt>
      <trkpt lat="45.15713" lon="5.95695">
        <ele>2699.6285367906</ele>
        <time>2021-03-28T12:26:00Z</time>
      </trkpt>
      <trkpt lat="45.15706" lon="5.9569">
        <ele>2698.6282291748</ele>
        <time>2021-03-28T12:26:01Z</time>
      </trkpt>
      <trkpt lat="45.15698" lon="5.95684">
        <ele>2697.6279272586</ele>
        <time>2021-03-28T12:26:04Z</time>
      </trkpt>
      <trkpt lat="45.15691" lon="5.95682">
        <ele>2697.6276432797</ele>
        <time>2021-03-28T12:26:05Z</time>
      </trkpt>
      <trkpt lat="45.15685" lon="5.95675">
        <ele>2695.6273805909</ele>
        <time>2021-03-28T12:26:08Z</time>
      </trkpt>
      <trkpt lat="45.15677" lon="5.9567">
        <ele>2694.6270758249</ele>
        <time>2021-03-28T12:26:10Z</time>
      </trkpt>
      <trkpt lat="45.15669" lon="5.95668">
        <ele>2693.6267769262</ele>
        <time>2021-03-28T12:26:12Z</time>
      </trkpt>
      <trkpt lat="45.15665" lon="5.95665">
        <ele>2693.626598727</ele>
        <time>2021-03-28T12:26:13Z</time>
      </trkpt>
      <trkpt lat="45.15661" lon="5.95664">
        <ele>2692.6264267303</ele>
        <time>2021-03-28T12:26:15Z</time>
      </trkpt>
      <trkpt lat="45.15656" lon="5.9566">
        <ele>2691.6262404844</ele>
        <time>2021-03-28T12:26:16Z</time>
      </trkpt>
      <trkpt lat="45.15652" lon="5.9565">
        <ele>2688.6260768697</ele>
        <time>2021-03-28T12:26:17Z</time>
      </trkpt>
      <trkpt lat="45.15649" lon="5.9564">
        <ele>2683.6259459443</ele>
        <time>2021-03-28T12:26:19Z</time>
      </trkpt>
      <trkpt lat="45.15652" lon="5.95631">
        <ele>2677.6260948069</ele>
        <time>2021-03-28T12:26:23Z</time>
      </trkpt>
      <trkpt lat="45.15664" lon="5.95619">
        <ele>2667.6265680492</ele>
        <time>2021-03-28T12:26:28Z</time>
      </trkpt>
      <trkpt lat="45.15668" lon="5.95611">
        <ele>2652.6267170794</ele>
        <time>2021-03-28T12:27:22Z</time>
      </trkpt>
      <trkpt lat="45.15675" lon="5.95605">
        <ele>2648.6269868091</ele>
        <time>2021-03-28T12:27:25Z</time>
      </trkpt>
      <trkpt lat="45.15676" lon="5.95597">
        <ele>2645.6270310655</ele>
        <time>2021-03-28T12:27:27Z</time>
      </trkpt>
      <trkpt lat="45.1567" lon="5.95588">
        <ele>2642.6268169917</ele>
        <time>2021-03-28T12:27:30Z</time>
      </trkpt>
      <trkpt lat="45.15671" lon="5.95576">
        <ele>2636.6268401258</ele>
        <time>2021-03-28T12:27:35Z</time>
      </trkpt>
      <trkpt lat="45.15677" lon="5.95568">
        <ele>2631.6270823628</ele>
        <time>2021-03-28T12:27:37Z</time>
      </trkpt>
      <trkpt lat="45.15681" lon="5.9556">
        <ele>2628.6272530183</ele>
        <time>2021-03-28T12:27:40Z</time>
      </trkpt>
      <trkpt lat="45.15684" lon="5.95554">
        <ele>2627.6273613125</ele>
        <time>2021-03-28T12:27:41Z</time>
      </trkpt>
      <trkpt lat="45.15685" lon="5.95545">
        <ele>2625.6273965165</ele>
        <time>2021-03-28T12:27:42Z</time>
      </trkpt>
      <trkpt lat="45.15691" lon="5.95536">
        <ele>2622.627651494</ele>
        <time>2021-03-28T12:27:44Z</time>
      </trkpt>
      <trkpt lat="45.15693" lon="5.95524">
        <ele>2617.6277084909</ele>
        <time>2021-03-28T12:27:45Z</time>
      </trkpt>
      <trkpt lat="45.1569" lon="5.95514">
        <ele>2609.6275825948</ele>
        <time>2021-03-28T12:27:47Z</time>
      </trkpt>
      <trkpt lat="45.15688" lon="5.95504">
        <ele>2595.62750699</ele>
        <time>2021-03-28T12:28:04Z</time>
      </trkpt>
      <trkpt lat="45.15689" lon="5.95499">
        <ele>2591.6275485642</ele>
        <time>2021-03-28T12:28:07Z</time>
      </trkpt>
      <trkpt lat="45.15697" lon="5.95503">
        <ele>2565.6278845109</ele>
        <time>2021-03-28T12:28:27Z</time>
      </trkpt>
      <trkpt lat="45.157" lon="5.95492">
        <ele>2561.627985429</ele>
        <time>2021-03-28T12:28:30Z</time>
      </trkpt>
      <trkpt lat="45.15702" lon="5.9548">
        <ele>2559.6280816533</ele>
        <time>2021-03-28T12:28:32Z</time>
      </trkpt>
      <trkpt lat="45.15705" lon="5.95473">
        <ele>2558.6282122433</ele>
        <time>2021-03-28T12:28:33Z</time>
      </trkpt>
      <trkpt lat="45.15706" lon="5.95456">
        <ele>2556.6282382272</ele>
        <time>2021-03-28T12:28:35Z</time>
      </trkpt>
      <trkpt lat="45.15712" lon="5.95447">
        <ele>2553.6284677237</ele>
        <time>2021-03-28T12:28:37Z</time>
      </trkpt>
      <trkpt lat="45.15718" lon="5.95439">
        <ele>2549.6287126429</ele>
        <time>2021-03-28T12:28:39Z</time>
      </trkpt>
      <trkpt lat="45.1572" lon="5.95423">
        <ele>2545.6287889183</ele>
        <time>2021-03-28T12:28:41Z</time>
      </trkpt>
      <trkpt lat="45.15724" lon="5.9542">
        <ele>2543.6289723143</ele>
        <time>2021-03-28T12:28:42Z</time>
      </trkpt>
      <trkpt lat="45.1573" lon="5.95423">
        <ele>2541.6291870587</ele>
        <time>2021-03-28T12:28:43Z</time>
      </trkpt>
      <trkpt lat="45.15736" lon="5.9543">
        <ele>2532.629456453</ele>
        <time>2021-03-28T12:28:49Z</time>
      </trkpt>
      <trkpt lat="45.15729" lon="5.95423">
        <ele>2520.6291600689</ele>
        <time>2021-03-28T12:29:14Z</time>
      </trkpt>
      <trkpt lat="45.15726" lon="5.95415">
        <ele>2518.6290185824</ele>
        <time>2021-03-28T12:29:15Z</time>
      </trkpt>
      <trkpt lat="45.15723" lon="5.95408">
        <ele>2517.6289030798</ele>
        <time>2021-03-28T12:29:16Z</time>
      </trkpt>
      <trkpt lat="45.1572" lon="5.95401">
        <ele>2516.6287951209</ele>
        <time>2021-03-28T12:29:17Z</time>
      </trkpt>
      <trkpt lat="45.15721" lon="5.95389">
        <ele>2513.6288234517</ele>
        <time>2021-03-28T12:29:20Z</time>
      </trkpt>
      <trkpt lat="45.15727" lon="5.95388">
        <ele>2513.6290633418</ele>
        <time>2021-03-28T12:29:21Z</time>
      </trkpt>
      <trkpt lat="45.15729" lon="5.95376">
        <ele>2510.6291775033</ele>
        <time>2021-03-28T12:29:23Z</time>
      </trkpt>
      <trkpt lat="45.15734" lon="5.95361">
        <ele>2509.6293458119</ele>
        <time>2021-03-28T12:29:25Z</time>
      </trkpt>
      <trkpt lat="45.15736" lon="5.95354">
        <ele>2508.629449077</ele>
        <time>2021-03-28T12:29:26Z</time>
      </trkpt>
      <trkpt lat="45.15738" lon="5.95343">
        <ele>2505.6295206584</ele>
        <time>2021-03-28T12:29:28Z</time>
      </trkpt>
      <trkpt lat="45.15734" lon="5.95333">
        <ele>2503.6293625757</ele>
        <time>2021-03-28T12:29:30Z</time>
      </trkpt>
      <trkpt lat="45.15733" lon="5.95326">
        <ele>2502.6293002144</ele>
        <time>2021-03-28T12:29:31Z</time>
      </trkpt>
      <trkpt lat="45.15741" lon="5.95323">
        <ele>2500.6296292879</ele>
        <time>2021-03-28T12:29:32Z</time>
      </trkpt>
      <trkpt lat="45.15746" lon="5.95325">
        <ele>2499.6298289448</ele>
        <time>2021-03-28T12:29:33Z</time>
      </trkpt>
      <trkpt lat="45.15757" lon="5.95322">
        <ele>2496.6302914582</ele>
        <time>2021-03-28T12:29:35Z</time>
      </trkpt>
      <trkpt lat="45.15758" lon="5.95314">
        <ele>2492.6303256564</ele>
        <time>2021-03-28T12:29:37Z</time>
      </trkpt>
      <trkpt lat="45.15756" lon="5.95302">
        <ele>2490.6302569248</ele>
        <time>2021-03-28T12:29:39Z</time>
      </trkpt>
      <trkpt lat="45.15756" lon="5.95294">
        <ele>2488.6302185357</ele>
        <time>2021-03-28T12:29:40Z</time>
      </trkpt>
      <trkpt lat="45.15757" lon="5.95287">
        <ele>2486.6302684918</ele>
        <time>2021-03-28T12:29:41Z</time>
      </trkpt>
      <trkpt lat="45.15759" lon="5.9528">
        <ele>2484.6303714216</ele>
        <time>2021-03-28T12:29:42Z</time>
      </trkpt>
      <trkpt lat="45.15759" lon="5.95272">
        <ele>2482.6303595193</ele>
        <time>2021-03-28T12:29:43Z</time>
      </trkpt>
      <trkpt lat="45.15752" lon="5.9527">
        <ele>2480.6300921366</ele>
        <time>2021-03-28T12:29:44Z</time>
      </trkpt>
      <trkpt lat="45.15748" lon="5.95265">
        <ele>2478.6299198046</ele>
        <time>2021-03-28T12:29:45Z</time>
      </trkpt>
      <trkpt lat="45.15746" lon="5.95259">
        <ele>2475.6298509054</ele>
        <time>2021-03-28T12:29:47Z</time>
      </trkpt>
      <trkpt lat="45.15747" lon="5.95252">
        <ele>2473.6298690103</ele>
        <time>2021-03-28T12:29:47Z</time>
      </trkpt>
      <trkpt lat="45.15744" lon="5.95237">
        <ele>2470.6297526695</ele>
        <time>2021-03-28T12:29:49Z</time>
      </trkpt>
      <trkpt lat="45.15738" lon="5.9524">
        <ele>2468.6295049004</ele>
        <time>2021-03-28T12:29:51Z</time>
      </trkpt>
      <trkpt lat="45.15734" lon="5.9525">
        <ele>2467.629343465</ele>
        <time>2021-03-28T12:29:54Z</time>
      </trkpt>
      <trkpt lat="45.15729" lon="5.95258">
        <ele>2465.6291463226</ele>
        <time>2021-03-28T12:30:05Z</time>
      </trkpt>
      <trkpt lat="45.15725" lon="5.95269">
        <ele>2454.6290093623</ele>
        <time>2021-03-28T12:30:27Z</time>
      </trkpt>
      <trkpt lat="45.15727" lon="5.95258">
        <ele>2435.629091002</ele>
        <time>2021-03-28T12:31:37Z</time>
      </trkpt>
      <trkpt lat="45.15728" lon="5.95252">
        <ele>2434.6291273795</ele>
        <time>2021-03-28T12:31:38Z</time>
      </trkpt>
      <trkpt lat="45.15728" lon="5.95243">
        <ele>2434.6290985458</ele>
        <time>2021-03-28T12:31:39Z</time>
      </trkpt>
      <trkpt lat="45.15724" lon="5.95234">
        <ele>2434.6289466657</ele>
        <time>2021-03-28T12:31:41Z</time>
      </trkpt>
      <trkpt lat="45.15719" lon="5.95227">
        <ele>2434.6287775189</ele>
        <time>2021-03-28T12:31:42Z</time>
      </trkpt>
      <trkpt lat="45.15716" lon="5.9522">
        <ele>2433.6286531314</ele>
        <time>2021-03-28T12:31:43Z</time>
      </trkpt>
      <trkpt lat="45.15711" lon="5.9521">
        <ele>2432.6284439191</ele>
        <time>2021-03-28T12:31:45Z</time>
      </trkpt>
      <trkpt lat="45.15705" lon="5.95202">
        <ele>2431.6281810626</ele>
        <time>2021-03-28T12:31:47Z</time>
      </trkpt>
      <trkpt lat="45.15701" lon="5.95199">
        <ele>2431.6280194595</ele>
        <time>2021-03-28T12:31:48Z</time>
      </trkpt>
      <trkpt lat="45.15695" lon="5.95192">
        <ele>2429.6278032064</ele>
        <time>2021-03-28T12:31:50Z</time>
      </trkpt>
      <trkpt lat="45.15688" lon="5.9519">
        <ele>2428.6275230832</ele>
        <time>2021-03-28T12:31:51Z</time>
      </trkpt>
      <trkpt lat="45.15685" lon="5.95185">
        <ele>2427.6273857877</ele>
        <time>2021-03-28T12:31:53Z</time>
      </trkpt>
      <trkpt lat="45.15681" lon="5.95178">
        <ele>2426.6272370927</ele>
        <time>2021-03-28T12:31:53Z</time>
      </trkpt>
      <trkpt lat="45.15677" lon="5.95167">
        <ele>2422.6270785071</ele>
        <time>2021-03-28T12:31:55Z</time>
      </trkpt>
      <trkpt lat="45.15673" lon="5.95162">
        <ele>2421.6269209273</ele>
        <time>2021-03-28T12:31:56Z</time>
      </trkpt>
      <trkpt lat="45.1567" lon="5.95158">
        <ele>2420.6267831288</ele>
        <time>2021-03-28T12:31:57Z</time>
      </trkpt>
      <trkpt lat="45.15662" lon="5.95154">
        <ele>2419.626493115</ele>
        <time>2021-03-28T12:31:58Z</time>
      </trkpt>
      <trkpt lat="45.15655" lon="5.95146">
        <ele>2418.6262062863</ele>
        <time>2021-03-28T12:31:59Z</time>
      </trkpt>
      <trkpt lat="45.15648" lon="5.95153">
        <ele>2405.6259105727</ele>
        <time>2021-03-28T12:32:09Z</time>
      </trkpt>
      <trkpt lat="45.15652" lon="5.95145">
        <ele>2396.6260934658</ele>
        <time>2021-03-28T12:32:36Z</time>
      </trkpt>
      <trkpt lat="45.15656" lon="5.95134">
        <ele>2394.6262512133</ele>
        <time>2021-03-28T12:32:38Z</time>
      </trkpt>
      <trkpt lat="45.15659" lon="5.95123">
        <ele>2387.6263761036</ele>
        <time>2021-03-28T12:32:56Z</time>
      </trkpt>
      <trkpt lat="45.15655" lon="5.95117">
        <ele>2386.6262052804</ele>
        <time>2021-03-28T12:32:58Z</time>
      </trkpt>
      <trkpt lat="45.15651" lon="5.95113">
        <ele>2386.6260295957</ele>
        <time>2021-03-28T12:32:59Z</time>
      </trkpt>
      <trkpt lat="45.15649" lon="5.95101">
        <ele>2384.6259617023</ele>
        <time>2021-03-28T12:33:01Z</time>
      </trkpt>
      <trkpt lat="45.15644" lon="5.95096">
        <ele>2382.625776127</ele>
        <time>2021-03-28T12:33:04Z</time>
      </trkpt>
      <trkpt lat="45.15637" lon="5.95095">
        <ele>2381.6254835986</ele>
        <time>2021-03-28T12:33:08Z</time>
      </trkpt>
      <trkpt lat="45.1563" lon="5.95099">
        <ele>2375.6251893938</ele>
        <time>2021-03-28T12:33:17Z</time>
      </trkpt>
      <trkpt lat="45.15625" lon="5.95101">
        <ele>2375.6250179</ele>
        <time>2021-03-28T12:33:18Z</time>
      </trkpt>
      <trkpt lat="45.15617" lon="5.9509">
        <ele>2373.6246703863</ele>
        <time>2021-03-28T12:33:20Z</time>
      </trkpt>
      <trkpt lat="45.15614" lon="5.95081">
        <ele>2371.6245620921</ele>
        <time>2021-03-28T12:33:21Z</time>
      </trkpt>
      <trkpt lat="45.15608" lon="5.95079">
        <ele>2370.6243230402</ele>
        <time>2021-03-28T12:33:22Z</time>
      </trkpt>
      <trkpt lat="45.15606" lon="5.9507">
        <ele>2369.6242288277</ele>
        <time>2021-03-28T12:33:23Z</time>
      </trkpt>
      <trkpt lat="45.15607" lon="5.95063">
        <ele>2368.6242869981</ele>
        <time>2021-03-28T12:33:24Z</time>
      </trkpt>
      <trkpt lat="45.15606" lon="5.95056">
        <ele>2366.6242244691</ele>
        <time>2021-03-28T12:33:25Z</time>
      </trkpt>
      <trkpt lat="45.15601" lon="5.95054">
        <ele>2364.6240186095</ele>
        <time>2021-03-28T12:33:26Z</time>
      </trkpt>
      <trkpt lat="45.15597" lon="5.95049">
        <ele>2363.6238912046</ele>
        <time>2021-03-28T12:33:27Z</time>
      </trkpt>
      <trkpt lat="45.15595" lon="5.95038">
        <ele>2359.6237879395</ele>
        <time>2021-03-28T12:33:29Z</time>
      </trkpt>
      <trkpt lat="45.15588" lon="5.95043">
        <ele>2351.6235111691</ele>
        <time>2021-03-28T12:33:42Z</time>
      </trkpt>
      <trkpt lat="45.15582" lon="5.95039">
        <ele>2345.6232662499</ele>
        <time>2021-03-28T12:33:52Z</time>
      </trkpt>
      <trkpt lat="45.15575" lon="5.95034">
        <ele>2344.6230124459</ele>
        <time>2021-03-28T12:33:54Z</time>
      </trkpt>
      <trkpt lat="45.15574" lon="5.95026">
        <ele>2340.6229450554</ele>
        <time>2021-03-28T12:33:58Z</time>
      </trkpt>
      <trkpt lat="45.15572" lon="5.95013">
        <ele>2336.6228605658</ele>
        <time>2021-03-28T12:34:00Z</time>
      </trkpt>
      <trkpt lat="45.15573" lon="5.95005">
        <ele>2333.6229311414</ele>
        <time>2021-03-28T12:34:04Z</time>
      </trkpt>
      <trkpt lat="45.15579" lon="5.95">
        <ele>2332.6231500767</ele>
        <time>2021-03-28T12:34:04Z</time>
      </trkpt>
      <trkpt lat="45.15584" lon="5.94983">
        <ele>2328.623345878</ele>
        <time>2021-03-28T12:34:07Z</time>
      </trkpt>
      <trkpt lat="45.15588" lon="5.94981">
        <ele>2327.6235314533</ele>
        <time>2021-03-28T12:34:07Z</time>
      </trkpt>
      <trkpt lat="45.15595" lon="5.9498">
        <ele>2325.6237968244</ele>
        <time>2021-03-28T12:34:08Z</time>
      </trkpt>
      <trkpt lat="45.15592" lon="5.94961">
        <ele>2321.623697415</ele>
        <time>2021-03-28T12:34:11Z</time>
      </trkpt>
      <trkpt lat="45.1559" lon="5.94951">
        <ele>2320.6235916354</ele>
        <time>2021-03-28T12:34:12Z</time>
      </trkpt>
      <trkpt lat="45.15593" lon="5.94943">
        <ele>2319.6237183698</ele>
        <time>2021-03-28T12:34:12Z</time>
      </trkpt>
      <trkpt lat="45.15604" lon="5.94928">
        <ele>2315.624150373</ele>
        <time>2021-03-28T12:34:15Z</time>
      </trkpt>
      <trkpt lat="45.15602" lon="5.94918">
        <ele>2312.6240838207</ele>
        <time>2021-03-28T12:34:16Z</time>
      </trkpt>
      <trkpt lat="45.15601" lon="5.9491">
        <ele>2310.6240336969</ele>
        <time>2021-03-28T12:34:16Z</time>
      </trkpt>
      <trkpt lat="45.15608" lon="5.94902">
        <ele>2307.6243114732</ele>
        <time>2021-03-28T12:34:19Z</time>
      </trkpt>
      <trkpt lat="45.15614" lon="5.94899">
        <ele>2305.6245421432</ele>
        <time>2021-03-28T12:34:19Z</time>
      </trkpt>
      <trkpt lat="45.15619" lon="5.94882">
        <ele>2302.6247617491</ele>
        <time>2021-03-28T12:34:21Z</time>
      </trkpt>
      <trkpt lat="45.15618" lon="5.94875">
        <ele>2300.6247314066</ele>
        <time>2021-03-28T12:34:23Z</time>
      </trkpt>
      <trkpt lat="45.15618" lon="5.94866">
        <ele>2295.6246983819</ele>
        <time>2021-03-28T12:34:24Z</time>
      </trkpt>
      <trkpt lat="45.15617" lon="5.94854">
        <ele>2281.6246905029</ele>
        <time>2021-03-28T12:35:17Z</time>
      </trkpt>
      <trkpt lat="45.15625" lon="5.94833">
        <ele>2275.6249959394</ele>
        <time>2021-03-28T12:35:26Z</time>
      </trkpt>
      <trkpt lat="45.15622" lon="5.94823">
        <ele>2267.6248973683</ele>
        <time>2021-03-28T12:35:45Z</time>
      </trkpt>
      <trkpt lat="45.1562" lon="5.94816">
        <ele>2265.624789577</ele>
        <time>2021-03-28T12:35:47Z</time>
      </trkpt>
      <trkpt lat="45.15619" lon="5.94808">
        <ele>2264.6247402914</ele>
        <time>2021-03-28T12:35:48Z</time>
      </trkpt>
      <trkpt lat="45.15617" lon="5.94802">
        <ele>2263.6246653572</ele>
        <time>2021-03-28T12:35:49Z</time>
      </trkpt>
      <trkpt lat="45.15612" lon="5.94797">
        <ele>2262.6244879961</ele>
        <time>2021-03-28T12:35:50Z</time>
      </trkpt>
      <trkpt lat="45.15611" lon="5.9479">
        <ele>2261.6244271435</ele>
        <time>2021-03-28T12:35:51Z</time>
      </trkpt>
      <trkpt lat="45.15608" lon="5.94786">
        <ele>2259.6243015826</ele>
        <time>2021-03-28T12:35:52Z</time>
      </trkpt>
      <trkpt lat="45.15599" lon="5.94785">
        <ele>2257.6239505485</ele>
        <time>2021-03-28T12:35:54Z</time>
      </trkpt>
      <trkpt lat="45.15594" lon="5.94776">
        <ele>2255.6237694994</ele>
        <time>2021-03-28T12:35:57Z</time>
      </trkpt>
      <trkpt lat="45.15587" lon="5.94778">
        <ele>2253.6234633923</ele>
        <time>2021-03-28T12:36:00Z</time>
      </trkpt>
      <trkpt lat="45.15579" lon="5.94782">
        <ele>2252.6231437065</ele>
        <time>2021-03-28T12:36:03Z</time>
      </trkpt>
      <trkpt lat="45.15576" lon="5.9477">
        <ele>2249.6230226718</ele>
        <time>2021-03-28T12:36:09Z</time>
      </trkpt>
      <trkpt lat="45.15568" lon="5.94771">
        <ele>2247.6227241084</ele>
        <time>2021-03-28T12:36:12Z</time>
      </trkpt>
      <trkpt lat="45.15562" lon="5.94773">
        <ele>2245.6224879064</ele>
        <time>2021-03-28T12:36:15Z</time>
      </trkpt>
      <trkpt lat="45.15557" lon="5.9477">
        <ele>2244.6222683005</ele>
        <time>2021-03-28T12:36:16Z</time>
      </trkpt>
      <trkpt lat="45.1556" lon="5.94762">
        <ele>2238.6224109605</ele>
        <time>2021-03-28T12:36:19Z</time>
      </trkpt>
      <trkpt lat="45.15559" lon="5.94747">
        <ele>2233.6223732419</ele>
        <time>2021-03-28T12:36:20Z</time>
      </trkpt>
      <trkpt lat="45.15563" lon="5.94736">
        <ele>2230.6225279719</ele>
        <time>2021-03-28T12:36:24Z</time>
      </trkpt>
      <trkpt lat="45.15572" lon="5.94737">
        <ele>2228.6228731386</ele>
        <time>2021-03-28T12:36:25Z</time>
      </trkpt>
      <trkpt lat="45.15577" lon="5.94748">
        <ele>2221.6230585463</ele>
        <time>2021-03-28T12:36:48Z</time>
      </trkpt>
      <trkpt lat="45.15585" lon="5.94746">
        <ele>2218.6233988516</ele>
        <time>2021-03-28T12:36:54Z</time>
      </trkpt>
      <trkpt lat="45.1559" lon="5.94745">
        <ele>2216.6235919707</ele>
        <time>2021-03-28T12:36:55Z</time>
      </trkpt>
      <trkpt lat="45.15597" lon="5.94741">
        <ele>2216.6238766201</ele>
        <time>2021-03-28T12:36:59Z</time>
      </trkpt>
      <trkpt lat="45.15603" lon="5.94738">
        <ele>2215.6241207011</ele>
        <time>2021-03-28T12:37:01Z</time>
      </trkpt>
      <trkpt lat="45.1561" lon="5.94735">
        <ele>2215.6243890896</ele>
        <time>2021-03-28T12:37:03Z</time>
      </trkpt>
      <trkpt lat="45.15614" lon="5.94732">
        <ele>2213.6245679595</ele>
        <time>2021-03-28T12:37:04Z</time>
      </trkpt>
      <trkpt lat="45.15622" lon="5.94732">
        <ele>2213.6248863041</ele>
        <time>2021-03-28T12:37:08Z</time>
      </trkpt>
      <trkpt lat="45.15628" lon="5.94731">
        <ele>2213.6251045689</ele>
        <time>2021-03-28T12:37:09Z</time>
      </trkpt>
      <trkpt lat="45.15635" lon="5.94732">
        <ele>2213.6253997795</ele>
        <time>2021-03-28T12:37:13Z</time>
      </trkpt>
      <trkpt lat="45.15638" lon="5.94732">
        <ele>2213.6255129352</ele>
        <time>2021-03-28T12:37:13Z</time>
      </trkpt>
      <trkpt lat="45.15644" lon="5.94733">
        <ele>2212.6257762946</ele>
        <time>2021-03-28T12:37:15Z</time>
      </trkpt>
      <trkpt lat="45.1565" lon="5.94735">
        <ele>2212.6260128319</ele>
        <time>2021-03-28T12:37:16Z</time>
      </trkpt>
      <trkpt lat="45.15656" lon="5.94737">
        <ele>2211.626242999</ele>
        <time>2021-03-28T12:37:17Z</time>
      </trkpt>
      <trkpt lat="45.15661" lon="5.94738">
        <ele>2211.6264495291</ele>
        <time>2021-03-28T12:37:18Z</time>
      </trkpt>
      <trkpt lat="45.15667" lon="5.94737">
        <ele>2211.6266884133</ele>
        <time>2021-03-28T12:37:19Z</time>
      </trkpt>
      <trkpt lat="45.15674" lon="5.94733">
        <ele>2210.6269475818</ele>
        <time>2021-03-28T12:37:21Z</time>
      </trkpt>
      <trkpt lat="45.1568" lon="5.94732">
        <ele>2210.6271852925</ele>
        <time>2021-03-28T12:37:23Z</time>
      </trkpt>
      <trkpt lat="45.15688" lon="5.94731">
        <ele>2209.6275198981</ele>
        <time>2021-03-28T12:37:27Z</time>
      </trkpt>
      <trkpt lat="45.1569" lon="5.9473">
        <ele>2210.6276055612</ele>
        <time>2021-03-28T12:37:27Z</time>
      </trkpt>
      <trkpt lat="45.15706" lon="5.94722">
        <ele>2208.6282269955</ele>
        <time>2021-03-28T12:37:31Z</time>
      </trkpt>
      <trkpt lat="45.15714" lon="5.94716">
        <ele>2206.628538467</ele>
        <time>2021-03-28T12:37:34Z</time>
      </trkpt>
      <trkpt lat="45.1572" lon="5.94712">
        <ele>2206.6287830509</ele>
        <time>2021-03-28T12:37:35Z</time>
      </trkpt>
      <trkpt lat="45.15734" lon="5.94709">
        <ele>2206.6293518469</ele>
        <time>2021-03-28T12:37:37Z</time>
      </trkpt>
      <trkpt lat="45.1574" lon="5.94707">
        <ele>2205.6296172179</ele>
        <time>2021-03-28T12:37:39Z</time>
      </trkpt>
      <trkpt lat="45.15745" lon="5.94706">
        <ele>2204.6297960877</ele>
        <time>2021-03-28T12:37:39Z</time>
      </trkpt>
      <trkpt lat="45.15755" lon="5.94703">
        <ele>2204.6302004308</ele>
        <time>2021-03-28T12:37:41Z</time>
      </trkpt>
      <trkpt lat="45.15762" lon="5.94702">
        <ele>2201.630489774</ele>
        <time>2021-03-28T12:37:43Z</time>
      </trkpt>
      <trkpt lat="45.1577" lon="5.94702">
        <ele>2200.6308040954</ele>
        <time>2021-03-28T12:37:45Z</time>
      </trkpt>
      <trkpt lat="45.15778" lon="5.947">
        <ele>2200.6311105378</ele>
        <time>2021-03-28T12:37:47Z</time>
      </trkpt>
      <trkpt lat="45.15783" lon="5.94699">
        <ele>2199.6313259527</ele>
        <time>2021-03-28T12:37:49Z</time>
      </trkpt>
      <trkpt lat="45.15787" lon="5.94699">
        <ele>2199.6314796768</ele>
        <time>2021-03-28T12:37:50Z</time>
      </trkpt>
      <trkpt lat="45.15795" lon="5.94695">
        <ele>2198.6317936629</ele>
        <time>2021-03-28T12:37:53Z</time>
      </trkpt>
      <trkpt lat="45.15802" lon="5.9469">
        <ele>2197.6320856884</ele>
        <time>2021-03-28T12:37:56Z</time>
      </trkpt>
      <trkpt lat="45.1581" lon="5.94688">
        <ele>2195.6323797256</ele>
        <time>2021-03-28T12:37:57Z</time>
      </trkpt>
      <trkpt lat="45.15815" lon="5.94687">
        <ele>2195.6326147541</ele>
        <time>2021-03-28T12:37:59Z</time>
      </trkpt>
      <trkpt lat="45.15822" lon="5.94687">
        <ele>2194.632859841</ele>
        <time>2021-03-28T12:38:01Z</time>
      </trkpt>
      <trkpt lat="45.1583" lon="5.94688">
        <ele>2192.6331926025</ele>
        <time>2021-03-28T12:38:05Z</time>
      </trkpt>
      <trkpt lat="45.15833" lon="5.94688">
        <ele>2192.6333357655</ele>
        <time>2021-03-28T12:38:05Z</time>
      </trkpt>
      <trkpt lat="45.15841" lon="5.94688">
        <ele>2191.6336541101</ele>
        <time>2021-03-28T12:38:08Z</time>
      </trkpt>
      <trkpt lat="45.15845" lon="5.94687">
        <ele>2190.6338157132</ele>
        <time>2021-03-28T12:38:09Z</time>
      </trkpt>
      <trkpt lat="45.1585" lon="5.94684">
        <ele>2190.6340111792</ele>
        <time>2021-03-28T12:38:09Z</time>
      </trkpt>
      <trkpt lat="45.15858" lon="5.94677">
        <ele>2188.6343350559</ele>
        <time>2021-03-28T12:38:12Z</time>
      </trkpt>
      <trkpt lat="45.15867" lon="5.94673">
        <ele>2186.6346597709</ele>
        <time>2021-03-28T12:38:13Z</time>
      </trkpt>
      <trkpt lat="45.15876" lon="5.9467">
        <ele>2186.6350493617</ele>
        <time>2021-03-28T12:38:15Z</time>
      </trkpt>
      <trkpt lat="45.15886" lon="5.94669">
        <ele>2185.6354270503</ele>
        <time>2021-03-28T12:38:18Z</time>
      </trkpt>
      <trkpt lat="45.15891" lon="5.9467">
        <ele>2184.6356305629</ele>
        <time>2021-03-28T12:38:19Z</time>
      </trkpt>
      <trkpt lat="45.15895" lon="5.94671">
        <ele>2183.6358047388</ele>
        <time>2021-03-28T12:38:19Z</time>
      </trkpt>
      <trkpt lat="45.15902" lon="5.94671">
        <ele>2182.6360905617</ele>
        <time>2021-03-28T12:38:22Z</time>
      </trkpt>
      <trkpt lat="45.15911" lon="5.94671">
        <ele>2181.6364322081</ele>
        <time>2021-03-28T12:38:23Z</time>
      </trkpt>
      <trkpt lat="45.15921" lon="5.94665">
        <ele>2179.6368397363</ele>
        <time>2021-03-28T12:38:26Z</time>
      </trkpt>
      <trkpt lat="45.15926" lon="5.94663">
        <ele>2179.6370484456</ele>
        <time>2021-03-28T12:38:27Z</time>
      </trkpt>
      <trkpt lat="45.15932" lon="5.94662">
        <ele>2178.6372657046</ele>
        <time>2021-03-28T12:38:27Z</time>
      </trkpt>
      <trkpt lat="45.15937" lon="5.94661">
        <ele>2178.6374886632</ele>
        <time>2021-03-28T12:38:28Z</time>
      </trkpt>
      <trkpt lat="45.15944" lon="5.94663">
        <ele>2178.6377449818</ele>
        <time>2021-03-28T12:38:29Z</time>
      </trkpt>
      <trkpt lat="45.15955" lon="5.94665">
        <ele>2177.6381801702</ele>
        <time>2021-03-28T12:38:32Z</time>
      </trkpt>
      <trkpt lat="45.15961" lon="5.94663">
        <ele>2176.63842576</ele>
        <time>2021-03-28T12:38:33Z</time>
      </trkpt>
      <trkpt lat="45.15967" lon="5.9466">
        <ele>2175.6386626326</ele>
        <time>2021-03-28T12:38:33Z</time>
      </trkpt>
      <trkpt lat="45.1598" lon="5.94655">
        <ele>2174.6391903572</ele>
        <time>2021-03-28T12:38:36Z</time>
      </trkpt>
      <trkpt lat="45.15986" lon="5.94653">
        <ele>2173.6394342706</ele>
        <time>2021-03-28T12:38:36Z</time>
      </trkpt>
      <trkpt lat="45.15993" lon="5.9465">
        <ele>2172.6397239491</ele>
        <time>2021-03-28T12:38:37Z</time>
      </trkpt>
      <trkpt lat="45.16007" lon="5.94644">
        <ele>2171.6402649172</ele>
        <time>2021-03-28T12:38:39Z</time>
      </trkpt>
      <trkpt lat="45.16015" lon="5.94642">
        <ele>2170.64061746</ele>
        <time>2021-03-28T12:38:42Z</time>
      </trkpt>
      <trkpt lat="45.16021" lon="5.94641">
        <ele>2169.6408276781</ele>
        <time>2021-03-28T12:38:43Z</time>
      </trkpt>
      <trkpt lat="45.16028" lon="5.94637">
        <ele>2168.6411101483</ele>
        <time>2021-03-28T12:38:47Z</time>
      </trkpt>
      <trkpt lat="45.16031" lon="5.94635">
        <ele>2168.6412274949</ele>
        <time>2021-03-28T12:38:47Z</time>
      </trkpt>
      <trkpt lat="45.16037" lon="5.94629">
        <ele>2166.6414804608</ele>
        <time>2021-03-28T12:38:49Z</time>
      </trkpt>
      <trkpt lat="45.16043" lon="5.94625">
        <ele>2165.6417379528</ele>
        <time>2021-03-28T12:38:52Z</time>
      </trkpt>
      <trkpt lat="45.16049" lon="5.94623">
        <ele>2163.6419661082</ele>
        <time>2021-03-28T12:38:53Z</time>
      </trkpt>
      <trkpt lat="45.16057" lon="5.94621">
        <ele>2161.6422759034</ele>
        <time>2021-03-28T12:38:55Z</time>
      </trkpt>
      <trkpt lat="45.16065" lon="5.94618">
        <ele>2159.6425816752</ele>
        <time>2021-03-28T12:38:57Z</time>
      </trkpt>
      <trkpt lat="45.16072" lon="5.94614">
        <ele>2159.6428968348</ele>
        <time>2021-03-28T12:39:00Z</time>
      </trkpt>
      <trkpt lat="45.16081" lon="5.94614">
        <ele>2159.6432295963</ele>
        <time>2021-03-28T12:39:03Z</time>
      </trkpt>
      <trkpt lat="45.16089" lon="5.94613">
        <ele>2158.6435496174</ele>
        <time>2021-03-28T12:39:06Z</time>
      </trkpt>
      <trkpt lat="45.16097" lon="5.94614">
        <ele>2158.6438674591</ele>
        <time>2021-03-28T12:39:09Z</time>
      </trkpt>
      <trkpt lat="45.16105" lon="5.94611">
        <ele>2157.6442072615</ele>
        <time>2021-03-28T12:39:12Z</time>
      </trkpt>
      <trkpt lat="45.16115" lon="5.94608">
        <ele>2156.6445839442</ele>
        <time>2021-03-28T12:39:14Z</time>
      </trkpt>
      <trkpt lat="45.16121" lon="5.94604">
        <ele>2156.6448499858</ele>
        <time>2021-03-28T12:39:16Z</time>
      </trkpt>
      <trkpt lat="45.16128" lon="5.94602">
        <ele>2155.6451373175</ele>
        <time>2021-03-28T12:39:17Z</time>
      </trkpt>
      <trkpt lat="45.16142" lon="5.946">
        <ele>2155.6456678919</ele>
        <time>2021-03-28T12:39:18Z</time>
      </trkpt>
      <trkpt lat="45.16153" lon="5.94595">
        <ele>2154.646134261</ele>
        <time>2021-03-28T12:39:20Z</time>
      </trkpt>
      <trkpt lat="45.16159" lon="5.94594">
        <ele>2154.6463751569</ele>
        <time>2021-03-28T12:39:21Z</time>
      </trkpt>
      <trkpt lat="45.16165" lon="5.94592">
        <ele>2154.6466123648</ele>
        <time>2021-03-28T12:39:22Z</time>
      </trkpt>
      <trkpt lat="45.1617" lon="5.94588">
        <ele>2154.6467981078</ele>
        <time>2021-03-28T12:39:23Z</time>
      </trkpt>
      <trkpt lat="45.16175" lon="5.94584">
        <ele>2153.6470089965</ele>
        <time>2021-03-28T12:39:24Z</time>
      </trkpt>
      <trkpt lat="45.16182" lon="5.94582">
        <ele>2151.6472864375</ele>
        <time>2021-03-28T12:39:26Z</time>
      </trkpt>
      <trkpt lat="45.16191" lon="5.94582">
        <ele>2147.647642836</ele>
        <time>2021-03-28T12:39:29Z</time>
      </trkpt>
      <trkpt lat="45.16199" lon="5.94579">
        <ele>2146.6479388848</ele>
        <time>2021-03-28T12:39:32Z</time>
      </trkpt>
      <trkpt lat="45.16204" lon="5.94575">
        <ele>2144.6481542997</ele>
        <time>2021-03-28T12:39:34Z</time>
      </trkpt>
      <trkpt lat="45.16209" lon="5.94568">
        <ele>2142.6483666971</ele>
        <time>2021-03-28T12:39:36Z</time>
      </trkpt>
      <trkpt lat="45.16215" lon="5.94562">
        <ele>2141.6485998817</ele>
        <time>2021-03-28T12:39:38Z</time>
      </trkpt>
      <trkpt lat="45.16221" lon="5.94552">
        <ele>2141.6488300487</ele>
        <time>2021-03-28T12:39:41Z</time>
      </trkpt>
      <trkpt lat="45.16229" lon="5.94549">
        <ele>2133.649174042</ele>
        <time>2021-03-28T12:43:41Z</time>
      </trkpt>
      <trkpt lat="45.16238" lon="5.94551">
        <ele>2134.6495052949</ele>
        <time>2021-03-28T12:43:57Z</time>
      </trkpt>
      <trkpt lat="45.16246" lon="5.94552">
        <ele>2135.6498476118</ele>
        <time>2021-03-28T12:44:12Z</time>
      </trkpt>
      <trkpt lat="45.16255" lon="5.94551">
        <ele>2135.650184229</ele>
        <time>2021-03-28T12:44:24Z</time>
      </trkpt>
      <trkpt lat="45.16262" lon="5.94551">
        <ele>2136.6504866481</ele>
        <time>2021-03-28T12:44:35Z</time>
      </trkpt>
      <trkpt lat="45.1627" lon="5.94554">
        <ele>2139.6508128718</ele>
        <time>2021-03-28T12:44:54Z</time>
      </trkpt>
      <trkpt lat="45.16278" lon="5.9456">
        <ele>2139.6511037238</ele>
        <time>2021-03-28T12:45:10Z</time>
      </trkpt>
      <trkpt lat="45.16283" lon="5.94555">
        <ele>2141.6513189711</ele>
        <time>2021-03-28T12:45:23Z</time>
      </trkpt>
      <trkpt lat="45.16286" lon="5.94544">
        <ele>2146.6514571048</ele>
        <time>2021-03-28T12:45:38Z</time>
      </trkpt>
      <trkpt lat="45.16295" lon="5.94546">
        <ele>2152.6517855078</ele>
        <time>2021-03-28T12:46:00Z</time>
      </trkpt>
      <trkpt lat="45.16303" lon="5.94547">
        <ele>2157.6521182694</ele>
        <time>2021-03-28T12:46:22Z</time>
      </trkpt>
      <trkpt lat="45.1631" lon="5.94541">
        <ele>2159.6524007395</ele>
        <time>2021-03-28T12:46:40Z</time>
      </trkpt>
      <trkpt lat="45.16319" lon="5.94545">
        <ele>2161.6527402066</ele>
        <time>2021-03-28T12:46:52Z</time>
      </trkpt>
      <trkpt lat="45.16326" lon="5.9455">
        <ele>2162.6530493312</ele>
        <time>2021-03-28T12:47:11Z</time>
      </trkpt>
      <trkpt lat="45.16331" lon="5.9454">
        <ele>2165.6532427855</ele>
        <time>2021-03-28T12:47:30Z</time>
      </trkpt>
      <trkpt lat="45.16339" lon="5.94537">
        <ele>2167.6535690092</ele>
        <time>2021-03-28T12:47:52Z</time>
      </trkpt>
      <trkpt lat="45.16341" lon="5.94549">
        <ele>2168.6536395848</ele>
        <time>2021-03-28T12:48:24Z</time>
      </trkpt>
      <trkpt lat="45.16348" lon="5.94541">
        <ele>2176.6539106555</ele>
        <time>2021-03-28T13:04:26Z</time>
      </trkpt>
      <trkpt lat="45.16355" lon="5.94537">
        <ele>2173.6541834027</ele>
        <time>2021-03-28T13:04:35Z</time>
      </trkpt>
      <trkpt lat="45.16361" lon="5.94539">
        <ele>2173.6544227898</ele>
        <time>2021-03-28T13:04:39Z</time>
      </trkpt>
      <trkpt lat="45.16368" lon="5.94541">
        <ele>2173.6547195092</ele>
        <time>2021-03-28T13:04:41Z</time>
      </trkpt>
      <trkpt lat="45.16376" lon="5.94542">
        <ele>2171.655042883</ele>
        <time>2021-03-28T13:04:43Z</time>
      </trkpt>
      <trkpt lat="45.16379" lon="5.94536">
        <ele>2171.6551759876</ele>
        <time>2021-03-28T13:04:44Z</time>
      </trkpt>
      <trkpt lat="45.1638" lon="5.94527">
        <ele>2171.6551788375</ele>
        <time>2021-03-28T13:04:45Z</time>
      </trkpt>
      <trkpt lat="45.16386" lon="5.9452">
        <ele>2171.6554183923</ele>
        <time>2021-03-28T13:04:47Z</time>
      </trkpt>
      <trkpt lat="45.16388" lon="5.94506">
        <ele>2170.6555035524</ele>
        <time>2021-03-28T13:04:49Z</time>
      </trkpt>
      <trkpt lat="45.16391" lon="5.945">
        <ele>2169.6556185521</ele>
        <time>2021-03-28T13:04:50Z</time>
      </trkpt>
      <trkpt lat="45.16384" lon="5.94484">
        <ele>2166.6553771533</ele>
        <time>2021-03-28T13:04:52Z</time>
      </trkpt>
      <trkpt lat="45.16381" lon="5.94475">
        <ele>2166.6552417018</ele>
        <time>2021-03-28T13:04:53Z</time>
      </trkpt>
      <trkpt lat="45.1638" lon="5.94467">
        <ele>2165.6551920809</ele>
        <time>2021-03-28T13:04:55Z</time>
      </trkpt>
      <trkpt lat="45.1638" lon="5.94461">
        <ele>2164.6552125327</ele>
        <time>2021-03-28T13:04:56Z</time>
      </trkpt>
      <trkpt lat="45.16384" lon="5.9445">
        <ele>2163.6553763151</ele>
        <time>2021-03-28T13:04:57Z</time>
      </trkpt>
      <trkpt lat="45.16381" lon="5.94432">
        <ele>2162.6552479044</ele>
        <time>2021-03-28T13:05:00Z</time>
      </trkpt>
      <trkpt lat="45.16382" lon="5.9442">
        <ele>2162.6552700326</ele>
        <time>2021-03-28T13:05:02Z</time>
      </trkpt>
      <trkpt lat="45.16384" lon="5.94412">
        <ele>2161.6553600542</ele>
        <time>2021-03-28T13:05:03Z</time>
      </trkpt>
      <trkpt lat="45.16382" lon="5.94402">
        <ele>2161.6552878022</ele>
        <time>2021-03-28T13:05:04Z</time>
      </trkpt>
      <trkpt lat="45.16382" lon="5.94392">
        <ele>2158.6552914903</ele>
        <time>2021-03-28T13:05:06Z</time>
      </trkpt>
      <trkpt lat="45.16388" lon="5.94391">
        <ele>2157.6554995291</ele>
        <time>2021-03-28T13:05:07Z</time>
      </trkpt>
      <trkpt lat="45.1639" lon="5.94381">
        <ele>2156.655609332</ele>
        <time>2021-03-28T13:05:09Z</time>
      </trkpt>
      <trkpt lat="45.164" lon="5.94397">
        <ele>2150.6560128368</ele>
        <time>2021-03-28T13:05:14Z</time>
      </trkpt>
      <trkpt lat="45.16399" lon="5.9441">
        <ele>2148.6559640542</ele>
        <time>2021-03-28T13:05:35Z</time>
      </trkpt>
      <trkpt lat="45.16404" lon="5.94412">
        <ele>2148.6561578438</ele>
        <time>2021-03-28T13:05:36Z</time>
      </trkpt>
      <trkpt lat="45.1641" lon="5.9442">
        <ele>2147.6564104743</ele>
        <time>2021-03-28T13:05:40Z</time>
      </trkpt>
      <trkpt lat="45.16417" lon="5.94427">
        <ele>2146.6566911004</ele>
        <time>2021-03-28T13:05:42Z</time>
      </trkpt>
      <trkpt lat="45.16419" lon="5.94432">
        <ele>2146.6567687169</ele>
        <time>2021-03-28T13:05:43Z</time>
      </trkpt>
      <trkpt lat="45.16425" lon="5.94438">
        <ele>2145.6569938548</ele>
        <time>2021-03-28T13:05:44Z</time>
      </trkpt>
      <trkpt lat="45.16431" lon="5.94444">
        <ele>2144.6572339125</ele>
        <time>2021-03-28T13:05:45Z</time>
      </trkpt>
      <trkpt lat="45.16438" lon="5.94447">
        <ele>2143.6575137004</ele>
        <time>2021-03-28T13:05:46Z</time>
      </trkpt>
      <trkpt lat="45.1645" lon="5.94438">
        <ele>2141.65800488</ele>
        <time>2021-03-28T13:05:47Z</time>
      </trkpt>
      <trkpt lat="45.16461" lon="5.94419">
        <ele>2139.6584529765</ele>
        <time>2021-03-28T13:05:49Z</time>
      </trkpt>
      <trkpt lat="45.16475" lon="5.94403">
        <ele>2138.6589862332</ele>
        <time>2021-03-28T13:05:51Z</time>
      </trkpt>
      <trkpt lat="45.16478" lon="5.94395">
        <ele>2137.6591339223</ele>
        <time>2021-03-28T13:05:52Z</time>
      </trkpt>
      <trkpt lat="45.16481" lon="5.94388">
        <ele>2137.6592541188</ele>
        <time>2021-03-28T13:05:53Z</time>
      </trkpt>
      <trkpt lat="45.16484" lon="5.94381">
        <ele>2136.6593666039</ele>
        <time>2021-03-28T13:05:54Z</time>
      </trkpt>
      <trkpt lat="45.1648" lon="5.9437">
        <ele>2135.6592014804</ele>
        <time>2021-03-28T13:05:56Z</time>
      </trkpt>
      <trkpt lat="45.16485" lon="5.94362">
        <ele>2135.6594011374</ele>
        <time>2021-03-28T13:05:57Z</time>
      </trkpt>
      <trkpt lat="45.1649" lon="5.94353">
        <ele>2135.6596103497</ele>
        <time>2021-03-28T13:06:00Z</time>
      </trkpt>
      <trkpt lat="45.16492" lon="5.94348">
        <ele>2135.659661144</ele>
        <time>2021-03-28T13:06:01Z</time>
      </trkpt>
      <trkpt lat="45.16495" lon="5.94341">
        <ele>2134.6598160416</ele>
        <time>2021-03-28T13:06:02Z</time>
      </trkpt>
      <trkpt lat="45.165" lon="5.94332">
        <ele>2134.6599887088</ele>
        <time>2021-03-28T13:06:03Z</time>
      </trkpt>
      <trkpt lat="45.16504" lon="5.94321">
        <ele>2133.6601640582</ele>
        <time>2021-03-28T13:06:04Z</time>
      </trkpt>
      <trkpt lat="45.16507" lon="5.94309">
        <ele>2132.6602862664</ele>
        <time>2021-03-28T13:06:05Z</time>
      </trkpt>
      <trkpt lat="45.16511" lon="5.943">
        <ele>2131.6604341231</ele>
        <time>2021-03-28T13:06:06Z</time>
      </trkpt>
      <trkpt lat="45.16514" lon="5.94296">
        <ele>2129.660575442</ele>
        <time>2021-03-28T13:06:07Z</time>
      </trkpt>
      <trkpt lat="45.16519" lon="5.94287">
        <ele>2126.6607742608</ele>
        <time>2021-03-28T13:06:10Z</time>
      </trkpt>
      <trkpt lat="45.16522" lon="5.94277">
        <ele>2126.6608798727</ele>
        <time>2021-03-28T13:06:14Z</time>
      </trkpt>
      <trkpt lat="45.16525" lon="5.9427">
        <ele>2125.660999734</ele>
        <time>2021-03-28T13:06:15Z</time>
      </trkpt>
      <trkpt lat="45.16531" lon="5.94264">
        <ele>2124.6612250395</ele>
        <time>2021-03-28T13:06:17Z</time>
      </trkpt>
      <trkpt lat="45.16536" lon="5.94259">
        <ele>2124.6614303961</ele>
        <time>2021-03-28T13:06:18Z</time>
      </trkpt>
      <trkpt lat="45.16541" lon="5.94254">
        <ele>2123.6616513431</ele>
        <time>2021-03-28T13:06:18Z</time>
      </trkpt>
      <trkpt lat="45.16546" lon="5.94251">
        <ele>2122.6618449651</ele>
        <time>2021-03-28T13:06:19Z</time>
      </trkpt>
      <trkpt lat="45.16554" lon="5.9425">
        <ele>2120.6621532515</ele>
        <time>2021-03-28T13:06:22Z</time>
      </trkpt>
      <trkpt lat="45.16559" lon="5.94245">
        <ele>2119.6623405032</ele>
        <time>2021-03-28T13:06:23Z</time>
      </trkpt>
      <trkpt lat="45.16558" lon="5.94235">
        <ele>2118.6623205543</ele>
        <time>2021-03-28T13:06:24Z</time>
      </trkpt>
      <trkpt lat="45.16557" lon="5.94225">
        <ele>2117.6622796506</ele>
        <time>2021-03-28T13:06:28Z</time>
      </trkpt>
      <trkpt lat="45.16561" lon="5.94216">
        <ele>2118.6624266692</ele>
        <time>2021-03-28T13:06:30Z</time>
      </trkpt>
      <trkpt lat="45.16562" lon="5.94208">
        <ele>2116.6624912098</ele>
        <time>2021-03-28T13:06:31Z</time>
      </trkpt>
      <trkpt lat="45.16565" lon="5.94203">
        <ele>2115.662599504</ele>
        <time>2021-03-28T13:06:31Z</time>
      </trkpt>
      <trkpt lat="45.16572" lon="5.94192">
        <ele>2112.6628673896</ele>
        <time>2021-03-28T13:06:34Z</time>
      </trkpt>
      <trkpt lat="45.16575" lon="5.94184">
        <ele>2111.6629929505</ele>
        <time>2021-03-28T13:06:35Z</time>
      </trkpt>
      <trkpt lat="45.16579" lon="5.94175">
        <ele>2110.6631523743</ele>
        <time>2021-03-28T13:06:36Z</time>
      </trkpt>
      <trkpt lat="45.16583" lon="5.94166">
        <ele>2109.6633250415</ele>
        <time>2021-03-28T13:06:37Z</time>
      </trkpt>
      <trkpt lat="45.16589" lon="5.94156">
        <ele>2109.663547162</ele>
        <time>2021-03-28T13:06:38Z</time>
      </trkpt>
      <trkpt lat="45.16596" lon="5.94156">
        <ele>2106.663855616</ele>
        <time>2021-03-28T13:06:40Z</time>
      </trkpt>
      <trkpt lat="45.16604" lon="5.94154">
        <ele>2104.6641481444</ele>
        <time>2021-03-28T13:06:45Z</time>
      </trkpt>
      <trkpt lat="45.16612" lon="5.94157">
        <ele>2102.6644664891</ele>
        <time>2021-03-28T13:06:47Z</time>
      </trkpt>
      <trkpt lat="45.16616" lon="5.94159">
        <ele>2101.6646532379</ele>
        <time>2021-03-28T13:06:48Z</time>
      </trkpt>
      <trkpt lat="45.1662" lon="5.94161">
        <ele>2102.6648083031</ele>
        <time>2021-03-28T13:06:49Z</time>
      </trkpt>
      <trkpt lat="45.16626" lon="5.94162">
        <ele>2102.6650322676</ele>
        <time>2021-03-28T13:06:50Z</time>
      </trkpt>
      <trkpt lat="45.16632" lon="5.94163">
        <ele>2101.6652602553</ele>
        <time>2021-03-28T13:06:51Z</time>
      </trkpt>
      <trkpt lat="45.1664" lon="5.94164">
        <ele>2101.6655844674</ele>
        <time>2021-03-28T13:06:53Z</time>
      </trkpt>
      <trkpt lat="45.16644" lon="5.94165">
        <ele>2102.6657720543</ele>
        <time>2021-03-28T13:06:54Z</time>
      </trkpt>
      <trkpt lat="45.16651" lon="5.94165">
        <ele>2101.6660283729</ele>
        <time>2021-03-28T13:06:57Z</time>
      </trkpt>
      <trkpt lat="45.16655" lon="5.94166">
        <ele>2101.666186288</ele>
        <time>2021-03-28T13:06:58Z</time>
      </trkpt>
      <trkpt lat="45.1666" lon="5.94165">
        <ele>2101.6664053909</ele>
        <time>2021-03-28T13:06:59Z</time>
      </trkpt>
      <trkpt lat="45.16668" lon="5.94164">
        <ele>2101.6667215563</ele>
        <time>2021-03-28T13:07:00Z</time>
      </trkpt>
      <trkpt lat="45.16676" lon="5.94163">
        <ele>2100.6670273282</ele>
        <time>2021-03-28T13:07:01Z</time>
      </trkpt>
      <trkpt lat="45.16681" lon="5.9416">
        <ele>2100.6672321819</ele>
        <time>2021-03-28T13:07:01Z</time>
      </trkpt>
      <trkpt lat="45.16684" lon="5.94155">
        <ele>2099.6673740037</ele>
        <time>2021-03-28T13:07:03Z</time>
      </trkpt>
      <trkpt lat="45.1669" lon="5.94152">
        <ele>2099.6675875746</ele>
        <time>2021-03-28T13:07:04Z</time>
      </trkpt>
      <trkpt lat="45.16693" lon="5.94149">
        <ele>2099.6677322462</ele>
        <time>2021-03-28T13:07:05Z</time>
      </trkpt>
      <trkpt lat="45.16699" lon="5.94144">
        <ele>2098.6679433025</ele>
        <time>2021-03-28T13:07:06Z</time>
      </trkpt>
      <trkpt lat="45.16703" lon="5.94137">
        <ele>2098.6681000441</ele>
        <time>2021-03-28T13:07:07Z</time>
      </trkpt>
      <trkpt lat="45.16709" lon="5.94124">
        <ele>2095.6683441252</ele>
        <time>2021-03-28T13:07:08Z</time>
      </trkpt>
      <trkpt lat="45.16718" lon="5.94112">
        <ele>2094.6687052175</ele>
        <time>2021-03-28T13:07:10Z</time>
      </trkpt>
      <trkpt lat="45.16721" lon="5.94101">
        <ele>2094.6688316166</ele>
        <time>2021-03-28T13:07:12Z</time>
      </trkpt>
      <trkpt lat="45.16728" lon="5.94095">
        <ele>2093.6691372208</ele>
        <time>2021-03-28T13:07:14Z</time>
      </trkpt>
      <trkpt lat="45.16733" lon="5.9409">
        <ele>2091.6693357043</ele>
        <time>2021-03-28T13:07:17Z</time>
      </trkpt>
      <trkpt lat="45.16741" lon="5.94087">
        <ele>2090.6696221977</ele>
        <time>2021-03-28T13:07:19Z</time>
      </trkpt>
      <trkpt lat="45.16749" lon="5.94084">
        <ele>2090.6699386984</ele>
        <time>2021-03-28T13:07:21Z</time>
      </trkpt>
      <trkpt lat="45.16752" lon="5.9408">
        <ele>2089.6700805202</ele>
        <time>2021-03-28T13:07:22Z</time>
      </trkpt>
      <trkpt lat="45.16756" lon="5.94074">
        <ele>2088.6702555344</ele>
        <time>2021-03-28T13:07:23Z</time>
      </trkpt>
      <trkpt lat="45.16758" lon="5.94066">
        <ele>2087.670321919</ele>
        <time>2021-03-28T13:07:24Z</time>
      </trkpt>
      <trkpt lat="45.16759" lon="5.94058">
        <ele>2086.6703425385</ele>
        <time>2021-03-28T13:07:25Z</time>
      </trkpt>
      <trkpt lat="45.16763" lon="5.94046">
        <ele>2085.6705017947</ele>
        <time>2021-03-28T13:07:26Z</time>
      </trkpt>
      <trkpt lat="45.16761" lon="5.94034">
        <ele>2084.6704181433</ele>
        <time>2021-03-28T13:07:27Z</time>
      </trkpt>
      <trkpt lat="45.16757" lon="5.94023">
        <ele>2083.6702692807</ele>
        <time>2021-03-28T13:07:28Z</time>
      </trkpt>
      <trkpt lat="45.16757" lon="5.9401">
        <ele>2082.6702726334</ele>
        <time>2021-03-28T13:07:29Z</time>
      </trkpt>
      <trkpt lat="45.16756" lon="5.93996">
        <ele>2080.6702498347</ele>
        <time>2021-03-28T13:07:30Z</time>
      </trkpt>
      <trkpt lat="45.16759" lon="5.93981">
        <ele>2078.6703665107</ele>
        <time>2021-03-28T13:07:31Z</time>
      </trkpt>
      <trkpt lat="45.16758" lon="5.93966">
        <ele>2076.6703128666</ele>
        <time>2021-03-28T13:07:32Z</time>
      </trkpt>
      <trkpt lat="45.16764" lon="5.93953">
        <ele>2073.6705390103</ele>
        <time>2021-03-28T13:07:33Z</time>
      </trkpt>
      <trkpt lat="45.16769" lon="5.93946">
        <ele>2072.6707482226</ele>
        <time>2021-03-28T13:07:34Z</time>
      </trkpt>
      <trkpt lat="45.16763" lon="5.93938">
        <ele>2070.6705311313</ele>
        <time>2021-03-28T13:07:35Z</time>
      </trkpt>
      <trkpt lat="45.16761" lon="5.9393">
        <ele>2069.670437254</ele>
        <time>2021-03-28T13:07:36Z</time>
      </trkpt>
      <trkpt lat="45.16757" lon="5.93922">
        <ele>2068.6702935882</ele>
        <time>2021-03-28T13:07:37Z</time>
      </trkpt>
      <trkpt lat="45.1676" lon="5.93911">
        <ele>2067.6703851186</ele>
        <time>2021-03-28T13:07:39Z</time>
      </trkpt>
      <trkpt lat="45.16767" lon="5.93907">
        <ele>2065.6706898846</ele>
        <time>2021-03-28T13:07:44Z</time>
      </trkpt>
      <trkpt lat="45.16776" lon="5.93908">
        <ele>2062.6710358895</ele>
        <time>2021-03-28T13:07:50Z</time>
      </trkpt>
      <trkpt lat="45.16785" lon="5.93906">
        <ele>2061.671378877</ele>
        <time>2021-03-28T13:09:04Z</time>
      </trkpt>
      <trkpt lat="45.16795" lon="5.93908">
        <ele>2061.6718045101</ele>
        <time>2021-03-28T13:09:07Z</time>
      </trkpt>
      <trkpt lat="45.16801" lon="5.93914">
        <ele>2060.6720532849</ele>
        <time>2021-03-28T13:09:24Z</time>
      </trkpt>
      <trkpt lat="45.16806" lon="5.93917">
        <ele>2060.6722336635</ele>
        <time>2021-03-28T13:09:28Z</time>
      </trkpt>
      <trkpt lat="45.16811" lon="5.93919">
        <ele>2060.672457628</ele>
        <time>2021-03-28T13:09:30Z</time>
      </trkpt>
      <trkpt lat="45.1682" lon="5.93922">
        <ele>2059.6727826782</ele>
        <time>2021-03-28T13:09:33Z</time>
      </trkpt>
      <trkpt lat="45.16827" lon="5.93925">
        <ele>2059.6730723567</ele>
        <time>2021-03-28T13:09:35Z</time>
      </trkpt>
      <trkpt lat="45.16831" lon="5.93924">
        <ele>2058.6732413359</ele>
        <time>2021-03-28T13:09:36Z</time>
      </trkpt>
      <trkpt lat="45.16836" lon="5.93923">
        <ele>2057.6734528951</ele>
        <time>2021-03-28T13:09:38Z</time>
      </trkpt>
      <trkpt lat="45.16842" lon="5.93922">
        <ele>2056.6736736745</ele>
        <time>2021-03-28T13:09:39Z</time>
      </trkpt>
      <trkpt lat="45.16849" lon="5.9392">
        <ele>2054.6739477627</ele>
        <time>2021-03-28T13:09:41Z</time>
      </trkpt>
      <trkpt lat="45.16857" lon="5.93917">
        <ele>2053.6742830388</ele>
        <time>2021-03-28T13:09:43Z</time>
      </trkpt>
      <trkpt lat="45.16864" lon="5.93913">
        <ele>2052.6745584682</ele>
        <time>2021-03-28T13:09:45Z</time>
      </trkpt>
      <trkpt lat="45.16868" lon="5.93907">
        <ele>2051.674719736</ele>
        <time>2021-03-28T13:09:46Z</time>
      </trkpt>
      <trkpt lat="45.16875" lon="5.93896">
        <ele>2050.6749784015</ele>
        <time>2021-03-28T13:09:48Z</time>
      </trkpt>
      <trkpt lat="45.16878" lon="5.9389">
        <ele>2049.6751128472</ele>
        <time>2021-03-28T13:09:49Z</time>
      </trkpt>
      <trkpt lat="45.1688" lon="5.93884">
        <ele>2048.6752105802</ele>
        <time>2021-03-28T13:09:50Z</time>
      </trkpt>
      <trkpt lat="45.16885" lon="5.93877">
        <ele>2048.6753995083</ele>
        <time>2021-03-28T13:09:51Z</time>
      </trkpt>
      <trkpt lat="45.1689" lon="5.9387">
        <ele>2047.6756119058</ele>
        <time>2021-03-28T13:09:52Z</time>
      </trkpt>
      <trkpt lat="45.16893" lon="5.93864">
        <ele>2046.6757191941</ele>
        <time>2021-03-28T13:09:53Z</time>
      </trkpt>
      <trkpt lat="45.16896" lon="5.93852">
        <ele>2043.675833188</ele>
        <time>2021-03-28T13:09:55Z</time>
      </trkpt>
      <trkpt lat="45.16902" lon="5.93845">
        <ele>2041.6760849804</ele>
        <time>2021-03-28T13:09:57Z</time>
      </trkpt>
      <trkpt lat="45.16907" lon="5.93842">
        <ele>2040.67627877</ele>
        <time>2021-03-28T13:09:58Z</time>
      </trkpt>
      <trkpt lat="45.16911" lon="5.93837">
        <ele>2039.6764192507</ele>
        <time>2021-03-28T13:09:58Z</time>
      </trkpt>
      <trkpt lat="45.16916" lon="5.9383">
        <ele>2039.6766415387</ele>
        <time>2021-03-28T13:10:00Z</time>
      </trkpt>
      <trkpt lat="45.16921" lon="5.93823">
        <ele>2038.6768204086</ele>
        <time>2021-03-28T13:10:01Z</time>
      </trkpt>
      <trkpt lat="45.16925" lon="5.93816">
        <ele>2038.676986035</ele>
        <time>2021-03-28T13:10:02Z</time>
      </trkpt>
      <trkpt lat="45.1693" lon="5.93809">
        <ele>2037.6771965884</ele>
        <time>2021-03-28T13:10:03Z</time>
      </trkpt>
      <trkpt lat="45.16936" lon="5.93806">
        <ele>2037.6774379872</ele>
        <time>2021-03-28T13:10:04Z</time>
      </trkpt>
      <trkpt lat="45.16943" lon="5.938">
        <ele>2036.6777283363</ele>
        <time>2021-03-28T13:10:09Z</time>
      </trkpt>
      <trkpt lat="45.16949" lon="5.93794">
        <ele>2035.6779387221</ele>
        <time>2021-03-28T13:10:10Z</time>
      </trkpt>
      <trkpt lat="45.16955" lon="5.9379">
        <ele>2033.6781787798</ele>
        <time>2021-03-28T13:10:11Z</time>
      </trkpt>
      <trkpt lat="45.16959" lon="5.93786">
        <ele>2034.6783713959</ele>
        <time>2021-03-28T13:10:12Z</time>
      </trkpt>
      <trkpt lat="45.16963" lon="5.93782">
        <ele>2033.6785252877</ele>
        <time>2021-03-28T13:10:13Z</time>
      </trkpt>
      <trkpt lat="45.16969" lon="5.93777">
        <ele>2032.6787401997</ele>
        <time>2021-03-28T13:10:14Z</time>
      </trkpt>
      <trkpt lat="45.16974" lon="5.93773">
        <ele>2031.6789468974</ele>
        <time>2021-03-28T13:10:15Z</time>
      </trkpt>
      <trkpt lat="45.16979" lon="5.93767">
        <ele>2029.6791609712</ele>
        <time>2021-03-28T13:10:17Z</time>
      </trkpt>
      <trkpt lat="45.16983" lon="5.93762">
        <ele>2029.6793279387</ele>
        <time>2021-03-28T13:10:18Z</time>
      </trkpt>
      <trkpt lat="45.16989" lon="5.93758">
        <ele>2028.6795728579</ele>
        <time>2021-03-28T13:10:19Z</time>
      </trkpt>
      <trkpt lat="45.16995" lon="5.93752">
        <ele>2026.67979699</ele>
        <time>2021-03-28T13:10:21Z</time>
      </trkpt>
      <trkpt lat="45.17009" lon="5.93747">
        <ele>2025.6803746708</ele>
        <time>2021-03-28T13:10:25Z</time>
      </trkpt>
      <trkpt lat="45.17017" lon="5.93743">
        <ele>2024.6806886569</ele>
        <time>2021-03-28T13:10:31Z</time>
      </trkpt>
      <trkpt lat="45.17026" lon="5.93744">
        <ele>2023.6810366735</ele>
        <time>2021-03-28T13:10:51Z</time>
      </trkpt>
      <trkpt lat="45.1703" lon="5.93737">
        <ele>2023.6812162139</ele>
        <time>2021-03-28T13:10:54Z</time>
      </trkpt>
      <trkpt lat="45.17032" lon="5.93732">
        <ele>2021.6812908128</ele>
        <time>2021-03-28T13:10:55Z</time>
      </trkpt>
      <trkpt lat="45.17037" lon="5.93727">
        <ele>2021.6814664975</ele>
        <time>2021-03-28T13:10:56Z</time>
      </trkpt>
      <trkpt lat="45.17039" lon="5.93717">
        <ele>2021.6815560162</ele>
        <time>2021-03-28T13:10:57Z</time>
      </trkpt>
      <trkpt lat="45.17041" lon="5.93708">
        <ele>2021.6816202216</ele>
        <time>2021-03-28T13:10:58Z</time>
      </trkpt>
      <trkpt lat="45.17048" lon="5.93697">
        <ele>2020.6819182821</ele>
        <time>2021-03-28T13:10:59Z</time>
      </trkpt>
      <trkpt lat="45.17054" lon="5.93689">
        <ele>2020.6821621954</ele>
        <time>2021-03-28T13:11:00Z</time>
      </trkpt>
      <trkpt lat="45.17067" lon="5.93687">
        <ele>2019.6826669537</ele>
        <time>2021-03-28T13:11:01Z</time>
      </trkpt>
      <trkpt lat="45.17076" lon="5.93685">
        <ele>2018.6830407865</ele>
        <time>2021-03-28T13:11:02Z</time>
      </trkpt>
      <trkpt lat="45.17082" lon="5.93679">
        <ele>2017.6832885556</ele>
        <time>2021-03-28T13:11:03Z</time>
      </trkpt>
      <trkpt lat="45.17089" lon="5.93674">
        <ele>2016.6835748814</ele>
        <time>2021-03-28T13:11:05Z</time>
      </trkpt>
      <trkpt lat="45.17095" lon="5.93672">
        <ele>2012.6838134304</ele>
        <time>2021-03-28T13:11:07Z</time>
      </trkpt>
      <trkpt lat="45.17103" lon="5.93676">
        <ele>2010.6841145083</ele>
        <time>2021-03-28T13:11:11Z</time>
      </trkpt>
      <trkpt lat="45.17111" lon="5.93673">
        <ele>2008.6844420731</ele>
        <time>2021-03-28T13:11:17Z</time>
      </trkpt>
      <trkpt lat="45.17119" lon="5.93669">
        <ele>2007.6847684644</ele>
        <time>2021-03-28T13:11:23Z</time>
      </trkpt>
      <trkpt lat="45.17123" lon="5.93657">
        <ele>2003.6849221885</ele>
        <time>2021-03-28T13:11:49Z</time>
      </trkpt>
      <trkpt lat="45.17126" lon="5.93645">
        <ele>2002.685032662</ele>
        <time>2021-03-28T13:11:55Z</time>
      </trkpt>
      <trkpt lat="45.1713" lon="5.93635">
        <ele>1998.6851810217</ele>
        <time>2021-03-28T13:12:18Z</time>
      </trkpt>
      <trkpt lat="45.17143" lon="5.93619">
        <ele>1996.685714446</ele>
        <time>2021-03-28T13:12:28Z</time>
      </trkpt>
      <trkpt lat="45.17151" lon="5.93616">
        <ele>1993.6860570982</ele>
        <time>2021-03-28T13:13:26Z</time>
      </trkpt>
      <trkpt lat="45.17159" lon="5.93621">
        <ele>1993.6863539852</ele>
        <time>2021-03-28T13:13:38Z</time>
      </trkpt>
      <trkpt lat="45.17167" lon="5.93624">
        <ele>1995.6866684742</ele>
        <time>2021-03-28T13:13:51Z</time>
      </trkpt>
      <trkpt lat="45.17175" lon="5.93628">
        <ele>1995.6870102882</ele>
        <time>2021-03-28T13:13:54Z</time>
      </trkpt>
      <trkpt lat="45.1718" lon="5.93631">
        <ele>1995.6871782616</ele>
        <time>2021-03-28T13:13:55Z</time>
      </trkpt>
      <trkpt lat="45.17187" lon="5.93636">
        <ele>1994.6874863803</ele>
        <time>2021-03-28T13:13:57Z</time>
      </trkpt>
      <trkpt lat="45.17193" lon="5.93641">
        <ele>1994.6877250969</ele>
        <time>2021-03-28T13:13:59Z</time>
      </trkpt>
      <trkpt lat="45.172" lon="5.93646">
        <ele>1993.6879794039</ele>
        <time>2021-03-28T13:14:03Z</time>
      </trkpt>
      <trkpt lat="45.17206" lon="5.93655">
        <ele>1991.6882328726</ele>
        <time>2021-03-28T13:14:06Z</time>
      </trkpt>
      <trkpt lat="45.17213" lon="5.93651">
        <ele>1991.6885289215</ele>
        <time>2021-03-28T13:14:09Z</time>
      </trkpt>
      <trkpt lat="45.17217" lon="5.93649">
        <ele>1991.6886927038</ele>
        <time>2021-03-28T13:14:10Z</time>
      </trkpt>
      <trkpt lat="45.17228" lon="5.93645">
        <ele>1990.6891062669</ele>
        <time>2021-03-28T13:14:12Z</time>
      </trkpt>
      <trkpt lat="45.17232" lon="5.93643">
        <ele>1990.6892703846</ele>
        <time>2021-03-28T13:14:13Z</time>
      </trkpt>
      <trkpt lat="45.17239" lon="5.93639">
        <ele>1989.6895660982</ele>
        <time>2021-03-28T13:14:14Z</time>
      </trkpt>
      <trkpt lat="45.17247" lon="5.93636">
        <ele>1987.6898643263</ele>
        <time>2021-03-28T13:14:17Z</time>
      </trkpt>
      <trkpt lat="45.17255" lon="5.93632">
        <ele>1986.6901825033</ele>
        <time>2021-03-28T13:14:18Z</time>
      </trkpt>
      <trkpt lat="45.17262" lon="5.93631">
        <ele>1984.6904785521</ele>
        <time>2021-03-28T13:14:22Z</time>
      </trkpt>
      <trkpt lat="45.1727" lon="5.93629">
        <ele>1984.6907900237</ele>
        <time>2021-03-28T13:14:23Z</time>
      </trkpt>
      <trkpt lat="45.17277" lon="5.93627">
        <ele>1983.6910795346</ele>
        <time>2021-03-28T13:14:26Z</time>
      </trkpt>
      <trkpt lat="45.17284" lon="5.93624">
        <ele>1983.6913536228</ele>
        <time>2021-03-28T13:14:29Z</time>
      </trkpt>
      <trkpt lat="45.17292" lon="5.93621">
        <ele>1983.6916709617</ele>
        <time>2021-03-28T13:14:52Z</time>
      </trkpt>
      <trkpt lat="45.17289" lon="5.93626">
        <ele>1984.6915497594</ele>
        <time>2021-03-28T13:15:28Z</time>
      </trkpt>
      <trkpt lat="45.17304" lon="5.93629">
        <ele>1984.6921457127</ele>
        <time>2021-03-28T13:15:30Z</time>
      </trkpt>
      <trkpt lat="45.17312" lon="5.93624">
        <ele>1986.6924675778</ele>
        <time>2021-03-28T13:15:44Z</time>
      </trkpt>
      <trkpt lat="45.1732" lon="5.93621">
        <ele>1987.6927785464</ele>
        <time>2021-03-28T13:15:47Z</time>
      </trkpt>
      <trkpt lat="45.17327" lon="5.93621">
        <ele>1987.693064034</ele>
        <time>2021-03-28T13:15:49Z</time>
      </trkpt>
      <trkpt lat="45.17335" lon="5.93623">
        <ele>1987.6933884136</ele>
        <time>2021-03-28T13:15:52Z</time>
      </trkpt>
      <trkpt lat="45.17343" lon="5.93619">
        <ele>1986.6937164813</ele>
        <time>2021-03-28T13:15:59Z</time>
      </trkpt>
      <trkpt lat="45.17345" lon="5.93613">
        <ele>1986.6937793456</ele>
        <time>2021-03-28T13:16:00Z</time>
      </trkpt>
      <trkpt lat="45.17347" lon="5.93602">
        <ele>1985.6938688643</ele>
        <time>2021-03-28T13:16:01Z</time>
      </trkpt>
      <trkpt lat="45.17351" lon="5.93603">
        <ele>1985.6940220855</ele>
        <time>2021-03-28T13:16:03Z</time>
      </trkpt>
      <trkpt lat="45.17361" lon="5.93592">
        <ele>1984.6944351457</ele>
        <time>2021-03-28T13:16:05Z</time>
      </trkpt>
      <trkpt lat="45.17354" lon="5.93585">
        <ele>1979.6941741332</ele>
        <time>2021-03-28T13:16:12Z</time>
      </trkpt>
      <trkpt lat="45.17346" lon="5.93588">
        <ele>1973.6938438863</ele>
        <time>2021-03-28T13:16:20Z</time>
      </trkpt>
      <trkpt lat="45.17352" lon="5.93581">
        <ele>1973.6940770708</ele>
        <time>2021-03-28T13:16:53Z</time>
      </trkpt>
      <trkpt lat="45.17378" lon="5.93567">
        <ele>1972.6951050274</ele>
        <time>2021-03-28T13:16:57Z</time>
      </trkpt>
      <trkpt lat="45.1738" lon="5.93556">
        <ele>1970.6952057779</ele>
        <time>2021-03-28T13:16:59Z</time>
      </trkpt>
      <trkpt lat="45.17386" lon="5.93555">
        <ele>1970.6954560615</ele>
        <time>2021-03-28T13:17:00Z</time>
      </trkpt>
      <trkpt lat="45.17389" lon="5.93545">
        <ele>1967.6955724023</ele>
        <time>2021-03-28T13:17:03Z</time>
      </trkpt>
      <trkpt lat="45.17389" lon="5.93534">
        <ele>1966.6955393776</ele>
        <time>2021-03-28T13:17:05Z</time>
      </trkpt>
      <trkpt lat="45.17386" lon="5.93523">
        <ele>1965.6954567321</ele>
        <time>2021-03-28T13:17:07Z</time>
      </trkpt>
      <trkpt lat="45.17385" lon="5.93513">
        <ele>1964.6954074465</ele>
        <time>2021-03-28T13:17:08Z</time>
      </trkpt>
      <trkpt lat="45.17389" lon="5.93507">
        <ele>1964.6955685467</ele>
        <time>2021-03-28T13:17:09Z</time>
      </trkpt>
      <trkpt lat="45.17395" lon="5.93498">
        <ele>1963.6957898289</ele>
        <time>2021-03-28T13:17:10Z</time>
      </trkpt>
      <trkpt lat="45.17401" lon="5.93486">
        <ele>1962.6960557029</ele>
        <time>2021-03-28T13:17:11Z</time>
      </trkpt>
      <trkpt lat="45.17404" lon="5.93476">
        <ele>1962.6961629912</ele>
        <time>2021-03-28T13:17:12Z</time>
      </trkpt>
      <trkpt lat="45.17404" lon="5.93468">
        <ele>1961.6961567886</ele>
        <time>2021-03-28T13:17:14Z</time>
      </trkpt>
      <trkpt lat="45.17403" lon="5.9346">
        <ele>1958.6961011328</ele>
        <time>2021-03-28T13:17:15Z</time>
      </trkpt>
      <trkpt lat="45.17403" lon="5.93449">
        <ele>1957.6960999593</ele>
        <time>2021-03-28T13:17:16Z</time>
      </trkpt>
      <trkpt lat="45.174" lon="5.93439">
        <ele>1955.6960154697</ele>
        <time>2021-03-28T13:17:17Z</time>
      </trkpt>
      <trkpt lat="45.17398" lon="5.93433">
        <ele>1954.6959133781</ele>
        <time>2021-03-28T13:17:17Z</time>
      </trkpt>
      <trkpt lat="45.17403" lon="5.93421">
        <ele>1953.696109347</ele>
        <time>2021-03-28T13:17:20Z</time>
      </trkpt>
      <trkpt lat="45.17401" lon="5.93413">
        <ele>1952.6960508414</ele>
        <time>2021-03-28T13:17:20Z</time>
      </trkpt>
      <trkpt lat="45.17392" lon="5.93399">
        <ele>1950.6956763379</ele>
        <time>2021-03-28T13:17:22Z</time>
      </trkpt>
      <trkpt lat="45.17392" lon="5.93391">
        <ele>1949.6956863962</ele>
        <time>2021-03-28T13:17:24Z</time>
      </trkpt>
      <trkpt lat="45.17394" lon="5.93381">
        <ele>1948.6957665272</ele>
        <time>2021-03-28T13:17:25Z</time>
      </trkpt>
      <trkpt lat="45.17398" lon="5.93373">
        <ele>1945.6958982907</ele>
        <time>2021-03-28T13:17:27Z</time>
      </trkpt>
      <trkpt lat="45.17403" lon="5.93364">
        <ele>1940.696132984</ele>
        <time>2021-03-28T13:17:30Z</time>
      </trkpt>
      <trkpt lat="45.17401" lon="5.93358">
        <ele>1939.6960382685</ele>
        <time>2021-03-28T13:17:31Z</time>
      </trkpt>
      <trkpt lat="45.17399" lon="5.9335">
        <ele>1935.6959764101</ele>
        <time>2021-03-28T13:17:32Z</time>
      </trkpt>
      <trkpt lat="45.17401" lon="5.9334">
        <ele>1929.6960342452</ele>
        <time>2021-03-28T13:17:34Z</time>
      </trkpt>
      <trkpt lat="45.17408" lon="5.93333">
        <ele>1926.6962981075</ele>
        <time>2021-03-28T13:17:36Z</time>
      </trkpt>
      <trkpt lat="45.17415" lon="5.93328">
        <ele>1924.6965857744</ele>
        <time>2021-03-28T13:17:40Z</time>
      </trkpt>
      <trkpt lat="45.17415" lon="5.93316">
        <ele>1924.6966048852</ele>
        <time>2021-03-28T13:17:42Z</time>
      </trkpt>
      <trkpt lat="45.17414" lon="5.9331">
        <ele>1923.6965616345</ele>
        <time>2021-03-28T13:17:43Z</time>
      </trkpt>
      <trkpt lat="45.17412" lon="5.93298">
        <ele>1922.6964779831</ele>
        <time>2021-03-28T13:17:45Z</time>
      </trkpt>
      <trkpt lat="45.17413" lon="5.93287">
        <ele>1919.6965006143</ele>
        <time>2021-03-28T13:17:47Z</time>
      </trkpt>
      <trkpt lat="45.17415" lon="5.93285">
        <ele>1918.6965968385</ele>
        <time>2021-03-28T13:17:48Z</time>
      </trkpt>
      <trkpt lat="45.17422" lon="5.93286">
        <ele>1918.6968938932</ele>
        <time>2021-03-28T13:17:49Z</time>
      </trkpt>
      <trkpt lat="45.17431" lon="5.93281">
        <ele>1918.6972414069</ele>
        <time>2021-03-28T13:17:50Z</time>
      </trkpt>
      <trkpt lat="45.17438" lon="5.93271">
        <ele>1918.697500743</ele>
        <time>2021-03-28T13:17:50Z</time>
      </trkpt>
      <trkpt lat="45.17449" lon="5.93254">
        <ele>1915.6979558803</ele>
        <time>2021-03-28T13:17:53Z</time>
      </trkpt>
      <trkpt lat="45.17456" lon="5.93246">
        <ele>1914.6982225925</ele>
        <time>2021-03-28T13:17:55Z</time>
      </trkpt>
      <trkpt lat="45.17459" lon="5.93239">
        <ele>1914.6983572058</ele>
        <time>2021-03-28T13:17:56Z</time>
      </trkpt>
      <trkpt lat="45.17458" lon="5.9323">
        <ele>1914.6983065791</ele>
        <time>2021-03-28T13:17:57Z</time>
      </trkpt>
      <trkpt lat="45.17456" lon="5.93222">
        <ele>1914.6982373446</ele>
        <time>2021-03-28T13:17:58Z</time>
      </trkpt>
      <trkpt lat="45.17455" lon="5.93217">
        <ele>1913.6982070021</ele>
        <time>2021-03-28T13:17:59Z</time>
      </trkpt>
      <trkpt lat="45.17451" lon="5.93212">
        <ele>1913.6980226003</ele>
        <time>2021-03-28T13:18:00Z</time>
      </trkpt>
      <trkpt lat="45.1745" lon="5.93206">
        <ele>1913.6979972869</ele>
        <time>2021-03-28T13:18:01Z</time>
      </trkpt>
      <trkpt lat="45.17451" lon="5.93197">
        <ele>1912.6980249472</ele>
        <time>2021-03-28T13:18:02Z</time>
      </trkpt>
      <trkpt lat="45.17434" lon="5.93178">
        <ele>1909.6973627768</ele>
        <time>2021-03-28T13:18:03Z</time>
      </trkpt>
      <trkpt lat="45.17428" lon="5.93171">
        <ele>1907.6971347891</ele>
        <time>2021-03-28T13:18:07Z</time>
      </trkpt>
      <trkpt lat="45.17427" lon="5.9316">
        <ele>1905.6970650516</ele>
        <time>2021-03-28T13:18:09Z</time>
      </trkpt>
      <trkpt lat="45.17427" lon="5.93148">
        <ele>1898.6970893592</ele>
        <time>2021-03-28T13:18:44Z</time>
      </trkpt>
      <trkpt lat="45.17432" lon="5.93148">
        <ele>1895.6972868368</ele>
        <time>2021-03-28T13:18:57Z</time>
      </trkpt>
      <trkpt lat="45.17441" lon="5.93153">
        <ele>1894.697650779</ele>
        <time>2021-03-28T13:18:59Z</time>
      </trkpt>
      <trkpt lat="45.17438" lon="5.93142">
        <ele>1891.6975294091</ele>
        <time>2021-03-28T13:19:12Z</time>
      </trkpt>
      <trkpt lat="45.17436" lon="5.93121">
        <ele>1888.6974407285</ele>
        <time>2021-03-28T13:19:17Z</time>
      </trkpt>
      <trkpt lat="45.17437" lon="5.93109">
        <ele>1883.6974735856</ele>
        <time>2021-03-28T13:19:44Z</time>
      </trkpt>
      <trkpt lat="45.17442" lon="5.93101">
        <ele>1881.6976846419</ele>
        <time>2021-03-28T13:19:49Z</time>
      </trkpt>
      <trkpt lat="45.17446" lon="5.93093">
        <ele>1880.6978214346</ele>
        <time>2021-03-28T13:19:52Z</time>
      </trkpt>
      <trkpt lat="45.17446" lon="5.93084">
        <ele>1879.6978499331</ele>
        <time>2021-03-28T13:19:53Z</time>
      </trkpt>
      <trkpt lat="45.17444" lon="5.93074">
        <ele>1878.6977553852</ele>
        <time>2021-03-28T13:19:54Z</time>
      </trkpt>
      <trkpt lat="45.17445" lon="5.93064">
        <ele>1878.6978098676</ele>
        <time>2021-03-28T13:19:55Z</time>
      </trkpt>
      <trkpt lat="45.17444" lon="5.93055">
        <ele>1876.6977530383</ele>
        <time>2021-03-28T13:19:56Z</time>
      </trkpt>
      <trkpt lat="45.17443" lon="5.93045">
        <ele>1875.6977069378</ele>
        <time>2021-03-28T13:19:57Z</time>
      </trkpt>
      <trkpt lat="45.17444" lon="5.93032">
        <ele>1873.6977471709</ele>
        <time>2021-03-28T13:19:59Z</time>
      </trkpt>
      <trkpt lat="45.17444" lon="5.93023">
        <ele>1873.6977694668</ele>
        <time>2021-03-28T13:20:01Z</time>
      </trkpt>
      <trkpt lat="45.17442" lon="5.93014">
        <ele>1872.69767626</ele>
        <time>2021-03-28T13:20:04Z</time>
      </trkpt>
      <trkpt lat="45.17438" lon="5.93008">
        <ele>1872.697526224</ele>
        <time>2021-03-28T13:20:06Z</time>
      </trkpt>
      <trkpt lat="45.1743" lon="5.93004">
        <ele>1872.6971914507</ele>
        <time>2021-03-28T13:20:08Z</time>
      </trkpt>
      <trkpt lat="45.17425" lon="5.93002">
        <ele>1872.6969927996</ele>
        <time>2021-03-28T13:20:09Z</time>
      </trkpt>
      <trkpt lat="45.17417" lon="5.92997">
        <ele>1872.6966794841</ele>
        <time>2021-03-28T13:20:12Z</time>
      </trkpt>
      <trkpt lat="45.17418" lon="5.9299">
        <ele>1872.6967143528</ele>
        <time>2021-03-28T13:20:14Z</time>
      </trkpt>
      <trkpt lat="45.17428" lon="5.92981">
        <ele>1871.6971218809</ele>
        <time>2021-03-28T13:20:15Z</time>
      </trkpt>
      <trkpt lat="45.1743" lon="5.9297">
        <ele>1870.6972102262</ele>
        <time>2021-03-28T13:20:18Z</time>
      </trkpt>
      <trkpt lat="45.17429" lon="5.92965">
        <ele>1870.6971592642</ele>
        <time>2021-03-28T13:20:19Z</time>
      </trkpt>
      <trkpt lat="45.17418" lon="5.92944">
        <ele>1869.6967329606</ele>
        <time>2021-03-28T13:20:21Z</time>
      </trkpt>
      <trkpt lat="45.17419" lon="5.92938">
        <ele>1868.6967413425</ele>
        <time>2021-03-28T13:20:22Z</time>
      </trkpt>
      <trkpt lat="45.17414" lon="5.92928">
        <ele>1867.6965737045</ele>
        <time>2021-03-28T13:20:23Z</time>
      </trkpt>
      <trkpt lat="45.17413" lon="5.92921">
        <ele>1867.6965187192</ele>
        <time>2021-03-28T13:20:24Z</time>
      </trkpt>
      <trkpt lat="45.17407" lon="5.92912">
        <ele>1867.6962704472</ele>
        <time>2021-03-28T13:20:25Z</time>
      </trkpt>
      <trkpt lat="45.17402" lon="5.92902">
        <ele>1866.6960800104</ele>
        <time>2021-03-28T13:20:26Z</time>
      </trkpt>
      <trkpt lat="45.17395" lon="5.92891">
        <ele>1866.6957935169</ele>
        <time>2021-03-28T13:20:26Z</time>
      </trkpt>
      <trkpt lat="45.17386" lon="5.92883">
        <ele>1865.6954309158</ele>
        <time>2021-03-28T13:20:28Z</time>
      </trkpt>
      <trkpt lat="45.17375" lon="5.92874">
        <ele>1866.6949912012</ele>
        <time>2021-03-28T13:20:29Z</time>
      </trkpt>
      <trkpt lat="45.17368" lon="5.92866">
        <ele>1865.6947228126</ele>
        <time>2021-03-28T13:20:31Z</time>
      </trkpt>
      <trkpt lat="45.17366" lon="5.9286">
        <ele>1864.6946269237</ele>
        <time>2021-03-28T13:20:31Z</time>
      </trkpt>
      <trkpt lat="45.1736" lon="5.92847">
        <ele>1864.6944049709</ele>
        <time>2021-03-28T13:20:33Z</time>
      </trkpt>
      <trkpt lat="45.17358" lon="5.92842">
        <ele>1862.6943379156</ele>
        <time>2021-03-28T13:20:35Z</time>
      </trkpt>
      <trkpt lat="45.17353" lon="5.92843">
        <ele>1857.6941241771</ele>
        <time>2021-03-28T13:20:48Z</time>
      </trkpt>
      <trkpt lat="45.17346" lon="5.92838">
        <ele>1856.6938344985</ele>
        <time>2021-03-28T13:20:51Z</time>
      </trkpt>
      <trkpt lat="45.17342" lon="5.92831">
        <ele>1854.6936918385</ele>
        <time>2021-03-28T13:20:57Z</time>
      </trkpt>
      <trkpt lat="45.17338" lon="5.92825">
        <ele>1853.6935045868</ele>
        <time>2021-03-28T13:20:58Z</time>
      </trkpt>
      <trkpt lat="45.17329" lon="5.92811">
        <ele>1852.6931647845</ele>
        <time>2021-03-28T13:21:00Z</time>
      </trkpt>
      <trkpt lat="45.17327" lon="5.92799">
        <ele>1849.6930863298</ele>
        <time>2021-03-28T13:21:04Z</time>
      </trkpt>
      <trkpt lat="45.17319" lon="5.92796">
        <ele>1847.6927500479</ele>
        <time>2021-03-28T13:21:07Z</time>
      </trkpt>
      <trkpt lat="45.1731" lon="5.92792">
        <ele>1845.69241561</ele>
        <time>2021-03-28T13:21:10Z</time>
      </trkpt>
      <trkpt lat="45.17312" lon="5.92782">
        <ele>1844.6924913824</ele>
        <time>2021-03-28T13:21:14Z</time>
      </trkpt>
      <trkpt lat="45.1731" lon="5.9277">
        <ele>1843.6923931465</ele>
        <time>2021-03-28T13:21:17Z</time>
      </trkpt>
      <trkpt lat="45.17312" lon="5.9276">
        <ele>1842.6924716011</ele>
        <time>2021-03-28T13:21:20Z</time>
      </trkpt>
      <trkpt lat="45.17311" lon="5.92751">
        <ele>1840.6924493052</ele>
        <time>2021-03-28T13:21:26Z</time>
      </trkpt>
      <trkpt lat="45.17305" lon="5.92751">
        <ele>1840.6921810843</ele>
        <time>2021-03-28T13:21:27Z</time>
      </trkpt>
      <trkpt lat="45.17301" lon="5.92749">
        <ele>1840.6920275278</ele>
        <time>2021-03-28T13:21:27Z</time>
      </trkpt>
      <trkpt lat="45.1729" lon="5.92746">
        <ele>1836.6915782578</ele>
        <time>2021-03-28T13:21:32Z</time>
      </trkpt>
      <trkpt lat="45.17283" lon="5.92742">
        <ele>1833.6913177483</ele>
        <time>2021-03-28T13:21:47Z</time>
      </trkpt>
      <trkpt lat="45.17279" lon="5.92737">
        <ele>1833.691171065</ele>
        <time>2021-03-28T13:21:49Z</time>
      </trkpt>
      <trkpt lat="45.17277" lon="5.92732">
        <ele>1831.6910780258</ele>
        <time>2021-03-28T13:21:50Z</time>
      </trkpt>
      <trkpt lat="45.17274" lon="5.92726">
        <ele>1830.6909502856</ele>
        <time>2021-03-28T13:21:50Z</time>
      </trkpt>
      <trkpt lat="45.17272" lon="5.92719">
        <ele>1829.6908884272</ele>
        <time>2021-03-28T13:21:53Z</time>
      </trkpt>
      <trkpt lat="45.17269" lon="5.9271">
        <ele>1828.6907472759</ele>
        <time>2021-03-28T13:21:55Z</time>
      </trkpt>
      <trkpt lat="45.1727" lon="5.92701">
        <ele>1827.6908123195</ele>
        <time>2021-03-28T13:22:02Z</time>
      </trkpt>
      <trkpt lat="45.17288" lon="5.92701">
        <ele>1826.6915163994</ele>
        <time>2021-03-28T13:22:04Z</time>
      </trkpt>
      <trkpt lat="45.17293" lon="5.92702">
        <ele>1821.6917053275</ele>
        <time>2021-03-28T13:22:25Z</time>
      </trkpt>
      <trkpt lat="45.17309" lon="5.92706">
        <ele>1821.692374371</ele>
        <time>2021-03-28T13:22:29Z</time>
      </trkpt>
      <trkpt lat="45.17303" lon="5.92709">
        <ele>1819.6921356544</ele>
        <time>2021-03-28T13:22:35Z</time>
      </trkpt>
      <trkpt lat="45.17296" lon="5.92707">
        <ele>1818.6918344088</ele>
        <time>2021-03-28T13:22:37Z</time>
      </trkpt>
      <trkpt lat="45.17288" lon="5.92703">
        <ele>1815.6915309839</ele>
        <time>2021-03-28T13:22:42Z</time>
      </trkpt>
      <trkpt lat="45.1728" lon="5.92703">
        <ele>1814.6911781058</ele>
        <time>2021-03-28T13:22:44Z</time>
      </trkpt>
      <trkpt lat="45.17275" lon="5.92709">
        <ele>1809.6910092942</ele>
        <time>2021-03-28T13:23:02Z</time>
      </trkpt>
      <trkpt lat="45.17286" lon="5.92712">
        <ele>1810.6914446503</ele>
        <time>2021-03-28T13:23:05Z</time>
      </trkpt>
      <trkpt lat="45.17319" lon="5.92707">
        <ele>1815.6927617826</ele>
        <time>2021-03-28T13:23:11Z</time>
      </trkpt>
      <trkpt lat="45.17321" lon="5.92708">
        <ele>1816.6928201206</ele>
        <time>2021-03-28T13:23:12Z</time>
      </trkpt>
      <trkpt lat="45.1733" lon="5.92712">
        <ele>1817.6931792013</ele>
        <time>2021-03-28T13:23:14Z</time>
      </trkpt>
      <trkpt lat="45.17326" lon="5.92713">
        <ele>1818.6930454262</ele>
        <time>2021-03-28T13:23:15Z</time>
      </trkpt>
      <trkpt lat="45.17318" lon="5.92711">
        <ele>1820.6927113235</ele>
        <time>2021-03-28T13:23:17Z</time>
      </trkpt>
      <trkpt lat="45.17308" lon="5.92707">
        <ele>1819.6923079863</ele>
        <time>2021-03-28T13:23:19Z</time>
      </trkpt>
      <trkpt lat="45.17301" lon="5.92704">
        <ele>1819.69202099</ele>
        <time>2021-03-28T13:23:20Z</time>
      </trkpt>
      <trkpt lat="45.17294" lon="5.92698">
        <ele>1818.6917495839</ele>
        <time>2021-03-28T13:23:21Z</time>
      </trkpt>
      <trkpt lat="45.17289" lon="5.92692">
        <ele>1818.6915475801</ele>
        <time>2021-03-28T13:23:22Z</time>
      </trkpt>
      <trkpt lat="45.1728" lon="5.92685">
        <ele>1818.6911948696</ele>
        <time>2021-03-28T13:23:23Z</time>
      </trkpt>
      <trkpt lat="45.17278" lon="5.92674">
        <ele>1817.6911082007</ele>
        <time>2021-03-28T13:23:26Z</time>
      </trkpt>
      <trkpt lat="45.17279" lon="5.92667">
        <ele>1817.6911402196</ele>
        <time>2021-03-28T13:23:27Z</time>
      </trkpt>
      <trkpt lat="45.17284" lon="5.92663">
        <ele>1817.6913459115</ele>
        <time>2021-03-28T13:23:28Z</time>
      </trkpt>
      <trkpt lat="45.17292" lon="5.92658">
        <ele>1816.6916977838</ele>
        <time>2021-03-28T13:23:29Z</time>
      </trkpt>
      <trkpt lat="45.17297" lon="5.92649">
        <ele>1816.6918858737</ele>
        <time>2021-03-28T13:23:30Z</time>
      </trkpt>
      <trkpt lat="45.17302" lon="5.92644">
        <ele>1815.6920748018</ele>
        <time>2021-03-28T13:23:31Z</time>
      </trkpt>
      <trkpt lat="45.17306" lon="5.9264">
        <ele>1815.6922295317</ele>
        <time>2021-03-28T13:23:32Z</time>
      </trkpt>
      <trkpt lat="45.17313" lon="5.92633">
        <ele>1811.6925135106</ele>
        <time>2021-03-28T13:23:44Z</time>
      </trkpt>
      <trkpt lat="45.17315" lon="5.92628">
        <ele>1810.6926021911</ele>
        <time>2021-03-28T13:23:45Z</time>
      </trkpt>
      <trkpt lat="45.17318" lon="5.92622">
        <ele>1809.6927368045</ele>
        <time>2021-03-28T13:23:46Z</time>
      </trkpt>
      <trkpt lat="45.17326" lon="5.92622">
        <ele>1809.6930261478</ele>
        <time>2021-03-28T13:23:47Z</time>
      </trkpt>
      <trkpt lat="45.17332" lon="5.92617">
        <ele>1807.6932878308</ele>
        <time>2021-03-28T13:23:49Z</time>
      </trkpt>
      <trkpt lat="45.17334" lon="5.9261">
        <ele>1806.6933399662</ele>
        <time>2021-03-28T13:23:50Z</time>
      </trkpt>
      <trkpt lat="45.17333" lon="5.92602">
        <ele>1805.6933324225</ele>
        <time>2021-03-28T13:23:51Z</time>
      </trkpt>
      <trkpt lat="45.17341" lon="5.92596">
        <ele>1804.6936380267</ele>
        <time>2021-03-28T13:23:52Z</time>
      </trkpt>
      <trkpt lat="45.17348" lon="5.9259">
        <ele>1803.693931561</ele>
        <time>2021-03-28T13:23:53Z</time>
      </trkpt>
      <trkpt lat="45.1736" lon="5.92569">
        <ele>1802.6944175437</ele>
        <time>2021-03-28T13:23:54Z</time>
      </trkpt>
      <trkpt lat="45.17365" lon="5.9256">
        <ele>1801.694603119</ele>
        <time>2021-03-28T13:23:56Z</time>
      </trkpt>
      <trkpt lat="45.17368" lon="5.92551">
        <ele>1800.6947104074</ele>
        <time>2021-03-28T13:23:57Z</time>
      </trkpt>
      <trkpt lat="45.17371" lon="5.92543">
        <ele>1799.6948351301</ele>
        <time>2021-03-28T13:23:58Z</time>
      </trkpt>
      <trkpt lat="45.17374" lon="5.92536">
        <ele>1798.6949700788</ele>
        <time>2021-03-28T13:23:59Z</time>
      </trkpt>
      <trkpt lat="45.17377" lon="5.92526">
        <ele>1798.6950942986</ele>
        <time>2021-03-28T13:24:01Z</time>
      </trkpt>
      <trkpt lat="45.17378" lon="5.92515">
        <ele>1798.6951372139</ele>
        <time>2021-03-28T13:24:04Z</time>
      </trkpt>
      <trkpt lat="45.1738" lon="5.92508">
        <ele>1797.6951883435</ele>
        <time>2021-03-28T13:24:11Z</time>
      </trkpt>
      <trkpt lat="45.17391" lon="5.92483">
        <ele>1798.6956470013</ele>
        <time>2021-03-28T13:24:14Z</time>
      </trkpt>
      <trkpt lat="45.17386" lon="5.92478">
        <ele>1798.6954543851</ele>
        <time>2021-03-28T13:24:16Z</time>
      </trkpt>
      <trkpt lat="45.17393" lon="5.92466">
        <ele>1798.6957061775</ele>
        <time>2021-03-28T13:24:18Z</time>
      </trkpt>
      <trkpt lat="45.17398" lon="5.92457">
        <ele>1798.6959200837</ele>
        <time>2021-03-28T13:24:20Z</time>
      </trkpt>
      <trkpt lat="45.17399" lon="5.92451">
        <ele>1798.6959614903</ele>
        <time>2021-03-28T13:24:21Z</time>
      </trkpt>
      <trkpt lat="45.17405" lon="5.92442">
        <ele>1798.6961975247</ele>
        <time>2021-03-28T13:24:23Z</time>
      </trkpt>
      <trkpt lat="45.17405" lon="5.9243">
        <ele>1798.6961903162</ele>
        <time>2021-03-28T13:24:27Z</time>
      </trkpt>
      <trkpt lat="45.17405" lon="5.92425">
        <ele>1798.6962174736</ele>
        <time>2021-03-28T13:24:28Z</time>
      </trkpt>
      <trkpt lat="45.17416" lon="5.92416">
        <ele>1798.6966412626</ele>
        <time>2021-03-28T13:24:31Z</time>
      </trkpt>
      <trkpt lat="45.17423" lon="5.92409">
        <ele>1798.6969022751</ele>
        <time>2021-03-28T13:24:33Z</time>
      </trkpt>
      <trkpt lat="45.17429" lon="5.92403">
        <ele>1798.6971421652</ele>
        <time>2021-03-28T13:24:33Z</time>
      </trkpt>
      <trkpt lat="45.17433" lon="5.92394">
        <ele>1797.6973205321</ele>
        <time>2021-03-28T13:24:36Z</time>
      </trkpt>
      <trkpt lat="45.17438" lon="5.92384">
        <ele>1796.6975071132</ele>
        <time>2021-03-28T13:24:39Z</time>
      </trkpt>
      <trkpt lat="45.17443" lon="5.92376">
        <ele>1791.6977337599</ele>
        <time>2021-03-28T13:24:43Z</time>
      </trkpt>
      <trkpt lat="45.17448" lon="5.92366">
        <ele>1787.697911121</ele>
        <time>2021-03-28T13:24:47Z</time>
      </trkpt>
      <trkpt lat="45.17452" lon="5.9236">
        <ele>1785.6980973668</ele>
        <time>2021-03-28T13:24:49Z</time>
      </trkpt>
      <trkpt lat="45.17457" lon="5.92349">
        <ele>1782.6982581317</ele>
        <time>2021-03-28T13:24:55Z</time>
      </trkpt>
      <trkpt lat="45.1745" lon="5.92342">
        <ele>1771.6979848817</ele>
        <time>2021-03-28T13:25:27Z</time>
      </trkpt>
      <trkpt lat="45.17456" lon="5.92334">
        <ele>1767.6982376799</ele>
        <time>2021-03-28T13:25:31Z</time>
      </trkpt>
      <trkpt lat="45.17457" lon="5.92328">
        <ele>1763.6982670166</ele>
        <time>2021-03-28T13:25:33Z</time>
      </trkpt>
      <trkpt lat="45.17463" lon="5.92321">
        <ele>1761.698512271</ele>
        <time>2021-03-28T13:25:36Z</time>
      </trkpt>
      <trkpt lat="45.17471" lon="5.92323">
        <ele>1759.6988331303</ele>
        <time>2021-03-28T13:25:38Z</time>
      </trkpt>
      <trkpt lat="45.1748" lon="5.92323">
        <ele>1758.6991799735</ele>
        <time>2021-03-28T13:25:40Z</time>
      </trkpt>
      <trkpt lat="45.17485" lon="5.92322">
        <ele>1757.6994037703</ele>
        <time>2021-03-28T13:25:41Z</time>
      </trkpt>
      <trkpt lat="45.1749" lon="5.92316">
        <ele>1755.699614659</ele>
        <time>2021-03-28T13:25:43Z</time>
      </trkpt>
      <trkpt lat="45.17494" lon="5.92311">
        <ele>1754.6997457519</ele>
        <time>2021-03-28T13:25:44Z</time>
      </trkpt>
      <trkpt lat="45.17498" lon="5.92305">
        <ele>1753.6999001466</ele>
        <time>2021-03-28T13:25:45Z</time>
      </trkpt>
      <trkpt lat="45.17502" lon="5.92295">
        <ele>1750.7000894099</ele>
        <time>2021-03-28T13:25:48Z</time>
      </trkpt>
      <trkpt lat="45.1751" lon="5.92291">
        <ele>1749.7004042342</ele>
        <time>2021-03-28T13:25:53Z</time>
      </trkpt>
      <trkpt lat="45.17516" lon="5.92283">
        <ele>1744.7006541826</ele>
        <time>2021-03-28T13:25:57Z</time>
      </trkpt>
      <trkpt lat="45.17521" lon="5.92277">
        <ele>1742.7008209825</ele>
        <time>2021-03-28T13:25:59Z</time>
      </trkpt>
      <trkpt lat="45.17526" lon="5.92267">
        <ele>1738.7010236569</ele>
        <time>2021-03-28T13:26:07Z</time>
      </trkpt>
      <trkpt lat="45.17532" lon="5.92272">
        <ele>1736.7012895308</ele>
        <time>2021-03-28T13:26:13Z</time>
      </trkpt>
      <trkpt lat="45.17532" lon="5.92287">
        <ele>1733.7012962364</ele>
        <time>2021-03-28T13:26:15Z</time>
      </trkpt>
      <trkpt lat="45.17538" lon="5.92296">
        <ele>1731.701522883</ele>
        <time>2021-03-28T13:26:20Z</time>
      </trkpt>
      <trkpt lat="45.17543" lon="5.92294">
        <ele>1730.7017317601</ele>
        <time>2021-03-28T13:26:21Z</time>
      </trkpt>
      <trkpt lat="45.17548" lon="5.92285">
        <ele>1729.70191985</ele>
        <time>2021-03-28T13:26:23Z</time>
      </trkpt>
      <trkpt lat="45.17551" lon="5.92274">
        <ele>1724.7020321675</ele>
        <time>2021-03-28T13:26:32Z</time>
      </trkpt>
      <trkpt lat="45.1755" lon="5.92263">
        <ele>1712.7019915991</ele>
        <time>2021-03-28T13:27:19Z</time>
      </trkpt>
      <trkpt lat="45.17553" lon="5.92252">
        <ele>1711.7021253742</ele>
        <time>2021-03-28T13:27:30Z</time>
      </trkpt>
      <trkpt lat="45.17555" lon="5.9224">
        <ele>1710.7021803595</ele>
        <time>2021-03-28T13:27:41Z</time>
      </trkpt>
      <trkpt lat="45.17559" lon="5.92229">
        <ele>1710.7023488358</ele>
        <time>2021-03-28T13:27:49Z</time>
      </trkpt>
      <trkpt lat="45.1756" lon="5.92216">
        <ele>1709.7024029829</ele>
        <time>2021-03-28T13:27:59Z</time>
      </trkpt>
      <trkpt lat="45.17566" lon="5.92209">
        <ele>1709.7026549429</ele>
        <time>2021-03-28T13:28:09Z</time>
      </trkpt>
      <trkpt lat="45.17572" lon="5.92201">
        <ele>1709.7028753869</ele>
        <time>2021-03-28T13:28:15Z</time>
      </trkpt>
      <trkpt lat="45.17574" lon="5.92191">
        <ele>1709.7029525004</ele>
        <time>2021-03-28T13:28:20Z</time>
      </trkpt>
      <trkpt lat="45.17579" lon="5.92182">
        <ele>1708.7031764649</ele>
        <time>2021-03-28T13:28:28Z</time>
      </trkpt>
      <trkpt lat="45.17583" lon="5.92171">
        <ele>1708.7033127546</ele>
        <time>2021-03-28T13:28:37Z</time>
      </trkpt>
      <trkpt lat="45.17586" lon="5.9216">
        <ele>1706.7034416683</ele>
        <time>2021-03-28T13:28:43Z</time>
      </trkpt>
      <trkpt lat="45.1759" lon="5.92152">
        <ele>1706.7035801373</ele>
        <time>2021-03-28T13:28:48Z</time>
      </trkpt>
      <trkpt lat="45.17594" lon="5.92145">
        <ele>1705.7037705742</ele>
        <time>2021-03-28T13:28:51Z</time>
      </trkpt>
      <trkpt lat="45.176" lon="5.92136">
        <ele>1705.7040000707</ele>
        <time>2021-03-28T13:28:56Z</time>
      </trkpt>
      <trkpt lat="45.17605" lon="5.9213">
        <ele>1704.7041804492</ele>
        <time>2021-03-28T13:28:58Z</time>
      </trkpt>
      <trkpt lat="45.1761" lon="5.92123">
        <ele>1704.7044107839</ele>
        <time>2021-03-28T13:29:00Z</time>
      </trkpt>
      <trkpt lat="45.17615" lon="5.92116">
        <ele>1704.7045909949</ele>
        <time>2021-03-28T13:29:03Z</time>
      </trkpt>
      <trkpt lat="45.17618" lon="5.92104">
        <ele>1702.7047299668</ele>
        <time>2021-03-28T13:29:10Z</time>
      </trkpt>
      <trkpt lat="45.17623" lon="5.92095">
        <ele>1702.7049296238</ele>
        <time>2021-03-28T13:29:12Z</time>
      </trkpt>
      <trkpt lat="45.17629" lon="5.92089">
        <ele>1702.7051477209</ele>
        <time>2021-03-28T13:29:16Z</time>
      </trkpt>
      <trkpt lat="45.17632" lon="5.92087">
        <ele>1701.7052659057</ele>
        <time>2021-03-28T13:29:16Z</time>
      </trkpt>
      <trkpt lat="45.1764" lon="5.92085">
        <ele>1701.7055783831</ele>
        <time>2021-03-28T13:29:19Z</time>
      </trkpt>
      <trkpt lat="45.17646" lon="5.92079">
        <ele>1700.7058281638</ele>
        <time>2021-03-28T13:29:20Z</time>
      </trkpt>
      <trkpt lat="45.17654" lon="5.92073">
        <ele>1700.7061607577</ele>
        <time>2021-03-28T13:29:23Z</time>
      </trkpt>
      <trkpt lat="45.17659" lon="5.92073">
        <ele>1700.7063610852</ele>
        <time>2021-03-28T13:29:24Z</time>
      </trkpt>
      <trkpt lat="45.17664" lon="5.92065">
        <ele>1700.7065483369</ele>
        <time>2021-03-28T13:29:27Z</time>
      </trkpt>
      <trkpt lat="45.17667" lon="5.92055">
        <ele>1699.7066767476</ele>
        <time>2021-03-28T13:29:29Z</time>
      </trkpt>
      <trkpt lat="45.17669" lon="5.92046">
        <ele>1698.7067402825</ele>
        <time>2021-03-28T13:29:31Z</time>
      </trkpt>
      <trkpt lat="45.17672" lon="5.92035">
        <ele>1696.7068874687</ele>
        <time>2021-03-28T13:29:35Z</time>
      </trkpt>
      <trkpt lat="45.17676" lon="5.92025">
        <ele>1695.707043875</ele>
        <time>2021-03-28T13:29:39Z</time>
      </trkpt>
      <trkpt lat="45.17679" lon="5.92016">
        <ele>1695.7071518339</ele>
        <time>2021-03-28T13:29:43Z</time>
      </trkpt>
      <trkpt lat="45.17682" lon="5.92011">
        <ele>1694.707276389</ele>
        <time>2021-03-28T13:29:44Z</time>
      </trkpt>
      <trkpt lat="45.17689" lon="5.92005">
        <ele>1694.7075518183</ele>
        <time>2021-03-28T13:29:45Z</time>
      </trkpt>
      <trkpt lat="45.17695" lon="5.92">
        <ele>1694.707788188</ele>
        <time>2021-03-28T13:29:48Z</time>
      </trkpt>
      <trkpt lat="45.17699" lon="5.9199">
        <ele>1693.7079777867</ele>
        <time>2021-03-28T13:29:50Z</time>
      </trkpt>
      <trkpt lat="45.17704" lon="5.91981">
        <ele>1691.7081643678</ele>
        <time>2021-03-28T13:29:55Z</time>
      </trkpt>
      <trkpt lat="45.17706" lon="5.91973">
        <ele>1690.7082564011</ele>
        <time>2021-03-28T13:29:58Z</time>
      </trkpt>
      <trkpt lat="45.1771" lon="5.91967">
        <ele>1690.7084126398</ele>
        <time>2021-03-28T13:30:00Z</time>
      </trkpt>
      <trkpt lat="45.17715" lon="5.91958">
        <ele>1690.7086052559</ele>
        <time>2021-03-28T13:30:02Z</time>
      </trkpt>
      <trkpt lat="45.17719" lon="5.91948">
        <ele>1688.7087522745</ele>
        <time>2021-03-28T13:30:04Z</time>
      </trkpt>
      <trkpt lat="45.17723" lon="5.91939">
        <ele>1687.7089329883</ele>
        <time>2021-03-28T13:30:06Z</time>
      </trkpt>
      <trkpt lat="45.17727" lon="5.91929">
        <ele>1686.7090909034</ele>
        <time>2021-03-28T13:30:09Z</time>
      </trkpt>
      <trkpt lat="45.17722" lon="5.91919">
        <ele>1683.7088951021</ele>
        <time>2021-03-28T13:30:18Z</time>
      </trkpt>
      <trkpt lat="45.17728" lon="5.91916">
        <ele>1681.7091090083</ele>
        <time>2021-03-28T13:31:05Z</time>
      </trkpt>
      <trkpt lat="45.17734" lon="5.91907">
        <ele>1680.7093589567</ele>
        <time>2021-03-28T13:31:09Z</time>
      </trkpt>
      <trkpt lat="45.17739" lon="5.91898">
        <ele>1677.7095604576</ele>
        <time>2021-03-28T13:31:17Z</time>
      </trkpt>
      <trkpt lat="45.17744" lon="5.91893">
        <ele>1676.7097686641</ele>
        <time>2021-03-28T13:31:19Z</time>
      </trkpt>
      <trkpt lat="45.1775" lon="5.91883">
        <ele>1674.7099839114</ele>
        <time>2021-03-28T13:31:26Z</time>
      </trkpt>
      <trkpt lat="45.17755" lon="5.91874">
        <ele>1671.710198991</ele>
        <time>2021-03-28T13:31:33Z</time>
      </trkpt>
      <trkpt lat="45.17763" lon="5.91875">
        <ele>1668.7105087861</ele>
        <time>2021-03-28T13:33:44Z</time>
      </trkpt>
      <trkpt lat="45.17774" lon="5.91869">
        <ele>1667.710957218</ele>
        <time>2021-03-28T13:33:50Z</time>
      </trkpt>
      <trkpt lat="45.17779" lon="5.9186">
        <ele>1667.7111511752</ele>
        <time>2021-03-28T13:34:15Z</time>
      </trkpt>
      <trkpt lat="45.17785" lon="5.91855">
        <ele>1666.7113919035</ele>
        <time>2021-03-28T13:34:43Z</time>
      </trkpt>
      <trkpt lat="45.17788" lon="5.91848">
        <ele>1671.7114993595</ele>
        <time>2021-03-28T13:35:09Z</time>
      </trkpt>
      <trkpt lat="45.17784" lon="5.91838">
        <ele>1665.7113493234</ele>
        <time>2021-03-28T13:35:49Z</time>
      </trkpt>
      <trkpt lat="45.17775" lon="5.91839">
        <ele>1661.7109977864</ele>
        <time>2021-03-28T13:35:58Z</time>
      </trkpt>
      <trkpt lat="45.1777" lon="5.91829">
        <ele>1659.710810367</ele>
        <time>2021-03-28T13:36:07Z</time>
      </trkpt>
      <trkpt lat="45.17777" lon="5.91822">
        <ele>1659.711066518</ele>
        <time>2021-03-28T13:36:19Z</time>
      </trkpt>
      <trkpt lat="45.17784" lon="5.9182">
        <ele>1658.7113763131</ele>
        <time>2021-03-28T13:36:34Z</time>
      </trkpt>
      <trkpt lat="45.17791" lon="5.91825">
        <ele>1659.7116564363</ele>
        <time>2021-03-28T13:36:46Z</time>
      </trkpt>
      <trkpt lat="45.17798" lon="5.91832">
        <ele>1659.7119286805</ele>
        <time>2021-03-28T13:36:54Z</time>
      </trkpt>
      <trkpt lat="45.17803" lon="5.91827">
        <ele>1658.7121357135</ele>
        <time>2021-03-28T13:36:57Z</time>
      </trkpt>
      <trkpt lat="45.17803" lon="5.91814">
        <ele>1652.7121120766</ele>
        <time>2021-03-28T13:37:12Z</time>
      </trkpt>
      <trkpt lat="45.17796" lon="5.91809">
        <ele>1651.7118445262</ele>
        <time>2021-03-28T13:37:22Z</time>
      </trkpt>
      <trkpt lat="45.17791" lon="5.91799">
        <ele>1647.7116383314</ele>
        <time>2021-03-28T13:37:39Z</time>
      </trkpt>
      <trkpt lat="45.17798" lon="5.91792">
        <ele>1644.7119254954</ele>
        <time>2021-03-28T13:37:55Z</time>
      </trkpt>
      <trkpt lat="45.17807" lon="5.91796">
        <ele>1644.7122614421</ele>
        <time>2021-03-28T13:38:08Z</time>
      </trkpt>
      <trkpt lat="45.17814" lon="5.91795">
        <ele>1641.7125626877</ele>
        <time>2021-03-28T13:38:22Z</time>
      </trkpt>
      <trkpt lat="45.17821" lon="5.91787">
        <ele>1636.7128285617</ele>
        <time>2021-03-28T13:38:34Z</time>
      </trkpt>
      <trkpt lat="45.17813" lon="5.9178">
        <ele>1632.7125284895</ele>
        <time>2021-03-28T13:38:48Z</time>
      </trkpt>
      <trkpt lat="45.1781" lon="5.9177">
        <ele>1631.7124173455</ele>
        <time>2021-03-28T13:38:59Z</time>
      </trkpt>
      <trkpt lat="45.17805" lon="5.91762">
        <ele>1630.7122088037</ele>
        <time>2021-03-28T13:39:05Z</time>
      </trkpt>
      <trkpt lat="45.17797" lon="5.91765">
        <ele>1630.711877048</ele>
        <time>2021-03-28T13:39:13Z</time>
      </trkpt>
      <trkpt lat="45.17788" lon="5.91766">
        <ele>1628.7115208171</ele>
        <time>2021-03-28T13:39:19Z</time>
      </trkpt>
      <trkpt lat="45.17781" lon="5.9176">
        <ele>1625.7112195715</ele>
        <time>2021-03-28T13:39:26Z</time>
      </trkpt>
      <trkpt lat="45.17778" lon="5.91753">
        <ele>1625.7111243531</ele>
        <time>2021-03-28T13:39:32Z</time>
      </trkpt>
      <trkpt lat="45.17771" lon="5.91747">
        <ele>1623.710840039</ele>
        <time>2021-03-28T13:39:38Z</time>
      </trkpt>
      <trkpt lat="45.17774" lon="5.91737">
        <ele>1620.7109476626</ele>
        <time>2021-03-28T13:39:45Z</time>
      </trkpt>
      <trkpt lat="45.17783" lon="5.91735">
        <ele>1617.7113038935</ele>
        <time>2021-03-28T13:40:06Z</time>
      </trkpt>
      <trkpt lat="45.17786" lon="5.91726">
        <ele>1618.7114440389</ele>
        <time>2021-03-28T13:40:14Z</time>
      </trkpt>
      <trkpt lat="45.17793" lon="5.91726">
        <ele>1618.7117281854</ele>
        <time>2021-03-28T13:40:18Z</time>
      </trkpt>
      <trkpt lat="45.17798" lon="5.91724">
        <ele>1617.7119047083</ele>
        <time>2021-03-28T13:40:20Z</time>
      </trkpt>
      <trkpt lat="45.17804" lon="5.91721">
        <ele>1615.7121643797</ele>
        <time>2021-03-28T13:40:22Z</time>
      </trkpt>
      <trkpt lat="45.17812" lon="5.91723">
        <ele>1613.7124602608</ele>
        <time>2021-03-28T13:40:30Z</time>
      </trkpt>
      <trkpt lat="45.17818" lon="5.91719">
        <ele>1610.7127299905</ele>
        <time>2021-03-28T13:40:41Z</time>
      </trkpt>
      <trkpt lat="45.17823" lon="5.91711">
        <ele>1608.7129179128</ele>
        <time>2021-03-28T13:40:46Z</time>
      </trkpt>
      <trkpt lat="45.17829" lon="5.91702">
        <ele>1604.7131571323</ele>
        <time>2021-03-28T13:41:01Z</time>
      </trkpt>
      <trkpt lat="45.17836" lon="5.91698">
        <ele>1603.7134412788</ele>
        <time>2021-03-28T13:41:05Z</time>
      </trkpt>
      <trkpt lat="45.17843" lon="5.91695">
        <ele>1603.7137289457</ele>
        <time>2021-03-28T13:41:11Z</time>
      </trkpt>
      <trkpt lat="45.17852" lon="5.91696">
        <ele>1603.7140670717</ele>
        <time>2021-03-28T13:41:15Z</time>
      </trkpt>
      <trkpt lat="45.1786" lon="5.91694">
        <ele>1602.7143887691</ele>
        <time>2021-03-28T13:41:20Z</time>
      </trkpt>
      <trkpt lat="45.17868" lon="5.91695">
        <ele>1601.7147346064</ele>
        <time>2021-03-28T13:41:25Z</time>
      </trkpt>
      <trkpt lat="45.17863" lon="5.91691">
        <ele>1602.7145082951</ele>
        <time>2021-03-28T13:41:38Z</time>
      </trkpt>
      <trkpt lat="45.17857" lon="5.91689">
        <ele>1601.7142611966</ele>
        <time>2021-03-28T13:41:47Z</time>
      </trkpt>
      <trkpt lat="45.17858" lon="5.91684">
        <ele>1602.7143277489</ele>
        <time>2021-03-28T13:42:04Z</time>
      </trkpt>
      <trkpt lat="45.1787" lon="5.91682">
        <ele>1602.714791771</ele>
        <time>2021-03-28T13:42:09Z</time>
      </trkpt>
      <trkpt lat="45.17869" lon="5.91681">
        <ele>1601.7147455029</ele>
        <time>2021-03-28T13:42:22Z</time>
      </trkpt>
      <trkpt lat="45.17876" lon="5.9167">
        <ele>1601.7150197588</ele>
        <time>2021-03-28T13:42:26Z</time>
      </trkpt>
      <trkpt lat="45.17881" lon="5.9166">
        <ele>1593.7152185775</ele>
        <time>2021-03-28T13:42:50Z</time>
      </trkpt>
      <trkpt lat="45.17884" lon="5.91648">
        <ele>1589.7153543644</ele>
        <time>2021-03-28T13:43:03Z</time>
      </trkpt>
      <trkpt lat="45.17887" lon="5.91638">
        <ele>1582.7154928334</ele>
        <time>2021-03-28T13:43:18Z</time>
      </trkpt>
      <trkpt lat="45.17894" lon="5.91631">
        <ele>1580.7157716155</ele>
        <time>2021-03-28T13:43:24Z</time>
      </trkpt>
      <trkpt lat="45.179" lon="5.91622">
        <ele>1579.7160138525</ele>
        <time>2021-03-28T13:43:29Z</time>
      </trkpt>
      <trkpt lat="45.17908" lon="5.91616">
        <ele>1575.7163241506</ele>
        <time>2021-03-28T13:43:38Z</time>
      </trkpt>
      <trkpt lat="45.17915" lon="5.91608">
        <ele>1567.7165828161</ele>
        <time>2021-03-28T13:43:55Z</time>
      </trkpt>
      <trkpt lat="45.17922" lon="5.91605">
        <ele>1565.7168602571</ele>
        <time>2021-03-28T13:44:02Z</time>
      </trkpt>
      <trkpt lat="45.17928" lon="5.91599">
        <ele>1564.7171195932</ele>
        <time>2021-03-28T13:44:12Z</time>
      </trkpt>
      <trkpt lat="45.17936" lon="5.91596">
        <ele>1561.7174496725</ele>
        <time>2021-03-28T13:44:23Z</time>
      </trkpt>
      <trkpt lat="45.17944" lon="5.91595">
        <ele>1558.7177614793</ele>
        <time>2021-03-28T13:44:31Z</time>
      </trkpt>
      <trkpt lat="45.17953" lon="5.91596">
        <ele>1557.7181046344</ele>
        <time>2021-03-28T13:44:36Z</time>
      </trkpt>
      <trkpt lat="45.1796" lon="5.91591">
        <ele>1556.7184166089</ele>
        <time>2021-03-28T13:44:43Z</time>
      </trkpt>
      <trkpt lat="45.17969" lon="5.91587">
        <ele>1554.7187424973</ele>
        <time>2021-03-28T13:44:51Z</time>
      </trkpt>
      <trkpt lat="45.17977" lon="5.91585">
        <ele>1549.7190885022</ele>
        <time>2021-03-28T13:45:04Z</time>
      </trkpt>
      <trkpt lat="45.17986" lon="5.91585">
        <ele>1545.7194371894</ele>
        <time>2021-03-28T13:45:12Z</time>
      </trkpt>
      <trkpt lat="45.17994" lon="5.91586">
        <ele>1539.7197672687</ele>
        <time>2021-03-28T13:45:26Z</time>
      </trkpt>
      <trkpt lat="45.18002" lon="5.91586">
        <ele>1538.7200701907</ele>
        <time>2021-03-28T13:45:33Z</time>
      </trkpt>
      <trkpt lat="45.18009" lon="5.91584">
        <ele>1535.7203550078</ele>
        <time>2021-03-28T13:45:40Z</time>
      </trkpt>
      <trkpt lat="45.18016" lon="5.91582">
        <ele>1533.7206198759</ele>
        <time>2021-03-28T13:45:43Z</time>
      </trkpt>
      <trkpt lat="45.18024" lon="5.91584">
        <ele>1533.720955655</ele>
        <time>2021-03-28T13:45:51Z</time>
      </trkpt>
      <trkpt lat="45.18031" lon="5.91589">
        <ele>1532.7212193497</ele>
        <time>2021-03-28T13:46:02Z</time>
      </trkpt>
      <trkpt lat="45.18039" lon="5.91588">
        <ele>1529.7215588167</ele>
        <time>2021-03-28T13:46:08Z</time>
      </trkpt>
      <trkpt lat="45.18047" lon="5.91584">
        <ele>1528.7218900695</ele>
        <time>2021-03-28T13:46:14Z</time>
      </trkpt>
      <trkpt lat="45.18053" lon="5.91585">
        <ele>1529.7221162133</ele>
        <time>2021-03-28T13:46:21Z</time>
      </trkpt>
      <trkpt lat="45.18062" lon="5.91583">
        <ele>1525.7224585302</ele>
        <time>2021-03-28T13:46:35Z</time>
      </trkpt>
      <trkpt lat="45.18069" lon="5.91579">
        <ele>1522.7227748632</ele>
        <time>2021-03-28T13:46:45Z</time>
      </trkpt>
      <trkpt lat="45.18077" lon="5.91574">
        <ele>1521.7230960578</ele>
        <time>2021-03-28T13:46:54Z</time>
      </trkpt>
      <trkpt lat="45.18086" lon="5.91572">
        <ele>1519.7234378718</ele>
        <time>2021-03-28T13:47:02Z</time>
      </trkpt>
      <trkpt lat="45.18094" lon="5.91576">
        <ele>1521.7237511873</ele>
        <time>2021-03-28T13:47:19Z</time>
      </trkpt>
      <trkpt lat="45.18101" lon="5.91569">
        <ele>1519.7240200788</ele>
        <time>2021-03-28T13:47:26Z</time>
      </trkpt>
      <trkpt lat="45.18105" lon="5.91561">
        <ele>1515.7241898961</ele>
        <time>2021-03-28T13:47:32Z</time>
      </trkpt>
      <trkpt lat="45.18111" lon="5.91553">
        <ele>1513.7244227454</ele>
        <time>2021-03-28T13:47:36Z</time>
      </trkpt>
      <trkpt lat="45.18117" lon="5.91547">
        <ele>1511.7246690057</ele>
        <time>2021-03-28T13:47:40Z</time>
      </trkpt>
      <trkpt lat="45.18123" lon="5.91539">
        <ele>1511.7249144278</ele>
        <time>2021-03-28T13:47:45Z</time>
      </trkpt>
      <trkpt lat="45.18128" lon="5.91529">
        <ele>1512.7251197845</ele>
        <time>2021-03-28T13:47:52Z</time>
      </trkpt>
      <trkpt lat="45.18125" lon="5.9152">
        <ele>1510.7249871828</ele>
        <time>2021-03-28T13:48:04Z</time>
      </trkpt>
      <trkpt lat="45.18122" lon="5.91509">
        <ele>1512.7248721831</ele>
        <time>2021-03-28T13:48:09Z</time>
      </trkpt>
      <trkpt lat="45.18118" lon="5.91498">
        <ele>1512.7247110829</ele>
        <time>2021-03-28T13:48:19Z</time>
      </trkpt>
      <trkpt lat="45.18116" lon="5.91486">
        <ele>1510.724647548</ele>
        <time>2021-03-28T13:48:27Z</time>
      </trkpt>
      <trkpt lat="45.18123" lon="5.91479">
        <ele>1510.7249280065</ele>
        <time>2021-03-28T13:48:35Z</time>
      </trkpt>
      <trkpt lat="45.18127" lon="5.91469">
        <ele>1508.7250859216</ele>
        <time>2021-03-28T13:48:40Z</time>
      </trkpt>
      <trkpt lat="45.18133" lon="5.91461">
        <ele>1504.7253351994</ele>
        <time>2021-03-28T13:48:50Z</time>
      </trkpt>
      <trkpt lat="45.18141" lon="5.91458">
        <ele>1503.7256553881</ele>
        <time>2021-03-28T13:48:58Z</time>
      </trkpt>
      <trkpt lat="45.18149" lon="5.91457">
        <ele>1502.7259727269</ele>
        <time>2021-03-28T13:49:04Z</time>
      </trkpt>
      <trkpt lat="45.18157" lon="5.91458">
        <ele>1502.7262753136</ele>
        <time>2021-03-28T13:49:11Z</time>
      </trkpt>
      <trkpt lat="45.18166" lon="5.91455">
        <ele>1502.7266273536</ele>
        <time>2021-03-28T13:49:18Z</time>
      </trkpt>
      <trkpt lat="45.18174" lon="5.91456">
        <ele>1500.7269462012</ele>
        <time>2021-03-28T13:49:22Z</time>
      </trkpt>
      <trkpt lat="45.18182" lon="5.91453">
        <ele>1498.7272769511</ele>
        <time>2021-03-28T13:49:27Z</time>
      </trkpt>
      <trkpt lat="45.1819" lon="5.9145">
        <ele>1496.7276144065</ele>
        <time>2021-03-28T13:49:36Z</time>
      </trkpt>
      <trkpt lat="45.18197" lon="5.91442">
        <ele>1495.7278739102</ele>
        <time>2021-03-28T13:49:44Z</time>
      </trkpt>
      <trkpt lat="45.18205" lon="5.91439">
        <ele>1494.7282060012</ele>
        <time>2021-03-28T13:49:52Z</time>
      </trkpt>
      <trkpt lat="45.18211" lon="5.91438">
        <ele>1495.7284318097</ele>
        <time>2021-03-28T13:50:00Z</time>
      </trkpt>
      <trkpt lat="45.18218" lon="5.91434">
        <ele>1494.7287359051</ele>
        <time>2021-03-28T13:50:06Z</time>
      </trkpt>
      <trkpt lat="45.18227" lon="5.9143">
        <ele>1492.729064811</ele>
        <time>2021-03-28T13:50:15Z</time>
      </trkpt>
      <trkpt lat="45.18231" lon="5.91422">
        <ele>1492.7292515598</ele>
        <time>2021-03-28T13:50:23Z</time>
      </trkpt>
      <trkpt lat="45.18238" lon="5.91415">
        <ele>1490.7295368798</ele>
        <time>2021-03-28T13:50:29Z</time>
      </trkpt>
      <trkpt lat="45.18247" lon="5.91415">
        <ele>1488.7298885845</ele>
        <time>2021-03-28T13:50:38Z</time>
      </trkpt>
      <trkpt lat="45.18254" lon="5.91408">
        <ele>1486.7301747426</ele>
        <time>2021-03-28T13:50:45Z</time>
      </trkpt>
      <trkpt lat="45.18262" lon="5.9141">
        <ele>1483.7304744795</ele>
        <time>2021-03-28T13:50:54Z</time>
      </trkpt>
      <trkpt lat="45.18278" lon="5.91408">
        <ele>1479.7311088219</ele>
        <time>2021-03-28T13:51:03Z</time>
      </trkpt>
      <trkpt lat="45.18285" lon="5.91408">
        <ele>1478.7314021885</ele>
        <time>2021-03-28T13:51:12Z</time>
      </trkpt>
      <trkpt lat="45.18294" lon="5.91407">
        <ele>1477.7317424938</ele>
        <time>2021-03-28T13:51:18Z</time>
      </trkpt>
      <trkpt lat="45.18301" lon="5.91405">
        <ele>1476.732040219</ele>
        <time>2021-03-28T13:51:22Z</time>
      </trkpt>
      <trkpt lat="45.1831" lon="5.91406">
        <ele>1476.732397791</ele>
        <time>2021-03-28T13:51:27Z</time>
      </trkpt>
      <trkpt lat="45.18318" lon="5.91403">
        <ele>1474.7327072509</ele>
        <time>2021-03-28T13:51:34Z</time>
      </trkpt>
      <trkpt lat="45.18325" lon="5.91398">
        <ele>1472.7330177166</ele>
        <time>2021-03-28T13:51:39Z</time>
      </trkpt>
      <trkpt lat="45.18334" lon="5.91397">
        <ele>1473.7333392464</ele>
        <time>2021-03-28T13:51:48Z</time>
      </trkpt>
      <trkpt lat="45.1834" lon="5.9139">
        <ele>1468.7336128317</ele>
        <time>2021-03-28T13:51:56Z</time>
      </trkpt>
      <trkpt lat="45.18348" lon="5.91385">
        <ele>1465.733911898</ele>
        <time>2021-03-28T13:52:10Z</time>
      </trkpt>
      <trkpt lat="45.18353" lon="5.91379">
        <ele>1463.7341234572</ele>
        <time>2021-03-28T13:52:20Z</time>
      </trkpt>
      <trkpt lat="45.18361" lon="5.91379">
        <ele>1462.7344555482</ele>
        <time>2021-03-28T13:52:25Z</time>
      </trkpt>
      <trkpt lat="45.1837" lon="5.91378">
        <ele>1462.7347950153</ele>
        <time>2021-03-28T13:52:30Z</time>
      </trkpt>
      <trkpt lat="45.18378" lon="5.91378">
        <ele>1460.7351063192</ele>
        <time>2021-03-28T13:52:35Z</time>
      </trkpt>
      <trkpt lat="45.18385" lon="5.91374">
        <ele>1460.7354132645</ele>
        <time>2021-03-28T13:52:44Z</time>
      </trkpt>
      <trkpt lat="45.18402" lon="5.91374">
        <ele>1457.7360697351</ele>
        <time>2021-03-28T13:52:55Z</time>
      </trkpt>
      <trkpt lat="45.1841" lon="5.9137">
        <ele>1454.7363981381</ele>
        <time>2021-03-28T13:53:09Z</time>
      </trkpt>
      <trkpt lat="45.18418" lon="5.91365">
        <ele>1449.7367198355</ele>
        <time>2021-03-28T13:53:18Z</time>
      </trkpt>
      <trkpt lat="45.18425" lon="5.91366">
        <ele>1448.7369920798</ele>
        <time>2021-03-28T13:53:22Z</time>
      </trkpt>
      <trkpt lat="45.18433" lon="5.91367">
        <ele>1445.7373038866</ele>
        <time>2021-03-28T13:53:31Z</time>
      </trkpt>
      <trkpt lat="45.18441" lon="5.91362">
        <ele>1443.7376282662</ele>
        <time>2021-03-28T13:53:40Z</time>
      </trkpt>
      <trkpt lat="45.18449" lon="5.91361">
        <ele>1442.7379513048</ele>
        <time>2021-03-28T13:53:47Z</time>
      </trkpt>
      <trkpt lat="45.18457" lon="5.91363">
        <ele>1440.738287922</ele>
        <time>2021-03-28T13:53:51Z</time>
      </trkpt>
      <trkpt lat="45.18466" lon="5.91364">
        <ele>1437.7386193424</ele>
        <time>2021-03-28T13:53:55Z</time>
      </trkpt>
      <trkpt lat="45.18472" lon="5.91365">
        <ele>1437.7388873957</ele>
        <time>2021-03-28T13:54:00Z</time>
      </trkpt>
      <trkpt lat="45.18478" lon="5.91368">
        <ele>1435.7391111925</ele>
        <time>2021-03-28T13:54:04Z</time>
      </trkpt>
      <trkpt lat="45.18485" lon="5.91374">
        <ele>1434.7394069061</ele>
        <time>2021-03-28T13:54:12Z</time>
      </trkpt>
      <trkpt lat="45.18492" lon="5.91383">
        <ele>1434.7396643981</ele>
        <time>2021-03-28T13:54:20Z</time>
      </trkpt>
      <trkpt lat="45.185" lon="5.91379">
        <ele>1433.7399834134</ele>
        <time>2021-03-28T13:54:27Z</time>
      </trkpt>
      <trkpt lat="45.18506" lon="5.91373">
        <ele>1432.7402442582</ele>
        <time>2021-03-28T13:54:34Z</time>
      </trkpt>
      <trkpt lat="45.18513" lon="5.91376">
        <ele>1431.7405374572</ele>
        <time>2021-03-28T13:54:45Z</time>
      </trkpt>
      <trkpt lat="45.18522" lon="5.91374">
        <ele>1430.740860831</ele>
        <time>2021-03-28T13:54:49Z</time>
      </trkpt>
      <trkpt lat="45.18528" lon="5.91368">
        <ele>1430.7411122881</ele>
        <time>2021-03-28T13:54:54Z</time>
      </trkpt>
      <trkpt lat="45.18535" lon="5.91361">
        <ele>1430.7413800061</ele>
        <time>2021-03-28T13:55:01Z</time>
      </trkpt>
      <trkpt lat="45.18542" lon="5.91358">
        <ele>1430.7416688465</ele>
        <time>2021-03-28T13:55:08Z</time>
      </trkpt>
      <trkpt lat="45.18549" lon="5.91353">
        <ele>1428.7419757918</ele>
        <time>2021-03-28T13:55:13Z</time>
      </trkpt>
      <trkpt lat="45.18557" lon="5.91349">
        <ele>1422.742292963</ele>
        <time>2021-03-28T13:55:25Z</time>
      </trkpt>
      <trkpt lat="45.18563" lon="5.9134">
        <ele>1417.7425179332</ele>
        <time>2021-03-28T13:55:37Z</time>
      </trkpt>
      <trkpt lat="45.18568" lon="5.91332">
        <ele>1417.7427326776</ele>
        <time>2021-03-28T13:55:47Z</time>
      </trkpt>
      <trkpt lat="45.18576" lon="5.9133">
        <ele>1415.7430485077</ele>
        <time>2021-03-28T13:55:53Z</time>
      </trkpt>
      <trkpt lat="45.18583" lon="5.91324">
        <ele>1413.7433115318</ele>
        <time>2021-03-28T13:55:59Z</time>
      </trkpt>
      <trkpt lat="45.18586" lon="5.91317">
        <ele>1411.7434409484</ele>
        <time>2021-03-28T13:56:04Z</time>
      </trkpt>
      <trkpt lat="45.18593" lon="5.9131">
        <ele>1409.7437147014</ele>
        <time>2021-03-28T13:56:13Z</time>
      </trkpt>
      <trkpt lat="45.18599" lon="5.91307">
        <ele>1407.7439450361</ele>
        <time>2021-03-28T13:56:17Z</time>
      </trkpt>
      <trkpt lat="45.18606" lon="5.91301">
        <ele>1406.7442322001</ele>
        <time>2021-03-28T13:56:23Z</time>
      </trkpt>
      <trkpt lat="45.18614" lon="5.91303">
        <ele>1404.7445604354</ele>
        <time>2021-03-28T13:56:38Z</time>
      </trkpt>
      <trkpt lat="45.18623" lon="5.91303">
        <ele>1403.744918175</ele>
        <time>2021-03-28T13:56:49Z</time>
      </trkpt>
      <trkpt lat="45.1863" lon="5.91296">
        <ele>1400.7451808639</ele>
        <time>2021-03-28T13:56:57Z</time>
      </trkpt>
      <trkpt lat="45.18638" lon="5.91296">
        <ele>1398.7455158047</ele>
        <time>2021-03-28T13:57:02Z</time>
      </trkpt>
      <trkpt lat="45.18646" lon="5.91296">
        <ele>1397.7458448783</ele>
        <time>2021-03-28T13:57:09Z</time>
      </trkpt>
      <trkpt lat="45.18655" lon="5.91296">
        <ele>1393.7461913861</ele>
        <time>2021-03-28T13:57:22Z</time>
      </trkpt>
      <trkpt lat="45.18663" lon="5.91292">
        <ele>1391.7465176098</ele>
        <time>2021-03-28T13:57:30Z</time>
      </trkpt>
      <trkpt lat="45.1867" lon="5.91287">
        <ele>1390.7468149997</ele>
        <time>2021-03-28T13:57:36Z</time>
      </trkpt>
      <trkpt lat="45.18664" lon="5.91279">
        <ele>1388.7465725951</ele>
        <time>2021-03-28T13:57:47Z</time>
      </trkpt>
      <trkpt lat="45.18658" lon="5.91272">
        <ele>1387.7463377342</ele>
        <time>2021-03-28T13:57:55Z</time>
      </trkpt>
      <trkpt lat="45.18655" lon="5.91261">
        <ele>1386.7462113351</ele>
        <time>2021-03-28T13:58:12Z</time>
      </trkpt>
      <trkpt lat="45.18652" lon="5.9125">
        <ele>1386.7460654899</ele>
        <time>2021-03-28T13:58:21Z</time>
      </trkpt>
      <trkpt lat="45.18644" lon="5.91246">
        <ele>1386.7457494922</ele>
        <time>2021-03-28T13:58:29Z</time>
      </trkpt>
      <trkpt lat="45.18639" lon="5.91238">
        <ele>1384.745539777</ele>
        <time>2021-03-28T13:58:37Z</time>
      </trkpt>
      <trkpt lat="45.18631" lon="5.91231">
        <ele>1384.7452457398</ele>
        <time>2021-03-28T13:58:45Z</time>
      </trkpt>
      <trkpt lat="45.18627" lon="5.91222">
        <ele>1383.745072905</ele>
        <time>2021-03-28T13:58:55Z</time>
      </trkpt>
      <trkpt lat="45.18613" lon="5.9121">
        <ele>1383.7445002533</ele>
        <time>2021-03-28T13:59:04Z</time>
      </trkpt>
      <trkpt lat="45.18606" lon="5.91203">
        <ele>1383.7442560047</ele>
        <time>2021-03-28T13:59:13Z</time>
      </trkpt>
      <trkpt lat="45.18598" lon="5.91201">
        <ele>1381.7439086586</ele>
        <time>2021-03-28T13:59:21Z</time>
      </trkpt>
      <trkpt lat="45.1859" lon="5.91194">
        <ele>1381.7436168008</ele>
        <time>2021-03-28T13:59:28Z</time>
      </trkpt>
      <trkpt lat="45.18583" lon="5.91196">
        <ele>1381.7433247752</ele>
        <time>2021-03-28T13:59:34Z</time>
      </trkpt>
      <trkpt lat="45.18575" lon="5.91194">
        <ele>1378.7430164889</ele>
        <time>2021-03-28T13:59:40Z</time>
      </trkpt>
      <trkpt lat="45.18568" lon="5.91189">
        <ele>1379.742736198</ele>
        <time>2021-03-28T13:59:43Z</time>
      </trkpt>
      <trkpt lat="45.18561" lon="5.91184">
        <ele>1378.7424378023</ele>
        <time>2021-03-28T13:59:50Z</time>
      </trkpt>
      <trkpt lat="45.18553" lon="5.91177">
        <ele>1378.7421353832</ele>
        <time>2021-03-28T13:59:57Z</time>
      </trkpt>
      <trkpt lat="45.18545" lon="5.91173">
        <ele>1377.7418160327</ele>
        <time>2021-03-28T14:00:01Z</time>
      </trkpt>
      <trkpt lat="45.1855" lon="5.91167">
        <ele>1377.741991885</ele>
        <time>2021-03-28T14:00:14Z</time>
      </trkpt>
      <trkpt lat="45.18541" lon="5.91169">
        <ele>1378.7416433655</ele>
        <time>2021-03-28T14:00:28Z</time>
      </trkpt>
      <trkpt lat="45.18536" lon="5.9117">
        <ele>1376.7414463907</ele>
        <time>2021-03-28T14:00:32Z</time>
      </trkpt>
      <trkpt lat="45.18526" lon="5.91164">
        <ele>1378.7410459034</ele>
        <time>2021-03-28T14:00:35Z</time>
      </trkpt>
      <trkpt lat="45.18522" lon="5.91165">
        <ele>1380.7408965379</ele>
        <time>2021-03-28T14:00:39Z</time>
      </trkpt>
      <trkpt lat="45.18517" lon="5.91165">
        <ele>1381.7406715676</ele>
        <time>2021-03-28T14:00:40Z</time>
      </trkpt>
      <trkpt lat="45.18511" lon="5.91165">
        <ele>1383.7404363714</ele>
        <time>2021-03-28T14:00:44Z</time>
      </trkpt>
      <trkpt lat="45.18504" lon="5.91167">
        <ele>1381.7401590981</ele>
        <time>2021-03-28T14:00:48Z</time>
      </trkpt>
      <trkpt lat="45.18498" lon="5.9116">
        <ele>1381.7399302721</ele>
        <time>2021-03-28T14:00:49Z</time>
      </trkpt>
      <trkpt lat="45.1849" lon="5.91161">
        <ele>1384.739581082</ele>
        <time>2021-03-28T14:00:54Z</time>
      </trkpt>
      <trkpt lat="45.18483" lon="5.91165">
        <ele>1384.7393316366</ele>
        <time>2021-03-28T14:01:01Z</time>
      </trkpt>
      <trkpt lat="45.1848" lon="5.91164">
        <ele>1377.7392079197</ele>
        <time>2021-03-28T14:01:17Z</time>
      </trkpt>
      <trkpt lat="45.18473" lon="5.91162">
        <ele>1378.7389075123</ele>
        <time>2021-03-28T14:01:18Z</time>
      </trkpt>
      <trkpt lat="45.18466" lon="5.91161">
        <ele>1374.7386401296</ele>
        <time>2021-03-28T14:01:25Z</time>
      </trkpt>
      <trkpt lat="45.18446" lon="5.91163">
        <ele>1375.7378388196</ele>
        <time>2021-03-28T14:01:34Z</time>
      </trkpt>
      <trkpt lat="45.1844" lon="5.91155">
        <ele>1371.7376118377</ele>
        <time>2021-03-28T14:01:43Z</time>
      </trkpt>
      <trkpt lat="45.18426" lon="5.91149">
        <ele>1369.7370465621</ele>
        <time>2021-03-28T14:01:47Z</time>
      </trkpt>
      <trkpt lat="45.18425" lon="5.91138">
        <ele>1370.7369842008</ele>
        <time>2021-03-28T14:01:58Z</time>
      </trkpt>
      <trkpt lat="45.18418" lon="5.91135">
        <ele>1370.7367010601</ele>
        <time>2021-03-28T14:02:01Z</time>
      </trkpt>
      <trkpt lat="45.1841" lon="5.91135">
        <ele>1371.7364149019</ele>
        <time>2021-03-28T14:02:07Z</time>
      </trkpt>
      <trkpt lat="45.18402" lon="5.91137">
        <ele>1371.7360662147</ele>
        <time>2021-03-28T14:02:11Z</time>
      </trkpt>
      <trkpt lat="45.18394" lon="5.91133">
        <ele>1370.7357694954</ele>
        <time>2021-03-28T14:02:25Z</time>
      </trkpt>
      <trkpt lat="45.18386" lon="5.91135">
        <ele>1368.7354536653</ele>
        <time>2021-03-28T14:02:27Z</time>
      </trkpt>
      <trkpt lat="45.18378" lon="5.91133">
        <ele>1368.7351041399</ele>
        <time>2021-03-28T14:02:33Z</time>
      </trkpt>
      <trkpt lat="45.18369" lon="5.91137">
        <ele>1364.7347759046</ele>
        <time>2021-03-28T14:02:39Z</time>
      </trkpt>
      <trkpt lat="45.18361" lon="5.91133">
        <ele>1364.7344565541</ele>
        <time>2021-03-28T14:02:50Z</time>
      </trkpt>
      <trkpt lat="45.18349" lon="5.91122">
        <ele>1366.7339467667</ele>
        <time>2021-03-28T14:02:58Z</time>
      </trkpt>
      <trkpt lat="45.18341" lon="5.91118">
        <ele>1367.7336212136</ele>
        <time>2021-03-28T14:03:06Z</time>
      </trkpt>
      <trkpt lat="45.18334" lon="5.91114">
        <ele>1367.733357016</ele>
        <time>2021-03-28T14:03:11Z</time>
      </trkpt>
      <trkpt lat="45.18327" lon="5.91108">
        <ele>1368.7330876216</ele>
        <time>2021-03-28T14:03:15Z</time>
      </trkpt>
      <trkpt lat="45.1832" lon="5.91101">
        <ele>1366.7327945903</ele>
        <time>2021-03-28T14:03:29Z</time>
      </trkpt>
      <trkpt lat="45.18313" lon="5.911">
        <ele>1365.7325102761</ele>
        <time>2021-03-28T14:03:34Z</time>
      </trkpt>
      <trkpt lat="45.18305" lon="5.91095">
        <ele>1363.7322013192</ele>
        <time>2021-03-28T14:03:45Z</time>
      </trkpt>
      <trkpt lat="45.18298" lon="5.91089">
        <ele>1361.7319004089</ele>
        <time>2021-03-28T14:03:55Z</time>
      </trkpt>
      <trkpt lat="45.18289" lon="5.91085">
        <ele>1361.731563624</ele>
        <time>2021-03-28T14:04:02Z</time>
      </trkpt>
      <trkpt lat="45.18285" lon="5.91075">
        <ele>1359.7313959859</ele>
        <time>2021-03-28T14:04:09Z</time>
      </trkpt>
      <trkpt lat="45.18276" lon="5.91074">
        <ele>1357.731039755</ele>
        <time>2021-03-28T14:04:13Z</time>
      </trkpt>
      <trkpt lat="45.18272" lon="5.91068">
        <ele>1358.7308645733</ele>
        <time>2021-03-28T14:04:24Z</time>
      </trkpt>
      <trkpt lat="45.18265" lon="5.91065">
        <ele>1358.7305945083</ele>
        <time>2021-03-28T14:04:26Z</time>
      </trkpt>
      <trkpt lat="45.18258" lon="5.91061">
        <ele>1359.7303120382</ele>
        <time>2021-03-28T14:04:36Z</time>
      </trkpt>
      <trkpt lat="45.18258" lon="5.91054">
        <ele>1359.7303177379</ele>
        <time>2021-03-28T14:04:43Z</time>
      </trkpt>
      <trkpt lat="45.18254" lon="5.91044">
        <ele>1359.7301655225</ele>
        <time>2021-03-28T14:04:48Z</time>
      </trkpt>
      <trkpt lat="45.18248" lon="5.91036">
        <ele>1357.7299043424</ele>
        <time>2021-03-28T14:04:58Z</time>
      </trkpt>
      <trkpt lat="45.18241" lon="5.91029">
        <ele>1353.7296386361</ele>
        <time>2021-03-28T14:05:07Z</time>
      </trkpt>
      <trkpt lat="45.18233" lon="5.91024">
        <ele>1352.7293338701</ele>
        <time>2021-03-28T14:05:13Z</time>
      </trkpt>
      <trkpt lat="45.18226" lon="5.91023">
        <ele>1351.729035642</ele>
        <time>2021-03-28T14:05:17Z</time>
      </trkpt>
      <trkpt lat="45.18218" lon="5.91018">
        <ele>1351.7287154533</ele>
        <time>2021-03-28T14:05:28Z</time>
      </trkpt>
      <trkpt lat="45.18212" lon="5.9101">
        <ele>1351.7284790836</ele>
        <time>2021-03-28T14:05:35Z</time>
      </trkpt>
      <trkpt lat="45.18205" lon="5.91008">
        <ele>1352.7281842083</ele>
        <time>2021-03-28T14:05:41Z</time>
      </trkpt>
      <trkpt lat="45.18198" lon="5.91">
        <ele>1351.7279084437</ele>
        <time>2021-03-28T14:05:49Z</time>
      </trkpt>
      <trkpt lat="45.18189" lon="5.90998">
        <ele>1349.7275592536</ele>
        <time>2021-03-28T14:06:00Z</time>
      </trkpt>
      <trkpt lat="45.18181" lon="5.90994">
        <ele>1348.72722096</ele>
        <time>2021-03-28T14:06:06Z</time>
      </trkpt>
      <trkpt lat="45.18173" lon="5.9099">
        <ele>1345.7269027829</ele>
        <time>2021-03-28T14:06:10Z</time>
      </trkpt>
      <trkpt lat="45.18165" lon="5.90987">
        <ele>1344.7265908085</ele>
        <time>2021-03-28T14:06:19Z</time>
      </trkpt>
      <trkpt lat="45.18158" lon="5.90982">
        <ele>1343.7263016328</ele>
        <time>2021-03-28T14:06:28Z</time>
      </trkpt>
      <trkpt lat="45.18152" lon="5.90975">
        <ele>1340.7260758244</ele>
        <time>2021-03-28T14:06:32Z</time>
      </trkpt>
      <trkpt lat="45.18144" lon="5.9097">
        <ele>1338.7257729024</ele>
        <time>2021-03-28T14:06:36Z</time>
      </trkpt>
      <trkpt lat="45.18138" lon="5.90968">
        <ele>1337.7255004905</ele>
        <time>2021-03-28T14:06:40Z</time>
      </trkpt>
      <trkpt lat="45.18129" lon="5.90967">
        <ele>1334.7251734287</ele>
        <time>2021-03-28T14:06:47Z</time>
      </trkpt>
      <trkpt lat="45.18123" lon="5.90958">
        <ele>1336.7249224745</ele>
        <time>2021-03-28T14:06:57Z</time>
      </trkpt>
      <trkpt lat="45.18118" lon="5.90968">
        <ele>1345.7247367315</ele>
        <time>2021-03-28T14:07:54Z</time>
      </trkpt>
      <trkpt lat="45.18134" lon="5.90972">
        <ele>1348.7253564894</ele>
        <time>2021-03-28T14:08:23Z</time>
      </trkpt>
      <trkpt lat="45.18137" lon="5.90962">
        <ele>1347.7254964672</ele>
        <time>2021-03-28T14:08:32Z</time>
      </trkpt>
      <trkpt lat="45.18131" lon="5.90957">
        <ele>1348.7252572477</ele>
        <time>2021-03-28T14:08:34Z</time>
      </trkpt>
      <trkpt lat="45.18123" lon="5.90955">
        <ele>1348.7249154337</ele>
        <time>2021-03-28T14:08:46Z</time>
      </trkpt>
      <trkpt lat="45.18115" lon="5.90956">
        <ele>1349.7245833427</ele>
        <time>2021-03-28T14:09:01Z</time>
      </trkpt>
      <trkpt lat="45.18107" lon="5.90958">
        <ele>1369.7242673449</ele>
        <time>2021-03-28T14:09:31Z</time>
      </trkpt>
      <trkpt lat="45.18115" lon="5.90957">
        <ele>1384.7245897129</ele>
        <time>2021-03-28T14:09:41Z</time>
      </trkpt>
      <trkpt lat="45.18123" lon="5.90961">
        <ele>1372.7249095663</ele>
        <time>2021-03-28T14:09:47Z</time>
      </trkpt>
      <trkpt lat="45.18128" lon="5.90964">
        <ele>1372.7251199521</ele>
        <time>2021-03-28T14:09:50Z</time>
      </trkpt>
      <trkpt lat="45.18136" lon="5.90968">
        <ele>1373.7254460081</ele>
        <time>2021-03-28T14:09:54Z</time>
      </trkpt>
      <trkpt lat="45.18131" lon="5.90958">
        <ele>1354.7252361253</ele>
        <time>2021-03-28T14:10:19Z</time>
      </trkpt>
      <trkpt lat="45.18119" lon="5.9095">
        <ele>1356.724755507</ele>
        <time>2021-03-28T14:10:34Z</time>
      </trkpt>
      <trkpt lat="45.18114" lon="5.90958">
        <ele>1358.724558197</ele>
        <time>2021-03-28T14:10:46Z</time>
      </trkpt>
      <trkpt lat="45.18114" lon="5.90958">
        <ele>1358.724558197</ele>
        <time>2021-03-28T14:10:46Z</time>
      </trkpt>
    </trkseg>
  </trk>
</gpx>